[[{"header":{"parameterUnit":"m.s-1","parameterCategory":1,"la1":30.6,"la2":29.2853,"lo1":-89.7004,"lo2":-87.6739,"dy":0.0162,"dx":0.0183,"nx":112,"ny":82,"refTime":"2023-05-29T12:00:00:Z","depth":0,"parameterNumber":2,"parameterNumberName":"U-component_of_WINDS"},"data":[0.0,0.0,0.0,0.0,0.0,0.0,0.0,0.0,0.0,0.0,0.0,0.0,0.0,0.0,0.0,0.0,0.0,0.0,0.0,0.0,0.0,0.0,0.0,0.0,0.0,0.0,0.0,0.0,0.0,0.0,0.0,0.0,0.0,0.0,0.0,0.0,0.0,0.0,0.0,0.0,0.0,0.0,0.0,0.0,0.0,0.0,0.0,0.0,0.0,0.0,0.0,0.0,0.0,0.0,0.0,0.0,0.0,0.0,0.0,0.0,0.0,0.0,0.0,0.0,0.0,0.0,0.0,0.0,0.0,0.0,0.0,0.0,0.0,0.0,0.0,0.0,0.0,0.0,0.0,0.0,0.0,0.0,0.0,0.0,0.0,0.0,0.0,0.0,0.0,0.0,0.0,2.5052,2.6639,2.735,2.6782,2.6138,2.5168,2.3759,0.0,0.0,0.0,0.0,0.0,0.0,0.0,0.0,0.0,0.0,0.0,0.0,0.0,0.0,0.0,0.0,0.0,0.0,0.0,0.0,0.0,0.0,0.0,0.0,0.0,0.0,0.0,0.0,0.0,0.0,0.0,0.0,0.0,0.0,0.0,0.0,0.0,0.0,0.0,0.0,0.0,0.0,0.0,0.0,0.0,0.0,0.0,0.0,0.0,0.0,0.0,0.0,0.0,0.0,0.0,0.0,0.0,0.0,0.0,0.0,0.0,0.0,0.0,0.0,0.0,0.0,0.0,0.0,0.0,0.0,0.0,0.0,0.0,0.0,0.0,0.0,0.0,0.0,0.0,0.0,0.0,0.0,0.0,0.0,0.0,0.0,0.0,0.0,0.0,0.0,0.0,0.0,0.0,0.0,0.0,0.0,0.0,0.0,0.0,0.0,0.0,0.0,0.0,0.0,2.4566,2.6926,2.739,2.758,2.749,2.6811,2.6126,2.5288,0.0,0.0,0.0,0.0,0.0,0.0,0.0,0.0,0.0,0.0,0.0,0.0,0.0,0.0,0.0,0.0,0.0,0.0,0.0,0.0,0.0,0.0,0.0,0.0,0.0,0.0,0.0,0.0,0.0,0.0,0.0,0.0,0.0,0.0,0.0,0.0,0.0,0.0,0.0,0.0,0.0,0.0,0.0,0.0,0.0,0.0,0.0,0.0,0.0,0.0,0.0,0.0,0.0,0.0,0.0,0.0,0.0,0.0,0.0,0.0,0.0,0.0,0.0,0.0,0.0,0.0,0.0,0.0,0.0,0.0,0.0,0.0,0.0,0.0,0.0,0.0,0.0,0.0,0.0,0.0,0.0,0.0,0.0,0.0,0.0,0.0,0.0,0.0,0.0,0.0,0.0,0.0,0.0,0.0,0.0,0.0,0.0,0.0,0.0,0.0,0.0,0.0,0.0,2.3585,2.497,2.6799,2.7357,2.7625,2.7625,2.6976,2.6153,2.5136,2.4066,0.0,0.0,0.0,0.0,0.0,0.0,0.0,0.0,0.0,0.0,0.0,0.0,0.0,0.0,0.0,0.0,0.0,0.0,0.0,0.0,0.0,0.0,0.0,0.0,0.0,0.0,0.0,0.0,0.0,0.0,0.0,0.0,0.0,0.0,0.0,0.0,0.0,0.0,0.0,0.0,0.0,0.0,0.0,0.0,0.0,0.0,0.0,0.0,0.0,0.0,0.0,0.0,0.0,0.0,0.0,0.0,0.0,0.0,0.0,0.0,0.0,0.0,0.0,0.0,0.0,0.0,0.0,0.0,0.0,0.0,0.0,0.0,0.0,0.0,0.0,0.0,0.0,0.0,0.0,0.0,0.0,0.0,0.0,0.0,0.0,0.0,0.0,0.0,0.0,0.0,0.0,0.0,0.0,0.0,0.0,0.0,0.0,0.0,0.0,0.0,0.0,0.0,2.3913,2.5197,2.613,2.6759,2.7137,2.7306,2.6846,2.6065,2.4896,2.4223,0.0,0.0,0.0,0.0,0.0,0.0,0.0,0.0,0.0,0.0,0.0,0.0,0.0,0.0,0.0,0.0,0.0,0.0,0.0,0.0,0.0,0.0,0.0,0.0,0.0,0.0,0.0,0.0,0.0,0.0,0.0,0.0,0.0,0.0,0.0,0.0,0.0,0.0,0.0,0.0,0.0,0.0,0.0,0.0,0.0,0.0,0.0,0.0,0.0,0.0,0.0,0.0,0.0,0.0,0.0,0.0,0.0,0.0,0.0,0.0,0.0,0.0,0.0,0.0,0.0,0.0,0.0,0.0,0.0,0.0,0.0,0.0,0.0,0.0,0.0,0.0,0.0,0.0,0.0,0.0,0.0,0.0,0.0,0.0,0.0,0.0,0.0,0.0,0.0,0.0,0.0,0.0,0.0,0.0,0.0,0.0,0.0,0.0,0.0,0.0,0.0,0.0,2.4232,2.5356,2.5439,2.5508,2.5837,2.651,2.652,2.6214,2.5568,2.4978,0.0,0.0,0.0,0.0,0.0,0.0,0.0,0.0,0.0,0.0,0.0,0.0,0.0,0.0,0.0,0.0,0.0,0.0,0.0,0.0,0.0,0.0,0.0,0.0,0.0,0.0,0.0,0.0,0.0,0.0,0.0,0.0,0.0,0.0,0.0,0.0,0.0,0.0,0.0,0.0,0.0,0.0,0.0,0.0,0.0,0.0,0.0,0.0,0.0,0.0,0.0,0.0,0.0,0.0,0.0,0.0,0.0,0.0,0.0,0.0,0.0,0.0,0.0,0.0,0.0,0.0,0.0,0.0,0.0,0.0,0.0,0.0,0.0,0.0,0.0,0.0,0.0,0.0,0.0,0.0,0.0,0.0,0.0,0.0,0.0,0.0,0.0,0.0,0.0,0.0,0.0,0.0,0.0,0.0,0.0,0.0,0.0,0.0,0.0,0.0,0.0,0.0,2.3223,2.4307,0.0,2.5119,2.5508,2.5783,2.5783,2.5424,2.4433,0.0,0.0,0.0,0.0,0.0,0.0,0.0,0.0,0.0,0.0,0.0,0.0,0.0,0.0,0.0,0.0,0.0,0.0,0.0,0.0,0.0,0.0,0.0,0.0,0.0,0.0,0.0,0.0,0.0,0.0,0.0,0.0,0.0,0.0,0.0,0.0,0.0,0.0,0.0,0.0,0.0,0.0,0.0,0.0,0.0,0.0,0.0,0.0,0.0,0.0,0.0,0.0,0.0,0.0,0.0,0.0,0.0,0.0,0.0,0.0,0.0,0.0,0.0,0.0,0.0,0.0,0.0,0.0,0.0,0.0,0.0,0.0,0.0,0.0,0.0,0.0,0.0,0.0,0.0,0.0,0.0,0.0,0.0,0.0,0.0,0.0,0.0,0.0,0.0,0.0,0.0,0.0,0.0,0.0,0.0,0.0,0.0,0.0,0.0,0.0,0.0,0.0,2.143,2.2552,2.3488,0.0,2.4394,2.4781,2.5007,2.5063,2.4614,2.3671,0.0,0.0,0.0,0.0,0.0,0.0,0.0,0.0,0.0,0.0,0.0,0.0,0.0,0.0,0.0,0.0,0.0,0.0,0.0,0.0,0.0,0.0,0.0,0.0,0.0,0.0,0.0,0.0,0.0,0.0,0.0,0.0,0.0,0.0,0.0,0.0,0.0,0.0,0.0,0.0,0.0,0.0,0.0,0.0,0.0,0.0,0.0,0.0,0.0,0.0,0.0,0.0,0.0,0.0,0.0,0.0,0.0,0.0,0.0,0.0,0.0,0.0,0.0,0.0,0.0,0.0,0.0,0.0,0.0,0.0,0.0,0.0,0.0,0.0,0.0,0.0,0.0,0.0,0.0,0.0,0.0,0.0,0.0,0.0,0.0,0.0,0.0,0.0,0.0,0.0,0.0,0.0,0.0,0.0,0.0,0.0,0.0,0.0,0.0,0.0,0.0,0.0,2.1425,2.246,2.3078,2.3078,2.3078,2.3424,2.4234,2.4292,2.4073,0.0,0.0,0.0,0.0,0.0,0.0,0.0,0.0,0.0,0.0,0.0,0.0,0.0,0.0,0.0,0.0,0.0,0.0,0.0,0.0,0.0,0.0,0.0,0.0,0.0,0.0,0.0,0.0,0.0,0.0,0.0,0.0,0.0,0.0,0.0,0.0,0.0,0.0,0.0,0.0,0.0,0.0,0.0,0.0,0.0,0.0,0.0,0.0,0.0,0.0,0.0,0.0,0.0,0.0,0.0,0.0,0.0,0.0,0.0,0.0,0.0,0.0,0.0,0.0,0.0,0.0,0.0,0.0,0.0,0.0,0.0,0.0,0.0,0.0,0.0,0.0,0.0,0.0,0.0,0.0,0.0,0.0,0.0,0.0,0.0,0.0,0.0,0.0,0.0,0.0,0.0,0.0,0.0,0.0,0.0,0.0,0.0,0.0,0.0,0.0,0.0,0.0,0.0,2.1313,2.1965,2.2445,2.3017,2.3078,2.3198,2.3424,2.3424,2.3058,2.2195,0.0,0.0,0.0,0.0,0.0,0.0,0.0,0.0,0.0,0.0,0.0,0.0,0.0,0.0,0.0,0.0,0.0,0.0,0.0,0.0,0.0,0.0,0.0,0.0,0.0,0.0,0.0,0.0,0.0,0.0,0.0,0.0,0.0,0.0,0.0,0.0,0.0,0.0,0.0,0.0,0.0,0.0,0.0,0.0,0.0,0.0,0.0,0.0,0.0,0.0,0.0,0.0,0.0,0.0,0.0,0.0,0.0,0.0,0.0,0.0,0.0,0.0,0.0,0.0,0.0,0.0,0.0,0.0,0.0,0.0,0.0,0.0,0.0,0.0,0.0,0.0,0.0,0.0,0.0,0.0,0.0,0.0,0.0,0.0,0.0,0.0,0.0,0.0,0.0,0.0,0.0,0.0,0.0,0.0,0.0,0.0,0.0,0.0,0.0,0.0,0.0,0.0,2.0893,2.1834,2.2567,2.3078,2.3078,2.3078,2.3078,2.3078,2.2761,2.187,0.0,0.0,0.0,0.0,0.0,0.0,0.0,0.0,0.0,0.0,0.0,0.0,0.0,0.0,0.0,0.0,0.0,0.0,0.0,0.0,0.0,0.0,0.0,0.0,0.0,0.0,0.0,0.0,0.0,0.0,0.0,0.0,0.0,0.0,0.0,0.0,0.0,0.0,0.0,0.0,0.0,0.0,0.0,0.0,0.0,0.0,0.0,0.0,0.0,0.0,0.0,0.0,0.0,0.0,0.0,0.0,0.0,0.0,0.0,0.0,0.0,0.0,0.0,0.0,0.0,0.0,0.0,0.0,0.0,0.0,0.0,0.0,0.0,0.0,0.0,0.0,0.0,0.0,0.0,0.0,0.0,0.0,0.0,0.0,0.0,0.0,0.0,0.0,0.0,0.0,0.0,0.0,0.0,0.0,0.0,0.0,0.0,0.0,0.0,0.0,0.0,0.0,2.0192,2.1703,2.275,2.2884,2.2884,2.2884,2.2884,2.2944,2.278,2.2218,0.0,0.0,0.0,0.0,0.0,0.0,0.0,0.0,0.0,0.0,0.0,0.0,0.0,0.0,0.0,0.0,0.0,0.0,0.0,0.0,0.0,0.0,0.0,0.0,0.0,0.0,0.0,0.0,0.0,0.0,0.0,0.0,0.0,0.0,0.0,0.0,0.0,0.0,0.0,0.0,0.0,0.0,0.0,0.0,0.0,0.0,0.0,0.0,0.0,0.0,0.0,0.0,0.0,0.0,0.0,0.0,0.0,0.0,0.0,0.0,1.3429,0.0,0.0,0.0,0.0,0.0,0.0,0.0,0.0,0.0,0.0,0.0,0.0,0.0,0.0,0.0,0.0,0.0,0.0,0.0,0.0,0.0,0.0,0.0,0.0,0.0,0.0,0.0,0.0,0.0,0.0,0.0,0.0,0.0,0.0,0.0,0.0,0.0,0.0,0.0,0.0,0.0,1.9171,1.9787,2.0386,2.1037,2.1101,2.1101,2.1101,2.1741,2.1897,2.1284,0.0,0.0,0.0,0.0,0.0,0.0,0.0,0.0,0.0,0.0,0.0,0.0,0.0,0.0,0.0,0.0,0.0,0.0,0.0,0.0,0.0,0.0,0.0,0.0,0.0,0.0,0.0,0.0,0.0,0.0,0.0,0.0,0.0,0.0,0.0,0.0,0.0,0.0,0.0,0.0,0.0,0.0,0.0,0.0,0.0,0.0,0.0,0.0,0.0,0.0,0.0,0.0,0.0,0.0,0.0,0.0,0.0,0.0,0.0,0.0,0.0,1.4227,0.0,0.0,0.0,0.0,0.0,0.0,0.0,0.0,0.0,0.0,0.0,0.0,0.0,0.0,0.0,0.0,0.0,0.0,0.0,0.0,0.0,0.0,0.0,0.0,0.0,0.0,0.0,0.0,0.0,0.0,0.0,0.0,0.0,0.0,0.0,0.0,0.0,0.0,0.0,0.0,1.8736,1.9488,2.0074,2.0526,2.059,2.059,2.059,2.1428,2.1758,2.1473,2.2211,0.0,0.0,0.0,0.0,0.0,0.0,0.0,0.0,0.0,0.0,0.0,0.0,0.0,0.0,0.0,0.0,0.0,0.0,0.0,0.0,0.0,0.0,0.0,0.0,0.0,0.0,0.0,0.0,0.0,0.0,0.0,0.0,0.0,0.0,0.0,0.0,0.0,0.0,0.0,0.0,0.0,0.0,0.0,0.0,0.0,0.0,0.0,0.0,0.0,0.0,0.0,0.0,0.0,0.0,0.0,1.2511,1.323,1.3186,1.2667,1.4305,1.4661,1.4213,0.0,0.0,0.0,0.0,0.0,0.0,0.0,0.0,0.0,0.0,0.0,0.0,0.0,0.0,0.0,0.0,0.0,0.0,0.0,0.0,0.0,0.0,0.0,0.0,0.0,1.7227,1.7295,0.0,0.0,0.0,0.0,0.0,0.0,0.0,0.0,0.0,0.0,0.0,0.0,1.8361,1.9394,2.0139,2.0139,2.0139,2.0139,2.0139,2.0974,2.1428,2.1428,2.2187,2.2552,0.0,0.0,0.0,0.0,0.0,0.0,0.0,0.0,0.0,0.0,0.0,0.0,0.0,0.0,0.0,0.0,0.0,0.0,0.0,0.0,0.0,0.0,0.0,0.0,0.0,0.0,0.0,0.0,0.0,0.0,0.0,0.0,1.9111,1.7886,0.0,0.0,0.0,0.0,0.0,0.0,0.0,0.0,0.0,0.0,0.0,0.0,0.0,0.0,1.1309,1.1349,1.1369,1.1369,1.1471,1.156,1.1573,1.1963,1.2093,1.2107,1.3349,0.0,1.4016,1.3443,0.0,0.0,0.0,0.0,0.0,0.0,0.0,0.0,0.0,0.0,0.0,0.0,0.0,0.0,0.0,0.0,0.0,0.0,0.0,0.0,0.0,0.0,1.7764,1.7822,1.7881,1.79,0.0,1.7217,1.6655,1.665,0.0,0.0,0.0,0.0,0.0,0.0,0.0,0.0,1.757,1.8002,1.8327,1.8327,1.8327,1.8327,1.8327,1.911,1.9617,1.9617,2.0462,2.1267,2.1906,2.2027,0.0,0.0,0.0,0.0,0.0,0.0,0.0,0.0,0.0,0.0,0.0,0.0,0.0,0.0,0.0,0.0,0.0,0.0,0.0,0.0,0.0,0.0,0.0,0.0,0.0,0.0,0.0,0.0,0.0,1.9468,1.8755,1.7148,1.7258,1.6815,0.0,0.0,0.0,0.0,0.0,0.0,0.0,0.0,0.0,1.1229,1.1236,1.1296,1.1423,1.159,1.167,1.1677,1.1837,1.1917,1.1924,1.2051,1.2111,1.2118,1.2677,1.3294,1.3863,1.401,1.477,1.586,0.0,0.0,0.0,0.0,0.0,1.7451,1.7451,0.0,0.0,0.0,0.0,0.0,0.0,0.0,0.0,0.0,0.0,0.0,0.0,0.0,0.0,1.7959,1.8008,1.8008,1.8008,1.7715,1.7383,0.0,1.6894,1.6665,1.6665,0.0,0.0,0.0,0.0,0.0,1.7734,1.79,1.8008,1.8008,1.8008,1.8008,1.8008,1.8787,1.9299,1.9299,2.0139,2.0782,2.1175,2.1628,2.1968,0.0,0.0,0.0,0.0,0.0,0.0,0.0,0.0,0.0,0.0,0.0,0.0,0.0,0.0,0.0,0.0,0.0,0.0,0.0,0.0,0.0,0.0,0.0,0.0,0.0,0.0,0.0,0.0,1.8024,1.7431,1.6348,1.6465,1.6151,0.0,0.0,0.0,0.0,0.0,0.0,1.1434,1.1445,1.1456,1.1536,1.1543,1.1577,1.165,1.187,1.1984,1.1984,1.2198,1.2305,1.2305,1.2305,1.2305,1.2305,1.2305,1.2739,1.3382,1.4163,1.4736,1.5234,1.5939,1.6367,0.0,1.7657,1.8008,1.8008,1.8008,1.8008,1.8008,1.8008,0.0,1.8008,1.8008,0.0,0.0,0.0,0.0,1.7129,1.7461,0.0,1.7627,1.7939,1.8008,1.8008,1.8008,1.793,1.7793,0.0,1.7285,1.7061,1.7061,0.0,0.0,0.0,0.0,1.8008,1.8008,1.8008,1.8008,1.8008,1.8008,1.8008,1.8008,1.8596,1.8977,1.8977,1.9562,2.0009,2.0268,2.091,2.1428,2.1877,0.0,0.0,0.0,0.0,0.0,0.0,0.0,0.0,0.0,0.0,0.0,0.0,0.0,0.0,0.0,0.0,0.0,0.0,0.0,0.0,0.0,0.0,0.0,0.0,0.0,0.0,0.0,0.0,0.0,1.5284,1.4796,0.0,0.0,0.0,0.0,1.2292,1.1692,1.1744,1.2557,1.1826,1.1557,1.1837,1.1844,1.1984,1.2251,1.2271,1.2278,1.2278,1.2291,1.2305,1.2305,1.2305,1.2305,1.2305,1.2305,1.2305,1.2372,1.2445,1.352,1.5234,1.5234,1.579,1.6706,1.7647,1.8008,1.8008,1.8008,1.8008,1.8008,1.8008,1.8008,1.8008,1.8008,1.7998,0.0,0.0,1.7959,1.7949,1.7978,1.7978,1.7978,1.8008,1.8008,1.8008,1.8008,1.7695,1.7529,0.0,1.7959,1.7949,1.7949,0.0,1.7978,1.7978,1.7998,1.8008,1.8008,1.8008,1.8008,1.8008,1.8008,1.8008,1.8008,1.8008,1.8076,1.8076,1.8144,1.8529,1.9299,1.9431,2.0204,2.1877,2.1916,0.0,0.0,0.0,0.0,0.0,0.0,0.0,0.0,0.0,0.0,0.0,0.0,0.0,0.0,0.0,0.0,0.0,0.0,0.0,0.0,0.0,0.0,0.0,0.0,0.0,0.0,0.0,0.0,1.3855,1.376,0.0,0.0,1.3042,1.2859,1.2528,1.2019,1.185,1.22,1.2026,1.2037,1.2144,1.2144,1.2198,1.2305,1.2305,1.1996,1.1316,1.1996,1.1996,1.1391,1.1996,1.2305,1.2305,1.2305,1.2305,1.2305,1.2305,1.2732,1.3448,1.4736,1.5376,1.5869,1.7432,1.8008,1.8008,1.8008,1.8008,1.8008,1.8008,1.8008,1.8008,1.8008,1.8008,1.8008,1.8008,1.8008,1.8008,1.8008,1.8008,1.8008,1.8008,1.8008,1.8008,1.8008,1.7891,1.7832,1.7978,1.7793,1.7695,1.7969,1.8008,1.8008,1.8008,1.8008,1.8008,1.8008,1.8008,1.8008,1.8008,1.8008,1.8008,1.8008,1.8008,1.8008,1.8008,1.8008,1.8134,1.8462,1.8977,1.9562,2.0204,2.1302,2.2063,0.0,0.0,0.0,0.0,0.0,0.0,0.0,0.0,0.0,0.0,0.0,0.0,0.0,0.0,0.0,0.0,0.0,0.0,0.0,0.0,0.0,0.0,0.0,0.0,0.0,0.0,1.272,1.3112,1.3082,1.3012,1.3138,1.2662,1.2239,1.1971,1.1688,1.1499,1.1499,1.2045,1.2305,1.2305,1.2305,1.2305,1.2305,1.2305,1.1768,1.0783,1.1848,1.1768,1.0858,1.1842,1.2305,1.2305,1.2305,1.2305,1.2305,1.2305,1.2305,1.2519,1.445,1.5234,1.5446,1.7295,1.8008,1.8008,1.8008,1.8008,1.8008,1.8008,1.8008,1.8008,1.8008,1.8008,1.8008,1.8008,1.8008,1.8008,1.8008,1.8008,1.8008,1.8008,1.8008,1.8047,1.8193,1.8223,1.8262,1.8408,1.7988,1.7734,1.8144,1.8223,1.8271,1.8418,1.8437,1.8437,1.8437,1.8437,1.8437,1.8437,1.8437,1.8437,1.8437,1.8437,1.8437,1.8437,1.8301,1.8223,1.8223,1.861,1.911,1.9748,2.1416,2.2322,2.2322,0.0,0.0,0.0,0.0,0.0,0.0,0.0,0.0,0.0,0.0,0.0,0.0,0.0,0.0,0.0,0.0,0.0,0.0,0.0,0.0,0.0,0.0,0.0,1.3485,1.126,1.0258,1.2933,1.2595,1.2284,1.2631,1.2012,1.1255,1.0485,1.0648,1.0783,1.0783,1.1694,1.2224,1.2224,1.2231,1.2238,1.2238,1.2251,1.1719,1.0807,1.1793,1.1719,1.0795,1.1787,1.2238,1.2305,1.2305,1.2305,1.2305,1.2305,1.2305,1.2519,1.4378,1.5163,1.5376,1.7226,1.794,1.794,1.794,1.8008,1.8008,1.8008,1.8008,1.8008,1.8008,1.8008,1.8008,1.8008,1.8008,1.8018,1.8027,1.8027,1.8037,1.8047,1.8047,1.8164,1.8574,1.8652,1.8789,1.9209,1.8623,1.8184,1.8584,1.8652,1.8799,1.9219,1.9287,0.0,1.9287,1.9287,1.9287,1.9287,1.9287,1.9287,1.9287,1.9287,1.9287,1.9287,1.8887,1.8652,1.8652,1.8271,1.8818,2.0549,2.2187,2.3017,2.3078,0.0,0.0,0.0,0.0,0.0,0.0,0.0,0.0,0.0,0.0,0.0,0.0,0.0,0.0,0.0,0.0,0.0,0.0,0.0,0.0,0.0,0.0,0.7989,0.9622,0.9551,0.9452,0.9775,1.0471,1.0918,1.0999,1.1033,1.0893,1.0677,1.0077,0.9744,0.9744,1.064,1.087,1.0121,1.0901,1.1383,1.1471,1.079,1.0316,1.0153,1.0316,1.0231,0.9906,1.0912,1.1734,1.2305,1.2305,1.2305,1.2305,1.2305,1.2305,1.2445,1.3673,1.4099,1.4243,1.5517,1.6367,1.7001,1.7001,1.7432,1.8008,1.8008,1.8008,1.8008,1.8008,1.8008,1.8008,1.8008,1.8008,1.8076,1.8389,1.8467,1.8545,1.8857,1.8936,1.8965,1.9082,1.9111,1.915,1.9268,1.9102,1.8975,1.9092,1.9111,1.915,1.9268,0.0,0.0,1.9287,1.9287,1.9287,1.9287,1.9287,1.9287,1.9287,1.9287,1.9287,0.0,1.918,1.9111,1.9111,1.8994,1.9324,2.0062,2.0888,2.1616,0.0,0.0,0.0,0.0,0.0,0.0,0.0,0.0,0.0,0.0,0.0,0.0,0.0,0.0,0.0,0.0,0.0,0.0,0.0,0.0,0.0,0.0,0.6106,0.6682,0.7174,0.7924,0.8482,0.8578,0.9227,0.979,0.99,0.9734,0.9513,0.9513,0.8988,0.8727,0.8735,0.9729,1.0001,0.9491,1.0084,1.0469,1.0554,0.9968,0.9543,0.9213,0.9543,0.948,0.9039,1.0548,1.1492,0.0,1.2451,1.2685,1.2685,1.2685,1.2685,0.0,0.0,0.0,0.0,0.0,1.5517,1.6079,1.6498,1.6922,1.7501,1.7862,1.8008,1.8008,1.8008,1.8135,1.8271,1.8271,1.8398,1.8603,1.8848,1.8906,1.8975,1.9228,1.9287,1.9336,1.9512,1.9551,1.96,1.9785,0.0,0.0,1.9824,1.9668,1.9619,1.9795,1.9824,1.9824,0.0,1.9824,1.9824,1.9824,1.9824,1.9824,1.9824,1.9824,0.0,0.0,0.0,1.9473,1.9297,1.963,0.0,0.0,0.0,2.1404,0.0,0.0,0.0,0.0,2.2907,2.2902,0.0,0.0,0.0,0.0,0.0,0.0,0.0,0.0,0.0,0.0,0.0,0.0,0.0,0.0,0.0,0.0,0.5275,0.5689,0.5979,0.6606,0.7415,0.8373,0.8617,0.8768,0.9125,0.8313,0.7791,0.7812,0.7735,0.7733,0.7832,0.0,0.0,0.0,0.0,0.9582,0.9582,0.9442,0.9046,0.8309,0.9046,0.9032,0.8279,1.0227,1.1272,1.157,1.2552,1.3048,1.3213,1.3213,1.3213,1.3232,1.3457,1.3564,1.3673,1.4522,1.5021,0.0,0.0,0.0,0.0,1.7579,1.7969,1.8076,1.7939,1.83,1.8711,1.8711,1.8994,1.9297,1.9346,1.9355,1.9375,1.9424,1.9434,1.9531,1.9902,1.999,2.0098,2.0488,2.0566,2.0566,2.0566,2.0244,2.0117,2.0508,2.0566,0.0,2.0566,2.0566,2.0566,2.0566,0.0,0.0,2.0566,2.0566,2.0566,2.0566,2.0205,1.9824,1.9453,2.0154,2.0544,2.0676,2.1457,2.1978,2.2047,2.2554,2.2733,2.2786,2.2973,2.3078,0.0,0.0,0.0,0.0,0.0,0.0,0.0,0.0,0.0,0.0,0.0,0.0,0.0,0.0,0.0,0.037,0.2315,0.4009,0.5989,0.6371,0.6506,0.6743,0.7499,0.804,0.8084,0.7936,0.7842,0.7985,0.7213,0.6816,0.6973,0.7869,0.0,0.727,0.8146,0.8724,0.8888,0.8018,0.8001,0.878,0.0,0.0,0.8388,0.8809,0.9873,1.1484,1.173,1.2387,1.3213,1.3213,1.3213,1.3173,1.3029,1.2811,1.2586,1.2806,1.3875,1.5234,1.5376,1.6437,1.7647,1.707,1.7581,1.8375,1.758,1.8228,0.0,1.916,1.9219,1.9365,1.9707,1.9795,1.9883,2.0234,2.0312,2.0342,2.042,2.0439,2.0469,2.0547,2.0566,2.0566,2.0566,2.0498,2.0469,2.0557,2.0566,2.0566,2.0566,2.0566,2.0566,2.0566,2.0566,2.0566,2.0566,2.0566,2.0566,2.0566,2.0488,2.04,2.0322,2.0121,2.0434,2.123,2.1761,2.2389,2.3156,2.3945,2.4387,2.4362,2.3479,2.3078,0.0,0.0,0.0,0.0,0.0,0.0,0.0,0.0,0.0,0.0,0.0,-0.7032,0.0,0.0,-0.3115,-0.0452,0.1526,0.3557,0.598,0.5341,0.5093,0.6197,0.6736,0.7072,0.7156,0.7163,0.7224,0.7377,0.6909,0.6654,0.6807,0.7312,0.7348,0.6919,0.7418,0.7801,0.7887,0.7365,0.7401,0.8017,0.7404,0.7362,0.7805,0.8406,0.9545,1.1117,1.1615,1.2542,1.3647,1.3647,1.3561,1.3414,1.3253,1.3013,1.2759,1.2759,1.3355,1.4238,1.4746,1.5487,1.6293,1.6276,1.7152,1.807,1.756,1.8433,1.96,1.96,1.9756,1.998,2.0185,2.0244,2.0293,2.0508,2.0566,2.0566,2.0566,2.0566,2.0566,2.0566,2.0566,2.0566,2.0566,2.0566,2.0566,2.0566,2.0566,2.0566,2.0566,2.0566,2.0566,2.0566,2.0566,2.0566,2.0566,2.0566,2.0566,2.0566,2.0566,2.0566,2.0566,2.0352,2.0463,2.0974,2.1186,2.1782,2.2775,2.3386,2.4042,2.4523,2.4101,2.3979,0.0,0.0,0.0,0.0,0.0,0.0,0.0,0.0,-0.9994,-0.829,-0.6838,-0.5554,-0.4522,-0.3806,-0.2811,-0.0911,0.0618,0.243,0.4726,0.3209,0.2418,0.3679,0.494,0.5707,0.5916,0.6344,0.6661,0.6736,0.6746,0.6814,0.6963,0.697,0.7021,0.7136,0.7139,0.7139,0.7139,0.7139,0.7139,0.7139,0.7139,0.7139,0.7139,0.8105,0.9144,1.0351,1.1724,1.2851,1.3737,1.3997,1.3948,1.3728,1.3728,1.3587,1.3367,1.3253,1.3286,1.3588,1.4343,1.4724,1.4949,1.5549,1.6674,1.7743,1.7357,1.8552,1.9963,1.9802,2.0139,2.0566,2.0566,2.0566,2.0566,2.0566,2.0566,2.0566,2.0566,2.0566,2.0566,2.0566,2.0566,2.0566,2.0566,2.0566,2.0566,2.0566,2.0566,2.0566,2.0566,2.0566,2.0566,2.0566,2.0566,2.0566,2.0566,2.0566,2.0566,2.0566,2.0566,2.0566,2.0566,2.0566,2.0722,2.0857,2.0857,2.1375,2.2328,2.2906,2.3582,2.4374,2.4858,2.5021,-1.6714,-1.7446,-1.6791,-1.4634,-1.4915,-1.475,0.0,0.0,-0.9427,-0.7724,-0.6619,-0.5946,-0.579,-0.5844,-0.5237,-0.3113,-0.2572,-0.1718,0.0391,-0.1093,-0.3047,-0.4721,0.0078,0.3471,0.3473,0.5445,0.6719,0.681,0.683,0.6887,0.7109,0.7115,0.7126,0.7139,0.7139,0.7139,0.7139,0.7139,0.7139,0.7139,0.7139,0.7139,0.7139,0.7228,0.7925,0.9235,1.1381,1.2413,1.2589,1.3646,1.4068,1.4041,1.4041,1.4015,1.3928,1.3407,1.3745,1.4499,1.4569,1.5173,1.5695,1.5019,1.6313,1.7905,1.6103,1.7926,2.0333,1.9367,1.9806,2.0566,2.0566,2.0566,2.0566,2.0566,2.0566,2.0566,2.0566,2.0566,2.0566,2.0566,2.0566,2.0566,2.0566,2.0566,2.0566,2.0566,2.0566,2.0566,2.0566,2.0566,2.0566,2.0566,2.0566,2.0566,2.0566,2.0566,2.0566,2.0566,2.0566,2.0566,2.0566,2.0566,2.1011,2.1811,2.1811,2.2328,2.3294,2.4279,2.4779,2.4921,2.5864,2.5749,-1.374,-1.4898,-1.5019,-1.2814,-1.3172,-1.3298,-1.0535,-1.039,-1.0337,-0.8662,-0.7681,-0.7071,-0.7071,-0.6615,-0.6045,0.0,-0.4937,-0.4628,-0.3771,-0.3366,-0.3912,-0.6067,-0.4121,-0.1526,0.1233,0.2337,0.3411,0.4837,0.6189,0.7021,0.7068,0.7071,0.7064,0.7139,0.7139,0.7139,0.7139,0.7139,0.7139,0.7139,0.7139,0.7139,0.7139,0.7139,0.7753,0.9065,1.1295,1.2328,1.2413,1.3561,1.4088,1.4088,1.4088,1.4088,1.4055,1.3808,1.3954,1.4349,1.4349,1.4586,1.4822,1.443,1.539,1.6621,1.582,1.7443,1.9599,1.9125,1.9756,2.0566,2.0566,2.0566,2.0566,2.0566,2.0566,2.0566,2.0566,2.0566,2.0566,2.0566,2.0566,2.0566,2.0566,2.0566,2.0566,2.0566,2.0566,2.0566,2.0566,2.0566,2.0566,2.0566,2.0566,2.0566,2.0566,2.0566,2.0566,2.0566,2.0566,2.0566,2.0566,2.0566,2.0789,2.1155,2.1155,2.1669,2.2627,2.3672,2.4409,2.5004,2.6025,2.6214,-1.2937,-1.3788,-1.395,-1.1947,-1.214,-1.2431,-1.0906,-1.1031,-1.0924,-0.949,-0.8435,-0.7706,-0.7403,-0.6802,-0.6278,-0.6285,-0.6285,-0.6295,-0.6312,-0.494,-0.4535,-0.6129,-0.6541,-0.5358,-0.1919,-0.0597,0.0697,0.2492,0.42,0.5463,0.6088,0.6726,0.7081,0.7068,0.7061,0.7061,0.7061,0.7143,0.7139,0.7139,0.7139,0.7139,0.7139,0.7139,0.7577,0.854,1.0524,1.1552,1.1901,1.3118,1.3822,1.4088,1.4088,1.4088,1.4088,1.4088,1.4088,1.4088,1.4088,1.4088,1.4088,1.4088,1.4817,1.5621,1.5379,1.7001,1.8877,1.823,1.9274,2.0557,2.0245,2.0401,2.0566,2.0566,2.0566,2.0566,2.0566,2.0566,2.0566,2.0566,2.0566,2.0566,2.0566,2.0566,2.0566,2.0566,2.0566,2.0566,2.0566,2.0566,2.0566,2.0566,2.0566,2.0566,2.0566,2.0566,2.0566,2.0566,2.0566,2.0566,2.0566,2.0566,2.0566,2.0566,2.0566,2.0934,2.1593,2.2627,2.3441,2.4192,2.5499,2.6094,-1.6437,-1.5897,-1.4859,-1.3094,-1.2876,-1.2902,-1.207,-1.1332,-1.0553,-0.9513,-0.8461,-0.748,-0.649,-0.6338,-0.6338,-0.6264,-0.6264,-0.6268,-0.6278,-0.6268,-0.6264,-0.6278,-0.6525,-0.6705,0.0,-0.2564,-0.0,0.0089,0.0179,0.1251,0.357,0.5824,0.7101,0.7101,0.7091,0.7084,0.7084,0.7061,0.7139,0.7139,0.7139,0.7139,0.7139,0.7139,0.7139,0.7228,0.8452,0.9666,1.0783,1.1901,1.3027,1.4088,1.4088,1.4088,1.4088,1.4088,1.4088,1.4088,1.4088,1.4088,1.4088,1.4088,1.4817,1.5538,1.4496,1.6445,1.855,1.6429,1.8132,2.0323,1.9362,1.9844,2.0566,2.0566,2.0566,2.0566,2.0566,2.0566,2.0566,2.0566,2.0566,2.0566,2.0566,2.0566,2.0566,2.0566,2.0566,2.0566,2.0566,2.0566,2.0566,2.0566,2.0566,2.0566,2.0566,2.0566,2.0566,2.0566,2.0566,2.0566,2.0566,2.0566,2.0566,2.0566,2.0566,2.0644,2.0644,2.1593,2.2027,2.2103,2.4108,2.5087,-1.5163,-1.4614,-1.3909,-1.2529,-1.2366,-1.229,-1.1401,-1.1476,-1.1545,-1.049,-1.004,-0.9658,-0.9357,-0.8228,-0.7092,-0.6381,-0.6321,-0.6264,-0.6278,-0.6268,-0.6264,-0.6268,-0.6434,0.0,0.0,0.0,0.0,-0.2494,-0.0893,0.0357,0.1158,0.1963,0.3129,0.4739,0.5272,0.6083,0.7084,0.7064,0.7139,0.7139,0.7139,0.7139,0.7139,0.7139,0.7139,0.7139,0.8364,0.9579,1.0697,1.1809,1.3027,1.4088,1.4088,1.4088,1.4088,1.4088,1.4088,1.4088,1.4088,1.4088,1.4088,1.4088,1.4328,1.4573,1.4166,1.5387,1.6838,1.6764,1.7577,1.8709,1.9756,1.9766,1.9678,2.0401,2.0566,2.0566,2.0566,2.0566,2.0566,2.0566,2.0566,2.0566,2.0566,2.0566,2.0566,2.0566,2.0566,2.0566,2.0566,2.0566,2.0566,2.0566,2.0566,2.0566,2.0566,2.0566,2.0566,2.0566,2.0566,2.0566,2.0566,2.0566,2.0566,2.0566,2.0566,2.0566,2.0566,2.1517,2.2027,2.2027,2.4036,2.5004,-1.4774,-1.4305,-1.3901,-1.2425,-1.2449,-1.2432,-1.1087,-1.1316,-1.1391,-1.0034,-1.004,-1.0115,-0.9809,-0.8685,-0.7621,-0.6915,-0.6553,-0.6264,-0.6271,-0.6268,-0.6338,-0.6338,-0.6386,0.0,0.0,0.0,0.0,-0.5001,-0.34,-0.1788,-0.0089,-0.0,0.1074,0.3492,0.4109,0.5272,0.7091,0.7064,0.7139,0.7139,0.7139,0.7139,0.7139,0.7139,0.7139,0.7139,0.7929,0.9144,1.0697,1.1381,1.2595,1.4088,1.4088,1.4088,1.4088,1.4088,1.4088,1.4088,1.4088,1.4088,1.4088,1.4088,1.4088,1.4088,1.4088,1.4817,1.5861,1.6519,1.7334,1.823,1.9678,1.9766,1.9766,2.0401,2.0566,2.0566,2.0566,2.0566,2.0566,2.0566,2.0566,2.0566,2.0566,2.0566,2.0566,2.0566,2.0566,2.0566,2.0566,2.0566,2.0566,2.0566,2.0566,2.0566,2.0566,2.0566,2.0566,2.0566,2.0566,2.0566,2.0566,2.0566,2.0566,2.0566,2.0566,2.0566,2.0566,2.1231,2.1517,2.1517,2.3147,2.412,-1.5213,-1.4964,-1.4593,-1.2732,-1.2952,-1.315,-1.123,-1.0858,-1.0335,-0.8385,-0.8765,-0.9145,-0.8237,0.0,-0.7859,-0.7859,-0.7022,-0.6338,-0.6338,-0.6338,-0.6338,0.0,0.0,0.0,0.0,0.0,0.0,-0.7061,0.0,-0.5034,-0.0447,-0.009,0.1079,0.3514,0.3582,0.4739,0.7101,0.7068,0.7139,0.7139,0.7139,0.7139,0.7139,0.7139,0.7139,0.7139,0.7139,0.8436,1.0595,1.0595,1.1969,1.4041,1.4055,1.4062,1.4068,1.4082,1.4088,1.4088,1.4088,1.4088,1.4088,1.4088,1.4088,1.4088,1.4088,1.481,1.5621,1.5779,1.7245,1.8798,1.9036,1.9756,2.0479,2.0566,2.0566,2.0566,2.0566,2.0566,2.0566,2.0566,2.0566,2.0566,2.0566,2.0566,2.0566,2.0566,2.0566,2.0566,2.0566,2.0566,2.0566,2.0566,2.0566,2.0566,2.0566,2.0566,2.0566,2.0566,2.0566,2.0566,2.0566,2.0566,2.0566,2.0566,2.0566,2.0566,2.0566,2.0566,2.0566,2.0644,2.1593,2.2627,-1.4076,-1.3578,-1.2945,-1.2445,-1.2445,-1.2358,-1.1087,-1.1391,-1.1545,-1.0265,-1.087,-1.1471,-1.1174,-0.9895,0.0,-0.8917,-0.748,0.0,-0.6338,-0.6338,0.0,-0.6338,0.0,-0.6373,-0.6515,-0.6668,0.0,0.0,-0.7034,-0.5833,-0.2857,-0.0986,0.1079,0.3514,0.3582,0.4739,0.7101,0.7068,0.7139,0.7139,0.7139,0.7139,0.7139,0.7139,0.7139,0.7139,0.7139,0.8285,1.0283,1.0283,1.1526,1.3454,1.3674,1.3761,1.3781,1.4008,1.4088,1.4088,1.4088,1.4088,1.4088,1.4088,1.4088,1.4088,1.4088,1.4328,1.4817,1.6445,1.6116,1.6124,1.9353,1.9195,1.855,2.0235,2.0566,2.0566,2.0566,2.0566,2.0566,2.0566,2.0566,2.0566,2.0566,2.0566,2.0566,2.0566,2.0566,2.0566,2.0566,2.0566,2.0566,2.0566,2.0566,2.0566,2.0566,2.0566,2.0566,2.0566,2.0566,2.0566,2.0566,2.0566,2.0566,2.0566,2.0566,2.0566,2.0566,2.0566,2.0566,2.0644,2.2339,2.322,-1.3171,-1.3025,-1.2806,-1.2372,-1.2592,-1.2579,-1.1081,-1.1527,-1.1964,-1.0983,-1.1588,-1.2271,-1.2271,-1.0634,0.0,0.0,0.0,0.0,-0.6338,-0.6338,-0.6338,0.0,-0.6338,0.0,-0.6458,-0.6549,-0.6692,0.0,-0.6997,-0.6091,-0.3749,-0.1342,0.0628,0.1979,0.4037,0.5741,0.7094,0.7068,0.7139,0.7139,0.7139,0.7139,0.7139,0.7075,0.7048,0.7044,0.0,0.7909,0.9474,0.9883,1.1044,1.2578,1.322,1.3454,1.3487,1.3788,1.3895,1.3908,1.4041,1.4088,1.4088,1.4088,1.4088,1.4088,1.4088,1.4088,1.4412,1.6116,1.5703,1.5628,1.9027,1.8957,1.847,2.0157,2.0566,2.0566,2.0566,2.0566,2.0566,2.0566,2.0566,2.0566,2.0566,2.0566,2.0566,2.0566,2.0566,2.0566,2.0566,2.0566,2.0566,2.0566,2.0566,2.0566,2.0566,2.0566,2.0566,2.0566,2.0566,2.0566,2.0566,2.0566,2.0566,2.0566,2.0566,2.0566,2.0566,2.0566,2.0789,2.1221,2.2328,2.3294,-1.2519,-1.2879,-1.331,-1.2519,-1.2879,-1.3084,-1.1378,-1.1662,-1.1937,-1.1107,0.0,-1.2238,-1.2238,-1.0622,-0.9296,-0.9296,0.0,-0.6338,-0.6338,-0.6338,-0.6338,-0.6338,-0.6338,-0.6308,-0.643,-0.6461,-0.659,-0.6878,-0.6964,-0.616,-0.4196,-0.1519,-0.0,-0.0,0.4314,0.6751,0.7084,0.7064,0.7132,0.7112,0.7112,0.7102,0.7078,0.6956,0.6898,0.6892,0.0,0.0,0.8607,0.9494,1.0605,1.1879,1.2811,1.3153,1.3186,1.348,1.3587,1.3627,1.3928,1.4028,1.4035,1.4075,1.4088,1.4088,1.4088,1.4088,1.4334,1.5545,1.5703,1.6026,1.855,1.8957,1.9116,2.0323,2.0566,2.0566,2.0566,2.0566,2.0566,2.0566,2.0566,2.0566,2.0566,2.0566,2.0566,2.0566,2.0566,2.0566,2.0566,2.0566,2.0566,2.0566,2.0566,2.0566,2.0566,2.0566,2.0566,2.0566,2.0566,2.0566,2.0566,2.0566,2.0566,2.0566,2.0566,2.0644,2.0789,2.0789,2.1298,2.2178,2.2328,2.3294,-1.2372,-1.2445,-1.2519,-1.2372,-1.2445,-1.2445,-1.2144,-1.2144,0.0,0.0,-1.2137,-1.2291,-1.2291,-1.0645,-0.9296,-0.9296,0.0,0.0,0.0,0.0,-0.6338,0.0,0.0,0.0,0.0,0.0,0.0,0.0,0.0,0.0,-0.6545,-0.2324,-0.0,-0.0,0.2771,0.5099,0.7084,0.7064,0.7082,0.6966,0.6966,0.6898,0.6776,0.6753,0.6742,0.6739,0.0,0.0,0.935,0.9513,1.065,1.2254,1.2726,1.2903,1.2866,1.3173,1.3287,1.3327,1.3621,1.3721,1.3761,1.4008,1.4088,1.4088,1.4088,1.4088,1.4496,1.6445,1.5711,1.5311,1.9274,1.8957,1.806,2.0157,2.0566,2.0566,2.0566,2.0566,2.0566,2.0566,2.0566,2.0566,2.0566,2.0566,2.0566,2.0566,2.0566,2.0566,2.0566,2.0566,2.0566,2.0566,2.0566,2.0566,2.0566,2.0566,2.0566,2.0566,2.0566,2.0566,2.0566,2.0566,2.0566,2.0566,2.0566,2.1011,2.1735,2.1735,2.2253,2.3294,2.412,2.4636,-1.2305,-1.2305,-1.2305,-1.2305,-1.2305,-1.2305,-1.2305,0.0,0.0,0.0,-1.3025,-1.3025,-1.3025,-1.1385,0.0,-0.9372,-0.8084,0.0,0.0,0.0,0.0,0.0,0.0,0.0,0.0,0.0,0.0,0.0,0.0,0.0,-0.7084,-0.2597,-0.0,-0.0,0.2211,0.4487,0.6896,0.6877,0.6878,0.681,0.681,0.677,0.6698,0.6617,0.658,0.6576,0.0,0.0,0.8676,0.9217,1.022,1.1558,1.2302,1.2518,1.2552,1.2852,1.2966,1.3013,1.3313,1.3514,1.3667,1.3808,1.3961,1.4088,1.4088,1.4496,1.5137,1.6191,1.5703,1.5703,1.8948,1.855,1.7819,2.0079,2.0566,2.0566,2.0566,2.0566,2.0566,2.0566,2.0566,2.0566,2.0566,2.0566,2.0566,2.0566,2.0566,2.0566,2.0566,2.0566,2.0566,2.0566,2.0566,2.0566,2.0566,2.0566,2.0566,2.0566,2.0566,2.0566,2.0566,2.0566,2.0566,2.0566,2.1078,2.1517,2.2027,2.2553,2.3294,2.4264,2.4791,2.53,-1.2305,-1.2305,-1.2305,-1.2305,-1.2305,-1.2305,-1.2305,-1.2879,0.0,-1.3382,-1.3382,-1.3382,-1.3382,-1.1822,-1.019,0.0,-0.8313,-0.7176,0.0,0.0,0.0,0.0,0.0,0.0,0.0,0.0,0.0,0.0,0.0,0.0,0.0,-0.2566,-0.0,-0.0,0.1563,0.3787,0.6579,0.6692,0.6685,0.6651,0.6651,0.6634,0.6603,0.6481,0.6427,0.642,0.0,0.0,0.0,0.8998,1.0045,1.1236,1.1996,1.2305,1.2331,1.2565,1.2728,1.2699,1.3006,1.326,1.3474,1.3601,1.3841,1.4088,1.4088,1.4817,1.5779,1.5944,1.6026,1.6519,1.8789,1.847,1.8149,2.0157,2.0566,2.0566,2.0566,2.0566,2.0566,2.0566,2.0566,2.0566,2.0566,2.0566,2.0566,2.0566,2.0566,2.0566,2.0566,2.0566,2.0566,2.0566,2.0566,2.0566,2.0566,2.0566,2.0566,2.0566,2.0566,2.0566,2.0566,2.0566,2.0712,2.0934,2.1593,2.2178,2.2627,2.3441,2.4337,2.53,2.53,2.5734,-1.2305,-1.2305,-1.2305,-1.2305,-1.2305,-1.2305,-1.2305,0.0,-1.2445,-1.2445,-1.2445,-1.2445,-1.2445,-1.0795,-0.9372,-0.9296,-0.7706,-0.6412,-0.6338,0.0,0.0,0.0,0.0,0.0,0.0,0.0,0.0,0.0,0.0,0.0,0.0,-0.2625,-0.0,-0.0,0.0169,0.2269,0.6257,0.6479,0.6555,0.6491,0.6491,0.6427,0.6302,0.6288,0.6281,0.6281,0.0,0.0,0.0,0.9296,1.0421,1.215,1.2224,1.2305,1.2305,1.2331,1.2345,1.2385,1.2685,1.2882,1.2919,1.3467,1.3841,1.4088,1.4088,1.4817,1.5861,1.6846,1.7172,1.7658,1.9913,1.9678,1.9116,2.0323,2.0566,2.0566,2.0566,2.0566,2.0566,2.0566,2.0566,2.0566,2.0566,2.0566,2.0566,2.0566,2.0566,2.0566,2.0566,2.0566,2.0566,2.0566,2.0566,2.0566,2.0566,2.0566,2.0566,2.0566,2.0566,2.0566,2.0566,2.0566,2.1001,2.1886,2.1952,2.2925,2.4707,2.4791,2.537,2.6383,2.6383,2.6383,-1.3171,-1.2739,-1.2305,-1.2305,-1.2305,-1.2305,-1.2305,0.0,-1.2305,-1.2305,-1.2305,-1.2305,-1.2305,-1.1168,-0.997,-0.9372,-0.8084,-0.7022,-0.6416,0.0,0.0,0.0,0.0,0.0,0.0,0.0,0.0,0.0,0.0,0.0,0.0,-0.2574,-0.0,-0.0,-0.0,0.1396,0.4358,0.5761,0.6417,0.6346,0.6346,0.6315,0.6338,0.6338,0.6338,0.6338,0.0,0.0,0.0,0.9296,1.0496,1.2305,1.2305,1.2305,1.2305,1.2305,1.2305,1.2318,1.2438,1.2592,1.2862,1.3026,1.3313,1.3627,1.3981,1.5311,1.6764,1.7172,1.7827,1.863,2.0235,2.0245,2.0079,2.0489,2.0566,2.0566,2.0566,2.0566,2.0566,2.0566,2.0566,2.0566,2.0566,2.0566,2.0566,2.0566,2.0566,2.0566,2.0566,2.0566,2.0566,2.0566,2.0566,2.0566,2.0566,2.0566,2.0566,2.0566,2.0566,2.0566,2.0566,2.0566,2.0789,2.1155,2.2339,2.3294,2.4108,2.5288,2.6094,2.6533,2.6533,2.6533,-1.3673,-1.3025,-1.2305,-1.2305,-1.2305,-1.2305,0.0,0.0,-1.2305,-1.2305,-1.2305,-1.2305,-1.2305,-1.1242,-1.0115,-0.9448,-0.8237,-0.7099,-0.6412,-0.6268,0.0,0.0,0.0,0.0,0.0,0.0,0.0,0.0,0.0,0.0,0.0,-0.1785,-0.0,-0.0,-0.0,0.0963,0.3044,0.5216,0.6278,0.6338,0.6338,0.6338,0.6338,0.6338,0.6338,0.0,0.0,0.0,0.0,0.9296,1.0496,1.2305,1.2305,1.2305,1.2305,1.2305,1.2305,1.2305,1.2305,1.2438,1.2701,1.2795,1.3124,1.3553,1.3756,1.5413,1.7194,1.7309,1.839,1.9678,2.0401,2.0566,2.0566,2.0566,2.0566,2.0566,2.0566,2.0566,2.0566,2.0566,2.0566,2.0566,2.0566,2.0566,2.0566,2.0566,2.0566,2.0566,2.0566,2.0566,2.0566,2.0566,2.0566,2.0566,2.0566,2.0566,2.0566,2.0566,2.0566,2.0566,2.0566,2.0566,2.0712,2.1011,2.2339,2.3368,2.3963,2.5358,2.6233,2.6533,2.6533,2.6533,-1.3673,-1.3025,-1.2305,-1.2305,-1.2305,-1.2305,0.0,-1.2305,-1.2305,-1.2305,-1.2305,-1.2305,-1.2305,-1.0651,-0.9301,-0.9296,-0.7629,-0.6338,-0.6338,-0.6338,0.0,0.0,0.0,0.0,0.0,0.0,0.0,0.0,0.0,0.0,0.0,0.0,-0.0,-0.0,-0.0,0.1019,0.3047,0.5254,0.6285,0.6338,0.6338,0.6338,0.6338,0.6338,0.0,0.0,0.0,0.0,0.0,0.9296,1.0496,1.2305,1.2305,1.2305,1.2305,1.2305,1.2305,1.2305,1.2305,1.2305,1.2351,1.2728,1.3424,1.4087,1.3434,1.4963,1.6934,1.7235,1.8868,2.0566,2.0566,2.0566,2.0566,2.0566,2.0566,2.0566,2.0566,2.0566,2.0566,2.0566,2.0566,2.0566,2.0566,2.0566,2.0566,2.0566,2.0566,2.0566,2.0566,2.0566,2.0566,2.0566,2.0566,2.0566,2.0566,2.0566,2.0566,2.0566,2.0566,2.0566,2.0566,2.0566,2.1011,2.1952,2.2038,2.2999,2.5004,2.5016,2.5511,2.6533,2.6533,2.6533,-1.5649,-1.5013,-1.4091,-1.3455,-1.3237,-1.3098,-1.2445,-1.2305,-1.2305,-1.2305,-1.2305,-1.2077,-1.1391,-1.0196,-0.9069,-0.8389,-0.7176,-0.6264,0.0,0.0,0.0,0.0,0.0,0.0,0.0,0.0,0.0,0.0,0.0,0.0,0.0,0.0,-0.0,-0.0,-0.0,0.1019,0.3046,0.5254,0.6285,0.6338,0.6338,0.6338,0.6338,0.6338,0.0,0.0,0.0,0.0,0.0,0.9296,1.0496,1.2305,1.2305,1.2305,1.2305,1.2305,1.2305,1.2305,1.2305,1.2305,1.2318,1.2412,1.2662,1.2865,1.2952,1.5235,1.8124,1.9233,2.0079,2.0566,2.0566,2.0566,2.0566,2.0566,2.0566,2.0566,2.0566,2.0566,2.0566,2.0566,2.0566,2.0566,2.0566,2.0566,2.0566,2.0566,2.0566,2.0566,2.0566,2.0566,2.0566,2.0566,2.0566,2.0566,2.0566,2.0566,2.0566,2.0566,2.0566,2.0566,2.0566,2.0566,2.0712,2.1011,2.1659,2.2328,2.2925,2.4337,2.5511,2.6533,2.6533,2.6533,-1.6706,-1.593,-1.495,-1.3954,-1.3673,0.0,0.0,-1.2305,-1.2305,-1.2305,-1.2305,-1.1996,-1.1013,-0.9965,-0.8998,-0.7936,-0.6953,0.0,0.0,0.0,0.0,0.0,0.0,0.0,0.0,0.0,0.0,0.0,0.0,0.0,0.0,0.0,-0.0,-0.0,-0.0,0.0627,0.1954,0.4862,0.6288,0.6268,0.6264,0.6338,0.6338,0.0,0.0,0.0,0.0,0.0,0.0,0.9296,1.0496,1.2305,1.2305,1.2305,1.2305,1.2305,1.2305,1.2378,1.2739,1.2592,1.2445,1.3164,1.3164,1.3075,1.4564,1.6279,1.8166,1.9841,2.0439,2.0566,2.0566,2.0566,2.0566,2.0566,2.0566,2.0566,2.0566,2.0566,2.0566,2.0566,2.0566,2.0566,2.0566,2.0566,2.0566,2.0566,2.0566,2.0566,2.0566,2.0566,2.0566,2.0566,2.0566,2.0566,2.0566,2.0566,2.0566,2.0566,2.0566,2.0566,2.0566,2.0566,2.0566,2.0566,2.1155,2.1669,2.2027,2.4036,2.5511,2.6533,2.6533,2.6533,0.0,-1.6009,-1.5163,-1.4099,-1.3818,-1.3528,-1.2519,-1.2305,0.0,-1.2305,-1.2224,-1.1922,-1.0864,-0.9895,-0.8922,-0.7859,-0.6883,0.0,0.0,0.0,0.0,0.0,0.0,0.0,0.0,0.0,0.0,0.0,0.0,0.0,0.0,0.0,0.0,-0.0,-0.0,-0.0,-0.0,0.3919,0.597,0.6278,0.6268,0.6338,0.6338,0.0,0.0,0.0,0.0,0.0,0.0,0.9296,1.0496,1.2305,1.2305,1.2305,1.2305,1.2305,1.2305,1.2445,1.3382,1.3098,1.2586,1.445,1.4522,1.4369,1.7524,1.7723,1.7252,1.9345,2.0205,2.0527,2.0557,2.0566,2.0566,2.0566,2.0566,2.0566,2.0566,2.0566,2.0566,2.0566,2.0566,2.0566,2.0566,2.0566,2.0566,2.0566,2.0566,2.0566,2.0566,2.0566,2.0566,2.0566,2.0566,2.0566,2.0566,2.0566,2.0566,2.0566,2.0566,2.0566,2.0566,2.0566,2.0566,2.0566,2.0566,2.1078,2.2027,2.3963,2.537,2.6314,2.6383,2.6383,-1.6853,0.0,-1.6941,-1.5234,-1.4879,-1.4378,0.0,-1.2305,-1.2305,-1.2305,-1.1694,-1.0864,-0.982,-0.9018,-0.8119,-0.6887,0.0,0.0,0.0,0.0,0.0,0.0,0.0,0.0,0.0,0.0,0.0,0.0,0.0,0.0,0.0,0.0,0.0,-0.0,-0.0,-0.0,-0.0,0.1017,0.3129,0.6278,0.6274,0.6271,0.6338,0.0,0.0,0.0,0.0,0.0,0.9296,0.9296,1.0496,1.2305,1.2305,1.2305,1.2305,1.2305,1.2305,1.2445,1.3382,1.3098,1.2519,1.3665,1.4386,1.5108,1.6632,1.6624,1.6587,1.9183,1.999,2.0146,2.0478,2.0566,2.0566,2.0566,2.0566,2.0566,2.0566,2.0566,2.0566,2.0566,2.0566,2.0566,2.0566,2.0566,2.0566,2.0566,2.0566,2.0566,2.0566,2.0566,2.0566,2.0566,2.0566,2.0566,2.0566,2.0566,2.0566,2.0566,2.0566,2.0566,2.0566,2.0566,2.0566,2.0566,2.0566,2.1078,2.2027,2.322,2.3963,2.4253,2.4992,2.537,-1.6853,-1.6991,-1.6932,-1.5021,-1.4522,-1.4091,-1.2659,-1.2305,-1.215,-1.1694,-1.1162,-1.0421,-0.9089,0.0,0.0,0.0,0.0,0.0,0.0,0.0,0.0,0.0,0.0,0.0,0.0,0.0,0.0,0.0,0.0,0.0,0.0,0.0,0.0,0.0,-0.0,-0.0,-0.0,-0.0,0.1641,0.4851,0.5802,0.6271,0.6338,0.0,0.0,0.0,0.0,0.0,0.9296,0.9296,1.0196,1.1694,1.215,1.2305,1.2305,1.2305,1.2305,1.2519,1.3882,1.4593,1.4871,1.4522,1.5021,1.6026,1.695,1.6729,1.658,1.8686,1.9609,1.9971,2.0205,2.042,2.0566,2.0566,2.0566,2.0566,2.0566,2.0566,2.0566,2.0566,2.0566,2.0566,2.0566,2.0566,2.0566,2.0566,2.0566,2.0566,2.0566,2.0566,2.0566,2.0566,2.0566,2.0566,2.0566,2.0566,2.0566,2.0566,2.0566,2.0566,2.0566,2.0566,2.0566,2.0566,2.0566,2.1308,2.2702,2.322,2.3745,2.4192,2.4719,2.4779,-1.6715,-1.6271,-1.5773,-1.4091,-1.3673,-1.3382,-1.2291,-1.207,-1.1774,-1.0789,-1.0484,-0.99,-0.8584,-0.7662,0.0,0.0,0.0,0.0,0.0,0.0,0.0,0.0,0.0,0.0,0.0,0.0,0.0,0.0,0.0,0.0,0.0,0.0,0.0,0.0,-0.0,-0.0,-0.0,-0.0,0.1017,0.3124,0.5249,0.6274,0.6338,0.6338,0.0,0.0,0.0,0.0,0.9518,0.9518,1.0115,1.1087,1.1996,1.2305,1.2305,1.2305,1.2305,1.2592,1.4378,1.6298,1.7725,1.6009,1.6018,1.6959,1.7725,1.7432,1.7065,1.8218,1.9111,1.9736,1.9805,2.0137,2.0469,2.0469,2.0518,2.0566,2.0566,2.0566,2.0566,2.0566,2.0566,2.0566,2.0566,2.0566,2.0566,2.0566,2.0566,2.0566,2.0566,2.0566,2.0566,2.0566,2.0566,2.0566,2.0566,2.0566,2.0566,2.0566,2.0566,2.0566,2.0566,2.0566,2.0566,2.0566,2.0712,2.1527,2.3073,2.3368,2.3891,2.4564,2.4564,2.4264,-1.5877,-1.4751,-1.4007,-1.3723,-1.3673,-1.3222,-1.1459,-1.1013,-1.0714,-0.9744,-0.8841,-0.8246,-0.8282,-0.5868,-0.427,0.0,0.0,0.0,0.0,0.0,0.0,0.0,0.0,0.0,0.0,0.0,0.0,0.0,0.0,0.0,0.0,0.0,0.0,0.0,0.0,-0.0,-0.0,-0.0,0.1018,0.3124,0.5254,0.6281,0.6338,0.6338,0.6872,0.0,0.0,0.8685,1.0565,1.0565,1.1168,1.2077,1.2224,1.2305,1.2305,1.2305,1.2305,1.2445,1.3528,1.5728,1.7794,1.6715,1.7001,1.7794,1.794,1.7862,1.7803,1.8018,1.8457,1.8916,1.9287,1.9697,2.0019,2.0019,2.0303,2.0566,2.0566,2.0566,2.0566,2.0566,2.0566,2.0566,2.0566,2.0566,2.0566,2.0566,2.0566,2.0566,2.0566,2.0566,2.0566,2.0566,2.0566,2.0566,2.0566,2.0566,2.0566,2.0566,2.0566,2.0566,2.0566,2.0566,2.0566,2.0566,2.1375,2.1517,2.1088,2.2713,2.3147,2.2478,2.2478,2.3294,-1.5587,-1.4426,-1.3404,-1.2405,-1.1749,-1.1075,-1.019,-0.9965,-0.9669,-0.8689,-0.8258,-0.793,0.0,0.0,0.0,0.0,0.0,0.0,0.0,0.0,0.0,0.0,0.0,0.0,0.0,0.0,0.0,0.0,0.0,0.0,0.0,0.0,0.0,0.0,0.0,0.0,-0.0,-0.0,0.047,0.1485,0.4704,0.6288,0.6271,0.6264,0.6872,0.7783,0.0,0.8613,1.0045,1.0559,1.1087,1.1539,1.2077,1.2305,1.2305,1.2305,1.2945,1.3882,1.3745,1.5587,1.7872,1.6922,1.7217,1.8008,1.8008,1.8008,1.8008,1.8008,1.8311,1.8682,1.8887,1.9258,1.9639,1.9863,2.0068,2.0273,2.0518,2.0566,2.0566,2.0566,2.0566,2.0566,2.0566,2.0566,2.0566,2.0566,2.0566,2.0566,2.0566,2.0566,2.0566,2.0566,2.0566,2.0566,2.0566,2.0566,2.0566,2.0566,2.0566,2.0566,2.0566,2.0566,2.0566,2.0566,2.1011,2.1527,2.2199,2.3073,2.3514,2.3599,2.3599,2.3514,-1.5163,-1.4083,-1.2851,-1.0932,-1.004,-0.9518,-0.9069,-0.8917,-0.8694,-0.7629,-0.7684,-0.7371,0.0,0.0,0.0,0.0,0.0,0.0,0.0,0.0,0.0,0.0,0.0,0.0,0.0,0.0,0.0,0.0,0.0,0.0,0.0,0.0,0.0,0.0,0.0,0.0,-0.0,-0.0,-0.0,0.0078,0.3759,0.5808,0.6278,0.6268,0.6872,0.7783,0.8084,0.8689,0.9744,1.0714,1.1162,1.1242,1.1996,1.2305,1.2305,1.2305,1.352,1.5092,1.4314,1.5799,1.7862,1.7139,1.7432,1.8008,1.8008,1.8008,1.8008,1.8008,1.8242,1.8486,1.8486,1.8809,1.9209,1.9541,1.9766,2.0,2.0342,2.0498,2.0566,2.0566,2.0566,2.0566,2.0566,2.0566,2.0566,2.0566,2.0566,2.0566,2.0566,2.0566,2.0566,2.0566,2.0566,2.0566,2.0566,2.0566,2.0566,2.0566,2.0566,2.0566,2.0566,2.0566,2.0566,2.0566,2.0789,2.1527,2.2861,2.3294,2.3745,2.4264,2.4264,2.3588,-1.4307,-1.3055,-1.1864,-0.989,-1.0045,-1.0185,-0.8309,-0.7936,-0.7633,-0.6644,-0.6433,-0.5771,0.0,0.0,0.0,0.0,0.0,0.0,0.0,0.0,0.0,0.0,0.0,0.0,0.0,0.0,0.0,0.0,0.0,0.0,0.0,0.0,0.0,0.0,0.0,0.0,-0.0,-0.0,-0.0,-0.0,0.2266,0.4377,0.6278,0.6268,0.6872,0.7859,0.877,0.9744,1.0783,1.1768,1.2224,1.2224,1.2305,1.2305,1.2305,1.2305,1.352,1.5163,1.5092,1.6376,1.8008,1.794,1.794,1.8008,1.8008,1.8008,1.8008,1.8008,1.8037,1.8057,1.8057,1.8369,1.8691,1.8721,1.9336,1.9922,1.9951,2.0283,2.0566,2.0566,2.0566,2.0566,2.0566,2.0566,2.0566,2.0566,2.0566,2.0566,2.0566,2.0566,2.0566,2.0566,2.0566,2.0566,2.0566,2.0566,2.0566,2.0566,2.0566,2.0566,2.0566,2.0566,2.0566,2.0566,2.1451,2.1517,2.0789,2.2638,2.3073,2.2253,2.2253,2.2627,-1.3882,-1.2551,-1.0995,-0.9669,-0.914,-0.8609,-0.7173,-0.6876,-0.6758,-0.639,-0.6271,0.0,0.0,0.0,0.0,0.0,0.0,0.0,0.0,0.0,0.0,0.0,0.0,0.0,0.0,0.0,0.0,0.0,0.0,0.0,0.0,0.0,0.0,0.0,0.0,0.0,0.0,-0.0,0.1335,0.3932,0.3365,0.4224,0.6288,0.6271,0.649,0.6945,0.8618,0.9523,0.997,1.1626,1.2305,1.2305,1.2305,1.2305,1.2305,1.2305,1.352,1.5234,1.5234,1.6446,1.8008,1.8008,1.8008,1.8008,1.8008,1.8008,1.8008,1.8008,1.8008,1.8008,1.8008,1.8125,1.8311,1.8574,1.8887,1.9199,1.9463,1.9863,2.0156,2.0156,2.0381,2.0566,2.0566,2.0566,2.0566,2.0566,2.0566,2.0566,2.0566,2.0566,2.0566,2.0566,2.0566,2.0566,2.0566,2.0566,2.0566,2.0566,2.0566,2.0566,2.0566,2.0566,2.0566,2.0566,2.0934,2.1221,2.1441,2.2178,2.2702,2.2925,2.2925,2.2776,-1.2851,-1.1601,-1.0115,-0.9069,-0.8313,-0.7557,-0.6497,-0.6274,-0.6146,-0.5439,-0.5791,-0.5046,-0.0749,0.0,0.0,0.0,0.0,0.0,0.0,0.0,0.0,0.0,0.0,0.0,0.0,0.0,0.0,0.0,0.0,0.0,0.0,0.0,0.0,0.0,0.0,0.0,0.0,-0.0,0.2121,0.625,0.4675,0.4727,0.6217,0.62,0.6166,0.6266,0.79,0.8862,0.9232,1.0925,1.186,1.2178,1.2265,1.2305,1.2305,1.2305,1.352,1.5234,1.5234,1.6446,1.8008,1.8008,1.8008,1.8008,1.8008,1.8008,1.8008,1.8008,1.8008,1.8008,1.8008,1.8008,1.8086,1.8369,1.8545,1.8721,1.9014,1.9414,1.9756,1.9883,2.0156,2.041,2.0537,2.0566,2.0566,2.0566,2.0566,2.0566,2.0566,2.0566,2.0566,2.0566,2.0566,2.0566,2.0566,2.0566,2.0566,2.0566,2.0566,2.0566,2.0566,2.0566,2.0566,2.0566,2.0566,2.0934,2.1593,2.1886,2.2178,2.2563,2.2925,2.2478,-1.1075,-1.0045,-0.9069,-0.8084,-0.7783,-0.7557,-0.6507,-0.6278,-0.5643,-0.3517,-0.4728,-0.4941,-0.0735,0.0,0.0,0.0,0.0,0.0,0.0,0.0,0.0,0.0,0.0,0.0,0.0,0.0,0.0,0.0,0.0,0.0,0.0,0.0,0.0,0.0,0.0,0.0,0.0,0.0079,0.2121,0.6247,0.5927,0.5839,0.5972,0.5969,0.5956,0.5871,0.6857,0.7774,0.8694,0.9684,1.0822,1.1897,1.2184,1.2298,1.2305,1.2305,1.352,1.5234,1.5234,1.6446,1.8008,1.8008,1.8008,1.8008,1.8008,1.8008,1.8008,1.8008,1.8008,1.8008,1.8008,1.8008,1.8008,1.8008,1.833,1.8562,1.8562,1.8975,1.9404,1.9824,1.9902,2.0049,2.0478,2.0557,2.0557,2.0566,2.0566,2.0566,2.0566,2.0566,2.0566,2.0566,2.0566,2.0566,2.0566,2.0566,2.0566,2.0566,2.0566,2.0566,2.0566,2.0566,2.0566,2.0566,2.0566,2.0566,2.0566,2.1517,2.1517,2.0644,2.1517,2.1517,-1.0858,-0.9513,-0.8241,-0.8192,0.0,-0.6662,-0.6386,-0.5167,-0.3447,-0.1365,-0.1401,-0.1511,-0.025,0.0,0.0,0.0,0.0,0.0,0.0,0.0,0.0,0.0,0.0,0.0,0.0,0.0,0.0,0.0,0.0,0.0,0.0,0.0,0.0,0.0,0.0,0.0,0.0,0.0,0.4325,0.4073,0.5217,0.5839,0.5969,0.5928,0.5847,0.5871,0.7495,0.8343,0.8694,1.0378,1.1388,1.1877,1.1964,1.2124,1.2305,1.2305,1.352,1.5234,1.5234,1.6446,1.8008,1.8008,1.8008,1.8008,1.8008,1.8008,1.8008,1.8008,1.8008,1.8008,1.8008,1.8008,1.8008,1.8008,1.8105,1.8193,1.8193,1.8535,1.8867,1.8994,1.9258,1.9609,2.0029,2.0107,2.0215,2.0518,2.0566,2.0566,2.0566,2.0566,2.0566,2.0566,2.0566,2.0566,2.0566,2.0566,2.0566,2.0566,2.0566,2.0566,2.0566,2.0566,2.0566,2.0566,2.0566,2.0566,2.0566,2.0857,2.0857,2.0644,2.0867,2.1231,-0.9739,-0.8456,-0.7257,-0.7431,-0.6898,-0.6302,-0.6317,0.0,0.0,0.0,-0.0,-0.0,0.0,0.0,0.0,0.0,0.0,0.0,0.0,0.0,0.0,0.0,0.0,0.0,0.0,0.0,0.0,0.0,0.0,0.0,0.0,0.0,0.0,0.0,0.0,0.0,0.0,0.0,0.0,0.4377,0.5309,0.5821,0.5942,0.5718,0.5617,0.5766,0.7541,0.8565,0.8988,1.059,1.1363,1.153,1.165,1.2084,1.2625,1.227,1.369,1.572,1.5305,1.6446,1.8008,1.8008,1.8008,1.8008,1.8008,1.8008,1.8008,1.8008,1.8008,1.8008,1.8008,1.8008,1.8008,1.8008,1.8008,1.8008,1.8008,1.8213,1.8437,1.8603,1.8848,1.917,1.959,1.9805,2.0,2.0273,2.0449,2.0566,2.0566,2.0566,2.0566,2.0566,2.0566,2.0566,2.0566,2.0566,2.0566,2.0566,2.0566,2.0566,2.0566,2.0566,2.0566,2.0566,2.0566,2.0566,2.0566,2.0566,2.0566,2.0566,2.0566,2.0934,-0.8089,-0.7103,-0.6268,-0.6281,-0.6285,0.0,-0.6334,-0.3034,-0.0,-0.0,0.0,0.0,0.0,0.0,0.0,0.0,0.0,0.0,0.0,0.0,0.0,0.0,0.0,0.0,0.0,0.0,0.0,0.0,0.0,0.0,0.0,0.0,0.0,0.0,0.0,0.0,0.0,0.0,0.0,0.0,0.5899,0.5748,0.5796,0.5507,0.5498,0.5752,0.7312,0.8549,0.9484,1.0516,1.0969,1.1015,1.1283,1.2109,1.3152,1.2212,1.3847,1.6374,1.55,1.6446,1.8008,1.8008,1.8008,1.8008,1.8008,1.8008,1.8008,1.8008,1.8008,1.8008,1.8008,1.8008,1.8008,1.8008,1.8008,1.8008,1.8008,1.8008,1.8125,1.8506,1.8584,1.8711,1.915,1.9551,1.9824,1.9902,2.0254,2.0518,2.0557,2.0566,2.0566,2.0566,2.0566,2.0566,2.0566,2.0566,2.0566,2.0566,2.0566,2.0566,2.0566,2.0566,2.0566,2.0566,2.0566,2.0566,2.0566,2.0566,2.0566,2.0566,2.0566,2.0644,-0.8277,-0.7285,0.0,-0.6315,-0.6325,-0.6264,-0.6304,-0.3002,-0.0,-0.0,0.0,0.0,0.0,0.0,0.0,0.0,0.0,0.0,0.0,0.0,0.0,0.0,0.0,0.0,0.0,0.0,0.0,0.0,0.0,0.0,0.0,0.0,0.0,0.0,0.0,0.0,0.6302,0.5808,0.5879,0.0,0.5959,0.5806,0.5793,0.5532,0.6113,0.7442,0.7832,0.8871,1.0371,1.0564,1.0788,1.1002,1.1062,1.1801,1.2787,1.2136,1.3693,1.6008,1.5415,1.6446,1.8008,1.8008,1.8008,1.8008,1.8008,1.8008,1.8008,1.8008,1.8008,1.8008,1.8008,1.8008,1.8008,1.8008,1.8008,1.8008,1.8008,1.8008,1.8037,1.8125,1.8144,1.8281,1.8701,1.8848,1.9141,1.9814,1.999,2.0176,2.0518,2.0566,2.0566,2.0566,2.0566,2.0566,2.0566,2.0566,2.0566,2.0566,2.0566,2.0566,2.0566,2.0566,2.0566,2.0566,2.0566,2.0566,2.0566,2.0566,2.0566,2.0566,2.0566,2.1011,-0.7435,-0.6824,0.0,-0.6322,0.0,-0.3308,-0.3308,-0.1585,-0.0,0.0,0.0,0.0,0.0,0.0,0.0,0.0,0.0,0.0,0.0,0.0,0.0,0.0,0.0,0.0,0.0,0.0,0.0,0.0,0.0,0.0,0.0,0.0,0.0,0.0,0.0,0.0,0.6288,0.6278,0.6271,0.6264,0.5952,0.5728,0.5586,0.5433,0.6338,0.8027,0.8027,0.9,1.0624,1.0624,1.0648,1.0788,1.0788,1.1732,1.301,1.2318,1.3977,1.6494,1.5797,1.6629,1.8008,1.8008,1.8008,1.8008,1.8008,1.8008,1.8008,1.8008,1.8008,1.8008,1.8008,1.8008,1.8008,1.8008,1.8008,1.8008,1.8008,1.8008,1.8008,1.8008,1.8008,1.8076,1.8301,1.8506,1.8857,1.9512,1.9785,2.0,2.0225,2.0439,2.0566,2.0566,2.0566,2.0566,2.0566,2.0566,2.0566,2.0566,2.0566,2.0566,2.0566,2.0566,2.0566,2.0566,2.0566,2.0566,2.0566,2.0566,2.0566,2.0566,2.0566,2.0857,-0.6504,-0.5802,-0.5176,-0.5202,-0.2594,0.0,-0.0,-0.0,-0.0,0.0,0.0,0.0,0.0,0.0,0.0,0.0,0.0,0.0,0.0,0.0,0.0,0.0,0.0,0.0,0.0,0.0,0.0,0.0,0.0,0.0,0.0,0.0,0.0,0.0,0.0,0.6278,0.6274,0.6268,0.6338,0.6335,0.5949,0.5647,0.5428,0.5428,0.6338,0.8027,0.8027,0.9,1.0624,1.0624,1.0624,1.0624,1.0624,1.1762,1.3383,1.2549,1.4233,1.6898,1.6136,1.668,1.7697,1.792,1.8008,1.8008,1.8008,1.8008,1.8008,1.8008,1.8008,1.8008,1.8008,1.8008,1.8008,1.8008,1.8008,1.8008,1.8008,1.8008,1.8008,1.8008,1.8008,1.8008,1.8008,1.8301,1.8672,1.9111,1.9473,1.9746,1.9893,2.0225,2.0478,2.0557,2.0566,2.0566,2.0566,2.0566,2.0566,2.0566,2.0566,2.0566,2.0566,2.0566,2.0566,2.0566,2.0566,2.0566,2.0566,2.0566,2.0566,2.0566,2.0566,2.0566,-0.6355,0.0,-0.0861,0.0,-0.0393,-0.0,0.0,0.0,0.0,0.0,0.0,0.0,0.0,0.0,0.0,0.0,0.0,0.0,0.0,0.0,0.0,0.0,0.0,0.0,0.0,0.0,0.0,0.0,0.0,0.0,0.0,0.0,0.6193,0.5867,0.6112,0.0,0.6264,0.6338,0.6338,0.6335,0.5949,0.5647,0.5428,0.5428,0.6338,0.8027,0.8027,0.9,1.0624,1.0624,1.0624,1.0624,1.0624,1.163,1.2993,1.2409,1.3459,1.5322,1.5737,1.6066,1.652,1.7668,1.8008,1.8008,1.8008,1.8008,1.8008,1.8008,1.8008,1.8008,1.8008,1.8008,1.8008,1.8008,1.8008,1.8008,1.8008,1.8008,1.8008,1.8008,1.8008,1.8008,1.8008,1.8057,1.8242,1.8662,1.8769,1.9082,1.9824,1.9961,2.0146,2.0527,2.0566,2.0566,2.0566,2.0566,2.0566,2.0566,2.0566,2.0566,2.0566,2.0566,2.0566,2.0566,2.0566,2.0566,2.0566,2.0566,2.0566,2.0566,2.0566,2.0566,-0.6285,-0.3209,-0.0,0.0,-0.0,-0.0,-0.0,0.0,0.0,0.0,0.0,0.0,0.0,0.0,0.0,0.0,0.0,0.0,0.0,0.0,0.0,0.0,0.0,0.0,0.0,0.0,0.0,0.0,0.0,0.0,0.0,0.6268,0.6268,0.6338,0.6268,0.0,0.6338,0.6338,0.6217,0.6129,0.5908,0.5691,0.5488,0.5466,0.6338,0.8027,0.8027,0.9,1.0624,1.0624,1.0624,1.0624,1.0624,1.1296,1.2343,1.2554,1.3301,1.4379,1.5854,1.6262,1.6312,1.7581,1.8008,1.8008,1.8008,1.8008,1.8008,1.8008,1.8008,1.8008,1.8008,1.8008,1.8008,1.8008,1.8008,1.8008,1.8008,1.8008,1.8008,1.8008,1.8008,1.8008,1.8008,1.8008,1.8076,1.8252,1.8486,1.8769,1.915,1.9414,1.9727,2.0156,2.0195,2.0303,2.0547,2.0566,2.0566,2.0566,2.0566,2.0566,2.0566,2.0566,2.0566,2.0566,2.0566,2.0566,2.0566,2.0566,2.0566,2.0566,2.0566,2.0857,0.0,0.0,-0.0626,-0.0157,-0.0,-0.0,0.0,0.0,0.0,0.0,0.0,0.0,0.0,0.0,0.0,0.0,0.0,0.0,0.0,0.0,0.0,0.0,0.0,0.0,0.0,0.0,0.0,0.0,0.0,0.0,0.6338,0.6338,0.6338,0.6338,0.6338,0.6338,0.6338,0.6338,0.6183,0.6027,0.5874,0.5728,0.5586,0.5433,0.6338,0.8027,0.8027,0.8871,1.0301,1.0498,1.0624,1.0624,1.0624,1.1108,1.1896,1.2696,1.3174,1.3706,1.5575,1.6038,1.6019,1.7168,1.7697,1.7871,1.7978,1.8008,1.8008,1.8008,1.8008,1.8008,1.8008,1.8008,1.8008,1.8008,1.8008,1.8008,1.8008,1.8008,1.8008,1.8008,1.8008,1.8008,1.8008,1.8008,1.8008,1.8008,1.8281,1.8446,1.8623,1.8926,1.9287,1.9707,1.9756,1.9932,2.0361,2.04,2.0449,2.0557,2.0566,2.0566,2.0566,2.0566,2.0566,2.0566,2.0566,2.0566,2.0566,2.0566,2.0566,2.0644,2.0867,2.1298,0.0,-0.4623,0.0,-0.0471,-0.0,0.0,0.0,0.0,0.0,0.0,0.0,0.0,0.0,0.0,0.0,0.0,0.0,0.0,0.0,0.0,0.0,0.0,0.0,0.0,0.0,0.0,0.0,0.0,0.0,0.0,0.6338,0.6338,0.6338,0.6338,0.6338,0.6338,0.6338,0.6338,0.6183,0.6027,0.5874,0.5728,0.5586,0.5433,0.6338,0.8027,0.8027,0.8549,0.9402,1.0238,1.0624,1.0624,1.0624,1.1108,1.1896,1.2696,1.3017,1.3205,1.4515,1.4978,1.5123,1.5953,1.6769,1.749,1.7891,1.8008,1.8008,1.8008,1.8008,1.8008,1.8008,1.8008,1.8008,1.8008,1.8008,1.8008,1.8008,1.8008,1.8008,1.8008,1.8008,1.8008,1.8008,1.8008,1.8008,1.8008,1.8027,1.8184,1.8584,1.8652,1.8838,1.9277,1.9316,1.9492,1.9912,1.9951,2.0127,2.0537,2.0566,2.0566,2.0566,2.0566,2.0566,2.0566,2.0566,2.0566,2.0566,2.0566,2.0566,2.0644,2.1517,2.1952,0.0,0.0,0.0,-0.0863,-0.0,-0.0,0.0,0.0,0.0,0.0,0.0,0.0,0.0,0.0,0.0,0.0,0.0,0.0,0.0,0.0,0.0,0.0,0.0,0.0,0.0,0.0,0.0,0.0,0.0,0.0,0.6338,0.6338,0.6338,0.6338,0.6338,0.6338,0.6338,0.6338,0.6234,0.6176,0.602,0.5871,0.5722,0.5576,0.5854,0.6404,0.7507,0.8807,1.0174,1.0498,1.0624,1.0624,1.0624,1.0807,1.1108,1.1958,1.2205,1.2498,1.4294,1.487,1.5086,1.6166,1.6869,1.7412,1.7559,1.7793,1.8008,1.8008,1.8008,1.8008,1.8008,1.8008,1.8008,1.8008,1.8008,1.8008,1.8008,1.8008,1.8008,1.8008,1.8008,1.8008,1.8008,1.8008,1.8008,1.8008,1.8008,1.8066,1.8213,1.8232,1.8398,1.8828,1.8867,1.9043,1.9473,1.9512,1.9697,2.0117,2.0146,2.0273,2.0557,2.0566,2.0566,2.0566,2.0566,2.0566,2.0566,2.0566,2.0566,2.0644,2.1593,2.2328,-0.6081,0.0,0.0,0.0,0.0,0.0236,0.0,0.0,0.0,0.0,0.0,0.0,0.0,0.0,0.0,0.0,0.0,0.0,0.0,0.0,0.0,0.0,0.0,0.0,0.0,0.0,0.0,0.0,0.0,0.0,0.6338,0.6338,0.6338,0.6338,0.6338,0.6338,0.6338,0.6338,0.6338,0.6335,0.6105,0.5976,0.5871,0.5677,0.5737,0.5963,0.7077,0.8415,0.9779,1.0364,1.0624,1.0624,1.0624,1.0624,1.0681,1.1531,1.1958,1.2421,1.3768,1.461,1.5111,1.5529,1.6246,1.6928,1.6938,1.7359,1.7832,1.7969,1.8008,1.8008,1.8008,1.8008,1.8008,1.8008,1.8008,1.8008,1.8008,1.8008,1.8008,1.8008,1.8008,1.8008,1.8008,1.8008,1.8008,1.8008,1.8008,1.8008,1.8008,1.8008,1.8115,1.8398,1.8428,1.8603,1.9033,1.9072,1.9258,1.9678,1.9834,2.0049,2.0332,2.0488,2.0566,2.0566,2.0566,2.0789,2.1078,2.0789,2.0566,2.0644,2.1886,2.3209,0.0,0.0,0.0,0.0,0.0,0.0,0.0,0.0,0.0,0.0,0.0,0.0,0.0,0.0,0.0,0.0,0.0,0.0,0.0,0.0,0.0,0.0,0.0,0.0,0.0,0.0,0.0,0.0,0.0,0.6338,0.6338,0.6338,0.6338,0.6338,0.6338,0.6338,0.6338,0.6338,0.6338,0.6335,0.6108,0.6034,0.602,0.5728,0.6065,0.686,0.6734,0.7177,0.8156,0.9843,1.0561,1.0624,1.0624,1.0624,1.0681,1.1469,1.2266,1.2948,1.3009,1.4025,1.5176,1.4029,1.479,1.6088,1.6095,1.6722,1.7471,1.7881,1.7998,1.8008,1.8008,1.8008,1.8008,1.8008,1.8008,1.8008,1.8008,1.8008,1.8008,1.8008,1.8008,1.8008,1.8008,1.8008,1.8008,1.8008,1.8008,1.8008,1.8008,1.8008,1.8008,1.8008,1.8008,1.8174,1.8584,1.8553,1.8799,1.9238,1.9668,1.9902,1.9912,2.0332,2.0566,2.0566,2.0566,2.1078,2.2027,2.1078,2.0644,2.0712,2.2638,2.4624,-0.157,0.0,0.0,0.0,0.0,0.0,0.0,0.0,0.0,0.0,0.0,0.0,0.0,0.0,0.0,0.0,0.0,0.0,0.0,0.0,0.0,0.0,0.0,0.0,0.0,0.0,0.0,0.0,0.0,0.6338,0.6338,0.6338,0.6338,0.6338,0.6338,0.6338,0.6338,0.6338,0.6338,0.6261,0.6217,0.6139,0.6023,0.583,0.5825,0.5986,0.6473,0.7177,0.8091,0.9198,1.0047,1.0624,1.0624,1.0624,1.0624,1.087,1.1413,1.2205,1.2818,1.3666,1.4588,1.4818,1.5432,1.6103,1.6081,1.6738,1.7402,1.7529,1.7773,1.8008,1.8008,1.8008,1.8008,1.8008,1.8008,1.8008,1.8008,1.8008,1.8008,1.8008,1.8008,1.8008,1.8008,1.8008,1.8008,1.8008,1.8008,1.8008,1.8008,1.8008,1.8008,1.8008,1.8008,1.8057,1.8174,1.8184,1.8369,1.8789,1.9228,1.96,1.9902,2.0332,2.0566,2.0566,2.0566,2.1078,2.2027,2.1735,2.1962,2.2713,2.3975,2.5288,0.2356,0.3773,0.0,0.0,0.0,0.0,0.0,0.6244,0.0,0.0,0.0,0.0,0.0,0.0,0.0,0.0,0.0,0.0,0.0,0.0,0.0,0.0,0.0,0.0,0.0,0.0,0.0,0.0,0.7249,0.6718,0.6338,0.6338,0.6338,0.6338,0.6338,0.6338,0.6338,0.6338,0.6338,0.6338,0.6338,0.6213,0.6122,0.5966,0.5817,0.5737,0.6455,0.7254,0.8091,0.8941,0.9786,1.0624,1.0624,1.0624,1.0624,1.0624,1.1108,1.1896,1.2704,1.3554,1.4273,1.4756,1.5281,1.576,1.5632,1.6167,1.6904,1.7285,1.7686,1.8008,1.8008,1.8008,1.8008,1.8008,1.8008,1.8008,1.8008,1.8008,1.8008,1.8008,1.8008,1.8008,1.8008,1.8008,1.8008,1.8008,1.8008,1.8008,1.8008,1.8008,1.8008,1.8008,1.8008,1.8008,1.8008,1.8008,1.8184,1.8533,1.9043,1.9473,1.9893,2.0332,2.0566,2.0566,2.0566,2.1308,2.2627,2.2178,2.2702,2.4108,2.4707,2.5511,0.5764,0.4873,0.3906,0.0,0.0,0.0,0.6597,0.7914,0.0,0.0,0.0,0.0,0.0,0.0,0.0,0.0,0.0,0.0,0.0,0.0,0.0,0.0,0.0,0.0,0.0,0.0,0.0,0.8237,0.7931,0.7326,0.6338,0.6338,0.6338,0.6338,0.6338,0.6338,0.6338,0.6338,0.6338,0.6338,0.6338,0.6338,0.6254,0.6101,0.5956,0.5888,0.6479,0.7243,0.8062,0.8823,0.9722,1.0624,1.0624,1.0624,1.0624,1.0624,1.1045,1.1772,1.2573,1.3364,1.4085,1.4145,1.4746,1.5361,1.5065,1.5458,1.6311,1.7139,1.7656,1.7949,1.7998,1.8008,1.8008,1.8008,1.8008,1.8008,1.8008,1.8008,1.8008,1.8008,1.8008,1.8008,1.8008,1.8008,1.8008,1.8008,1.8008,1.8008,1.8008,1.8008,1.8008,1.8008,1.8008,1.8008,1.8008,1.8008,1.8184,1.8533,1.9043,1.9473,1.9893,2.0332,2.0566,2.0566,2.0789,2.1745,2.3514,2.285,2.3441,2.5158,2.5158,2.5664,0.0,0.0,0.0,0.0,0.0,0.0,0.6335,0.7304,0.0,0.0,0.0,0.0,0.0,0.0,0.0,0.0,0.0,0.0,0.0,0.0,0.0,0.0,0.0,0.0,0.0,0.0,1.0415,1.026,0.8685,0.7326,0.6338,0.6338,0.6338,0.6338,0.6338,0.6338,0.6338,0.6338,0.6338,0.6338,0.6338,0.6338,0.6254,0.6101,0.6013,0.5969,0.5913,0.6724,0.8153,0.8234,0.9192,1.0624,1.0624,1.0624,1.0624,1.0624,1.0681,1.0926,1.1779,1.2565,1.3373,1.3974,1.4746,1.5371,1.5332,1.5662,1.6311,1.7139,1.7441,1.7578,1.793,1.8008,1.8008,1.8008,1.8008,1.8008,1.8008,1.8008,1.8008,1.8008,1.8008,1.8008,1.8008,1.8008,1.8008,1.8008,1.8008,1.8008,1.8008,1.8008,1.8008,1.8008,1.8008,1.8008,1.8008,1.8008,1.8184,1.8533,1.9043,1.9473,1.9893,2.0332,2.0566,2.0566,2.2124,2.3147,2.3514,2.4909,2.5791,2.6233,2.6233,2.6314,0.0,0.0,0.0,0.6271,0.0,0.0,0.0,0.806,0.8862,0.0,0.0,0.0,0.0,0.0,0.0,0.0,0.0,0.0,0.0,0.0,0.0,0.0,0.0,0.0,0.0,0.0,1.1093,1.0121,0.8685,0.7326,0.6338,0.6338,0.6338,0.6338,0.6338,0.6338,0.6338,0.6338,0.6338,0.6338,0.6338,0.6338,0.6257,0.6179,0.6101,0.602,0.6299,0.711,0.8223,0.8573,0.9503,1.0624,1.0624,1.0624,1.0624,1.0624,1.0624,1.0744,1.1531,1.2328,1.313,1.3965,1.4746,1.541,1.541,1.5723,1.6213,1.6602,1.7041,1.7432,1.7646,1.7852,1.8008,1.8008,1.8008,1.8008,1.8008,1.8008,1.8008,1.8008,1.8008,1.8008,1.8008,1.8008,1.8008,1.8008,1.8008,1.8008,1.8008,1.8008,1.8008,1.8008,1.8008,1.8008,1.8008,1.8008,1.8281,1.8926,1.917,1.958,2.0215,2.0449,2.0779,2.1298,2.2776,2.3745,2.4264,2.5791,2.6533,2.6533,2.6533,2.6533,0.0,0.0,0.0,0.0,0.0,0.6828,0.0,0.0,0.0,0.9941,0.0,0.0,0.0,0.0,0.0,0.0,0.0,0.0,0.0,0.0,0.0,0.0,0.0,0.0,0.0,0.0,1.1341,0.9744,0.8424,0.7443,0.6641,0.6412,0.6338,0.6338,0.6338,0.6338,0.6338,0.6338,0.6338,0.6338,0.6338,0.6338,0.6338,0.6338,0.6193,0.6071,0.6771,0.7389,0.8074,0.894,0.9718,1.0373,1.0518,1.0624,1.0624,1.0624,1.0624,1.0681,1.1351,1.2081,1.2879,1.3726,1.4628,1.541,1.541,1.5654,1.5957,1.6096,1.6641,1.7275,1.7363,1.7695,1.8008,1.8008,1.8008,1.8008,1.8008,1.8008,1.8008,1.8008,1.8008,1.8008,1.8008,1.8008,1.8008,1.8008,1.8008,1.8008,1.8008,1.8008,1.8008,1.8008,1.8008,1.8008,1.8008,1.8008,1.8379,1.9238,1.9287,1.9668,2.0527,2.0566,2.1001,2.1952,2.2999,2.3963,2.5004,2.6025,2.6533,2.6533,2.6533,2.6533,0.0,0.0,0.0,0.0,0.6945,0.0,0.0,0.0,1.0686,1.0715,0.0,1.2175,1.2019,0.0,0.0,0.0,0.0,0.0,0.0,0.0,0.0,0.0,0.0,0.0,0.0,0.0,0.0,1.0622,0.8728,0.7526,0.7621,0.6795,0.6338,0.6338,0.6338,0.6338,0.6338,0.6338,0.6338,0.6338,0.6338,0.6338,0.6338,0.6338,0.6251,0.6227,0.6163,0.6593,0.7471,0.8112,0.8885,0.9706,1.0328,1.0624,1.0624,1.0624,1.0624,1.0624,1.0681,1.1288,1.2081,1.2879,1.4154,1.541,1.541,1.5449,1.5566,1.5957,1.6426,1.6894,1.7285,1.7695,1.8008,1.8008,1.8008,1.8008,1.8008,1.8008,1.8008,1.8008,1.8008,1.8008,1.8008,1.8008,1.8008,1.8008,1.8008,1.8008,1.8008,1.8008,1.8008,1.8008,1.8008,1.8008,1.8008,1.8008,1.8379,1.9238,1.9287,1.9668,2.0527,2.0566,2.1001,2.1952,2.2999,2.3963,2.5004,2.6025,2.6533,2.6533,2.6533,2.6533,0.0,0.0,0.0,0.0,0.0,0.0,0.0,0.0,1.0938,0.0,0.0,0.0,0.0,0.0,0.0,0.0,0.0,0.0,0.0,0.0,0.0,0.0,0.0,0.0,0.0,0.0,0.0,0.0,0.0,0.7694,0.7778,0.6872,0.6338,0.6338,0.6338,0.6338,0.6338,0.6338,0.6338,0.6338,0.6338,0.6338,0.6338,0.6338,0.6338,0.6257,0.6193,0.6629,0.74,0.8174,0.9013,0.9832,1.0522,1.0708,1.0624,1.0624,1.0624,1.0624,1.0624,1.1108,1.202,1.3304,1.4451,1.541,1.541,1.541,1.5449,1.5635,1.6006,1.6445,1.6894,1.7324,1.7705,1.7949,1.8008,1.8008,1.8008,1.8008,1.8008,1.8008,1.8008,1.8008,1.8008,1.8008,1.8008,1.8008,1.8008,1.8008,1.8008,1.8008,1.8008,1.8008,1.8008,1.8008,1.8008,1.8008,1.8379,1.9238,2.032,2.0772,2.0624,2.1669,2.2489,2.285,2.3891,2.485,2.5873,2.6314,2.6533,2.6533,2.6533,2.6533,0.6373,0.0,0.0,0.0,0.0,0.0,0.0,0.0,0.0,0.0,0.0,0.0,0.0,0.0,1.2305,0.0,0.0,0.0,0.0,0.0,0.0,0.0,0.0,0.0,0.0,0.0,0.0,0.0,0.0,0.0,0.8156,0.7249,0.6567,0.6338,0.6338,0.6338,0.6338,0.6338,0.6338,0.6338,0.6338,0.6338,0.6338,0.6338,0.6338,0.6338,0.6338,0.6721,0.7488,0.8456,0.9278,1.0096,1.0812,1.0935,1.0668,1.0651,1.0624,1.0624,1.0624,1.1296,1.232,1.3485,1.4569,1.541,1.541,1.541,1.541,1.541,1.5723,1.6172,1.6621,1.7061,1.749,1.791,1.8008,1.8008,1.8008,1.8008,1.8008,1.8008,1.8008,1.8008,1.8008,1.8008,1.8008,1.8008,1.8008,1.8008,1.8008,1.8008,1.8008,1.8008,1.8008,1.8008,1.8008,1.8008,1.8379,1.9238,2.1025,2.1659,2.1011,2.2627,2.3661,2.3891,2.4636,2.5511,2.6533,2.6533,2.6533,2.6533,2.6533,2.6533,0.0,0.0,0.0,0.7825,0.0,0.0,0.0,0.0,1.2224,0.0,0.0,0.0,0.0,1.2305,1.2305,1.2305,0.0,0.0,0.0,0.0,0.0,0.0,0.0,0.0,0.0,0.0,0.0,0.0,0.0,0.0,0.921,0.8313,0.7326,0.6338,0.6338,0.6338,0.6338,0.6338,0.6338,0.6338,0.6338,0.6338,0.6338,0.6338,0.6338,0.6338,0.6338,0.6868,0.7833,0.8522,0.9451,1.0438,1.1101,1.1236,1.0949,1.0732,1.0624,1.0624,1.0624,1.1663,1.2948,1.3009,1.4094,1.541,1.541,1.541,1.541,1.541,1.5723,1.6172,1.6621,1.7061,1.749,1.791,1.8008,1.8008,1.8008,1.8008,1.8008,1.8008,1.8008,1.8008,1.8008,1.8008,1.8008,1.8008,1.8008,1.8008,1.8008,1.8008,1.8008,1.8008,1.8008,1.8008,1.8008,1.8008,1.8379,1.9238,2.1025,2.1952,2.1952,2.2925,2.3963,2.4933,2.5004,2.5511,2.6533,2.6533,2.6533,2.6533,2.6533,2.6533,0.0,0.0,0.8505,0.8816,0.0,0.0,0.0,0.0,0.0,0.0,0.0,0.0,0.0,0.0,1.2305,1.2305,1.2138,1.1944,0.0,0.0,0.0,0.0,0.0,0.0,0.0,0.0,0.0,0.0,0.0,0.0,0.0,0.8313,0.7326,0.6338,0.6338,0.6338,0.6338,0.6338,0.6338,0.6338,0.6338,0.6338,0.6338,0.6338,0.6338,0.6338,0.7022,0.748,0.7927,0.9499,1.0359,1.0704,1.1469,1.1663,1.1516,1.1029,1.0728,1.0624,1.0624,1.1663,1.3009,1.3009,1.4094,1.541,1.541,1.541,1.541,1.541,1.5518,1.5801,1.6533,1.6846,1.7129,1.7842,1.8008,1.8134,1.8721,1.8844,1.8844,1.8844,1.8844,1.8654,1.8076,1.8008,1.8008,1.8008,1.8008,1.8008,1.8008,1.8008,1.8202,1.8787,1.8327,1.8202,1.8787,1.9466,2.0219,2.1064,2.2905,2.3672,2.2999,2.4612,2.5358,2.5004,2.5664,2.6164,2.6533,2.6533,2.6533,2.6533,2.6533,2.6533,0.6797,0.7934,0.0,0.0,1.088,0.0,1.2414,0.0,0.0,0.0,0.0,0.0,0.0,0.0,1.3273,1.31,1.2788,1.2407,0.0,1.1363,0.0,0.0,0.0,0.0,0.0,0.0,0.0,0.0,1.0053,0.0,0.0,0.0,0.838,0.7403,0.7022,0.6795,0.6795,0.649,0.6338,0.6338,0.6338,0.6338,0.6338,0.6338,0.6338,0.6338,0.7326,0.8012,0.8466,1.011,1.1013,1.1372,1.1873,1.1957,1.1797,1.1209,1.0808,1.0624,1.0624,1.1663,1.3009,1.3009,1.4094,1.541,1.541,1.541,1.5439,1.5596,1.5527,1.5654,1.6689,1.6855,1.6943,1.7803,1.8008,1.8269,1.911,1.9299,1.9365,1.9683,1.9497,1.911,1.8596,1.8462,1.8327,1.8076,1.8008,1.8008,1.8008,1.8008,1.8337,1.9233,1.8787,1.8787,1.9694,2.0687,2.1435,2.1967,2.391,2.4707,2.4047,2.5652,2.6164,2.5523,2.6164,2.6533,2.6533,2.6533,2.6533,2.6533,2.6533,2.6533]},{"header":{"parameterUnit":"m.s-1","parameterCategory":1,"la1":30.6,"la2":29.2853,"lo1":-89.7004,"lo2":-87.6739,"dy":0.0162,"dx":0.0183,"nx":112,"ny":82,"refTime":"2023-05-29T12:00:00:Z","depth":0,"parameterNumber":3,"parameterNumberName":"V-component_of_WINDS"},"data":[0.0,0.0,0.0,0.0,0.0,0.0,0.0,0.0,0.0,0.0,0.0,0.0,0.0,0.0,0.0,0.0,0.0,0.0,0.0,0.0,0.0,0.0,0.0,0.0,0.0,0.0,0.0,0.0,0.0,0.0,0.0,0.0,0.0,0.0,0.0,0.0,0.0,0.0,0.0,0.0,0.0,0.0,0.0,0.0,0.0,0.0,0.0,0.0,0.0,0.0,0.0,0.0,0.0,0.0,0.0,0.0,0.0,0.0,0.0,0.0,0.0,0.0,0.0,0.0,0.0,0.0,0.0,0.0,0.0,0.0,0.0,0.0,0.0,0.0,0.0,0.0,0.0,0.0,0.0,0.0,0.0,0.0,0.0,0.0,0.0,0.0,0.0,0.0,0.0,0.0,0.0,-2.2557,-2.2852,-2.2949,-2.2472,-2.1933,-2.0747,-1.873,0.0,0.0,0.0,0.0,0.0,0.0,0.0,0.0,0.0,0.0,0.0,0.0,0.0,0.0,0.0,0.0,0.0,0.0,0.0,0.0,0.0,0.0,0.0,0.0,0.0,0.0,0.0,0.0,0.0,0.0,0.0,0.0,0.0,0.0,0.0,0.0,0.0,0.0,0.0,0.0,0.0,0.0,0.0,0.0,0.0,0.0,0.0,0.0,0.0,0.0,0.0,0.0,0.0,0.0,0.0,0.0,0.0,0.0,0.0,0.0,0.0,0.0,0.0,0.0,0.0,0.0,0.0,0.0,0.0,0.0,0.0,0.0,0.0,0.0,0.0,0.0,0.0,0.0,0.0,0.0,0.0,0.0,0.0,0.0,0.0,0.0,0.0,0.0,0.0,0.0,0.0,0.0,0.0,0.0,0.0,0.0,0.0,0.0,0.0,0.0,0.0,0.0,0.0,0.0,-2.3313,-2.2997,-2.3085,-2.304,-2.2965,-2.2498,-2.1825,-2.1031,0.0,0.0,0.0,0.0,0.0,0.0,0.0,0.0,0.0,0.0,0.0,0.0,0.0,0.0,0.0,0.0,0.0,0.0,0.0,0.0,0.0,0.0,0.0,0.0,0.0,0.0,0.0,0.0,0.0,0.0,0.0,0.0,0.0,0.0,0.0,0.0,0.0,0.0,0.0,0.0,0.0,0.0,0.0,0.0,0.0,0.0,0.0,0.0,0.0,0.0,0.0,0.0,0.0,0.0,0.0,0.0,0.0,0.0,0.0,0.0,0.0,0.0,0.0,0.0,0.0,0.0,0.0,0.0,0.0,0.0,0.0,0.0,0.0,0.0,0.0,0.0,0.0,0.0,0.0,0.0,0.0,0.0,0.0,0.0,0.0,0.0,0.0,0.0,0.0,0.0,0.0,0.0,0.0,0.0,0.0,0.0,0.0,0.0,0.0,0.0,0.0,0.0,0.0,-2.3176,-2.3082,-2.3709,-2.3365,-2.3078,-2.3078,-2.2636,-2.1945,-2.1091,-1.975,0.0,0.0,0.0,0.0,0.0,0.0,0.0,0.0,0.0,0.0,0.0,0.0,0.0,0.0,0.0,0.0,0.0,0.0,0.0,0.0,0.0,0.0,0.0,0.0,0.0,0.0,0.0,0.0,0.0,0.0,0.0,0.0,0.0,0.0,0.0,0.0,0.0,0.0,0.0,0.0,0.0,0.0,0.0,0.0,0.0,0.0,0.0,0.0,0.0,0.0,0.0,0.0,0.0,0.0,0.0,0.0,0.0,0.0,0.0,0.0,0.0,0.0,0.0,0.0,0.0,0.0,0.0,0.0,0.0,0.0,0.0,0.0,0.0,0.0,0.0,0.0,0.0,0.0,0.0,0.0,0.0,0.0,0.0,0.0,0.0,0.0,0.0,0.0,0.0,0.0,0.0,0.0,0.0,0.0,0.0,0.0,0.0,0.0,0.0,0.0,0.0,0.0,-2.3705,-2.3497,-2.4473,-2.3989,-2.359,-2.3424,-2.303,-2.2261,-2.0983,-2.0598,0.0,0.0,0.0,0.0,0.0,0.0,0.0,0.0,0.0,0.0,0.0,0.0,0.0,0.0,0.0,0.0,0.0,0.0,0.0,0.0,0.0,0.0,0.0,0.0,0.0,0.0,0.0,0.0,0.0,0.0,0.0,0.0,0.0,0.0,0.0,0.0,0.0,0.0,0.0,0.0,0.0,0.0,0.0,0.0,0.0,0.0,0.0,0.0,0.0,0.0,0.0,0.0,0.0,0.0,0.0,0.0,0.0,0.0,0.0,0.0,0.0,0.0,0.0,0.0,0.0,0.0,0.0,0.0,0.0,0.0,0.0,0.0,0.0,0.0,0.0,0.0,0.0,0.0,0.0,0.0,0.0,0.0,0.0,0.0,0.0,0.0,0.0,0.0,0.0,0.0,0.0,0.0,0.0,0.0,0.0,0.0,0.0,0.0,0.0,0.0,0.0,0.0,-2.4875,-2.5246,-2.5329,-2.5287,-2.4951,-2.4292,-2.4195,-2.3397,-2.1549,-2.1905,0.0,0.0,0.0,0.0,0.0,0.0,0.0,0.0,0.0,0.0,0.0,0.0,0.0,0.0,0.0,0.0,0.0,0.0,0.0,0.0,0.0,0.0,0.0,0.0,0.0,0.0,0.0,0.0,0.0,0.0,0.0,0.0,0.0,0.0,0.0,0.0,0.0,0.0,0.0,0.0,0.0,0.0,0.0,0.0,0.0,0.0,0.0,0.0,0.0,0.0,0.0,0.0,0.0,0.0,0.0,0.0,0.0,0.0,0.0,0.0,0.0,0.0,0.0,0.0,0.0,0.0,0.0,0.0,0.0,0.0,0.0,0.0,0.0,0.0,0.0,0.0,0.0,0.0,0.0,0.0,0.0,0.0,0.0,0.0,0.0,0.0,0.0,0.0,0.0,0.0,0.0,0.0,0.0,0.0,0.0,0.0,0.0,0.0,0.0,0.0,0.0,0.0,-2.5344,-2.5615,0.0,-2.5673,-2.5287,-2.5007,-2.5007,-2.4338,-2.2884,0.0,0.0,0.0,0.0,0.0,0.0,0.0,0.0,0.0,0.0,0.0,0.0,0.0,0.0,0.0,0.0,0.0,0.0,0.0,0.0,0.0,0.0,0.0,0.0,0.0,0.0,0.0,0.0,0.0,0.0,0.0,0.0,0.0,0.0,0.0,0.0,0.0,0.0,0.0,0.0,0.0,0.0,0.0,0.0,0.0,0.0,0.0,0.0,0.0,0.0,0.0,0.0,0.0,0.0,0.0,0.0,0.0,0.0,0.0,0.0,0.0,0.0,0.0,0.0,0.0,0.0,0.0,0.0,0.0,0.0,0.0,0.0,0.0,0.0,0.0,0.0,0.0,0.0,0.0,0.0,0.0,0.0,0.0,0.0,0.0,0.0,0.0,0.0,0.0,0.0,0.0,0.0,0.0,0.0,0.0,0.0,0.0,0.0,0.0,0.0,0.0,0.0,-2.554,-2.5943,-2.6316,0.0,-2.639,-2.6,-2.5783,-2.5728,-2.5157,-2.3671,0.0,0.0,0.0,0.0,0.0,0.0,0.0,0.0,0.0,0.0,0.0,0.0,0.0,0.0,0.0,0.0,0.0,0.0,0.0,0.0,0.0,0.0,0.0,0.0,0.0,0.0,0.0,0.0,0.0,0.0,0.0,0.0,0.0,0.0,0.0,0.0,0.0,0.0,0.0,0.0,0.0,0.0,0.0,0.0,0.0,0.0,0.0,0.0,0.0,0.0,0.0,0.0,0.0,0.0,0.0,0.0,0.0,0.0,0.0,0.0,0.0,0.0,0.0,0.0,0.0,0.0,0.0,0.0,0.0,0.0,0.0,0.0,0.0,0.0,0.0,0.0,0.0,0.0,0.0,0.0,0.0,0.0,0.0,0.0,0.0,0.0,0.0,0.0,0.0,0.0,0.0,0.0,0.0,0.0,0.0,0.0,0.0,0.0,0.0,0.0,0.0,0.0,-2.5646,-2.6767,-2.7625,-2.7625,-2.7625,-2.7306,-2.6563,-2.651,-2.5702,0.0,0.0,0.0,0.0,0.0,0.0,0.0,0.0,0.0,0.0,0.0,0.0,0.0,0.0,0.0,0.0,0.0,0.0,0.0,0.0,0.0,0.0,0.0,0.0,0.0,0.0,0.0,0.0,0.0,0.0,0.0,0.0,0.0,0.0,0.0,0.0,0.0,0.0,0.0,0.0,0.0,0.0,0.0,0.0,0.0,0.0,0.0,0.0,0.0,0.0,0.0,0.0,0.0,0.0,0.0,0.0,0.0,0.0,0.0,0.0,0.0,0.0,0.0,0.0,0.0,0.0,0.0,0.0,0.0,0.0,0.0,0.0,0.0,0.0,0.0,0.0,0.0,0.0,0.0,0.0,0.0,0.0,0.0,0.0,0.0,0.0,0.0,0.0,0.0,0.0,0.0,0.0,0.0,0.0,0.0,0.0,0.0,0.0,0.0,0.0,0.0,0.0,0.0,-2.574,-2.7124,-2.8091,-2.7675,-2.7625,-2.7524,-2.7306,-2.7306,-2.6642,-2.5087,0.0,0.0,0.0,0.0,0.0,0.0,0.0,0.0,0.0,0.0,0.0,0.0,0.0,0.0,0.0,0.0,0.0,0.0,0.0,0.0,0.0,0.0,0.0,0.0,0.0,0.0,0.0,0.0,0.0,0.0,0.0,0.0,0.0,0.0,0.0,0.0,0.0,0.0,0.0,0.0,0.0,0.0,0.0,0.0,0.0,0.0,0.0,0.0,0.0,0.0,0.0,0.0,0.0,0.0,0.0,0.0,0.0,0.0,0.0,0.0,0.0,0.0,0.0,0.0,0.0,0.0,0.0,0.0,0.0,0.0,0.0,0.0,0.0,0.0,0.0,0.0,0.0,0.0,0.0,0.0,0.0,0.0,0.0,0.0,0.0,0.0,0.0,0.0,0.0,0.0,0.0,0.0,0.0,0.0,0.0,0.0,0.0,0.0,0.0,0.0,0.0,0.0,-2.6032,-2.7204,-2.7993,-2.7625,-2.7625,-2.7625,-2.7625,-2.7625,-2.7126,-2.6063,0.0,0.0,0.0,0.0,0.0,0.0,0.0,0.0,0.0,0.0,0.0,0.0,0.0,0.0,0.0,0.0,0.0,0.0,0.0,0.0,0.0,0.0,0.0,0.0,0.0,0.0,0.0,0.0,0.0,0.0,0.0,0.0,0.0,0.0,0.0,0.0,0.0,0.0,0.0,0.0,0.0,0.0,0.0,0.0,0.0,0.0,0.0,0.0,0.0,0.0,0.0,0.0,0.0,0.0,0.0,0.0,0.0,0.0,0.0,0.0,0.0,0.0,0.0,0.0,0.0,0.0,0.0,0.0,0.0,0.0,0.0,0.0,0.0,0.0,0.0,0.0,0.0,0.0,0.0,0.0,0.0,0.0,0.0,0.0,0.0,0.0,0.0,0.0,0.0,0.0,0.0,0.0,0.0,0.0,0.0,0.0,0.0,0.0,0.0,0.0,0.0,0.0,-2.6554,-2.7284,-2.7845,-2.776,-2.776,-2.776,-2.776,-2.771,-2.739,-2.6714,0.0,0.0,0.0,0.0,0.0,0.0,0.0,0.0,0.0,0.0,0.0,0.0,0.0,0.0,0.0,0.0,0.0,0.0,0.0,0.0,0.0,0.0,0.0,0.0,0.0,0.0,0.0,0.0,0.0,0.0,0.0,0.0,0.0,0.0,0.0,0.0,0.0,0.0,0.0,0.0,0.0,0.0,0.0,0.0,0.0,0.0,0.0,0.0,0.0,0.0,0.0,0.0,0.0,0.0,0.0,0.0,0.0,0.0,0.0,0.0,-2.5796,0.0,0.0,0.0,0.0,0.0,0.0,0.0,0.0,0.0,0.0,0.0,0.0,0.0,0.0,0.0,0.0,0.0,0.0,0.0,0.0,0.0,0.0,0.0,0.0,0.0,0.0,0.0,0.0,0.0,0.0,0.0,0.0,0.0,0.0,0.0,0.0,0.0,0.0,0.0,0.0,0.0,-2.7253,-2.8656,-2.9524,-2.9088,-2.9042,-2.9042,-2.9042,-2.8591,-2.8027,-2.7365,0.0,0.0,0.0,0.0,0.0,0.0,0.0,0.0,0.0,0.0,0.0,0.0,0.0,0.0,0.0,0.0,0.0,0.0,0.0,0.0,0.0,0.0,0.0,0.0,0.0,0.0,0.0,0.0,0.0,0.0,0.0,0.0,0.0,0.0,0.0,0.0,0.0,0.0,0.0,0.0,0.0,0.0,0.0,0.0,0.0,0.0,0.0,0.0,0.0,0.0,0.0,0.0,0.0,0.0,0.0,0.0,0.0,0.0,0.0,0.0,0.0,-2.7186,0.0,0.0,0.0,0.0,0.0,0.0,0.0,0.0,0.0,0.0,0.0,0.0,0.0,0.0,0.0,0.0,0.0,0.0,0.0,0.0,0.0,0.0,0.0,0.0,0.0,0.0,0.0,0.0,0.0,0.0,0.0,0.0,0.0,0.0,0.0,0.0,0.0,0.0,0.0,0.0,-2.8306,-2.9166,-2.9761,-2.9451,-2.9406,-2.9406,-2.9406,-2.8826,-2.8356,-2.7984,-2.7428,0.0,0.0,0.0,0.0,0.0,0.0,0.0,0.0,0.0,0.0,0.0,0.0,0.0,0.0,0.0,0.0,0.0,0.0,0.0,0.0,0.0,0.0,0.0,0.0,0.0,0.0,0.0,0.0,0.0,0.0,0.0,0.0,0.0,0.0,0.0,0.0,0.0,0.0,0.0,0.0,0.0,0.0,0.0,0.0,0.0,0.0,0.0,0.0,0.0,0.0,0.0,0.0,0.0,0.0,0.0,-3.0966,-3.0794,-3.0876,-3.1156,-3.0504,-3.0226,-3.0137,0.0,0.0,0.0,0.0,0.0,0.0,0.0,0.0,0.0,0.0,0.0,0.0,0.0,0.0,0.0,0.0,0.0,0.0,0.0,0.0,0.0,0.0,0.0,0.0,0.0,-2.9837,-2.9956,0.0,0.0,0.0,0.0,0.0,0.0,0.0,0.0,0.0,0.0,0.0,0.0,-2.9383,-2.958,-2.9717,-2.9717,-2.9717,-2.9717,-2.9717,-2.9134,-2.8826,-2.8826,-2.8271,-2.7603,0.0,0.0,0.0,0.0,0.0,0.0,0.0,0.0,0.0,0.0,0.0,0.0,0.0,0.0,0.0,0.0,0.0,0.0,0.0,0.0,0.0,0.0,0.0,0.0,0.0,0.0,0.0,0.0,0.0,0.0,0.0,0.0,-2.1792,-2.4061,0.0,0.0,0.0,0.0,0.0,0.0,0.0,0.0,0.0,0.0,0.0,0.0,0.0,0.0,-3.1072,-3.1182,-3.1237,-3.1237,-3.1304,-3.1334,-3.1371,-3.1997,-3.2344,-3.2381,-3.2629,0.0,-3.0229,-3.0552,0.0,0.0,0.0,0.0,0.0,0.0,0.0,0.0,0.0,0.0,0.0,0.0,0.0,0.0,0.0,0.0,0.0,0.0,0.0,0.0,0.0,0.0,-3.0768,-3.0869,-3.097,-3.1004,0.0,-2.982,-2.8994,-2.8839,0.0,0.0,0.0,0.0,0.0,0.0,0.0,0.0,-2.9977,-3.0561,-3.0958,-3.0958,-3.0958,-3.0958,-3.0958,-3.0435,-3.0064,-3.0064,-2.9496,-2.8872,-2.8292,-2.8321,0.0,0.0,0.0,0.0,0.0,0.0,0.0,0.0,0.0,0.0,0.0,0.0,0.0,0.0,0.0,0.0,0.0,0.0,0.0,0.0,0.0,0.0,0.0,0.0,0.0,0.0,0.0,0.0,0.0,-2.2102,-2.3264,-2.5303,-2.5228,-2.5526,0.0,0.0,0.0,0.0,0.0,0.0,0.0,0.0,0.0,-3.0852,-3.087,-3.1035,-3.1384,-3.1843,-3.2063,-3.2082,-3.2522,-3.2742,-3.2761,-3.3109,-3.3275,-3.3293,-3.346,-3.2904,-3.1882,-3.1839,-3.1494,-3.0959,0.0,0.0,0.0,0.0,0.0,-3.0226,-3.0226,0.0,0.0,0.0,0.0,0.0,0.0,0.0,0.0,0.0,0.0,0.0,0.0,0.0,0.0,-3.1106,-3.119,-3.119,-3.119,-3.0683,-3.0108,0.0,-2.9262,-2.9011,-2.9011,0.0,0.0,0.0,0.0,0.0,-3.0717,-3.1004,-3.119,-3.119,-3.119,-3.119,-3.119,-3.0658,-3.0293,-3.0293,-2.9717,-2.9271,-2.9012,-2.8701,-2.8244,0.0,0.0,0.0,0.0,0.0,0.0,0.0,0.0,0.0,0.0,0.0,0.0,0.0,0.0,0.0,0.0,0.0,0.0,0.0,0.0,0.0,0.0,0.0,0.0,0.0,0.0,0.0,0.0,-2.4469,-2.4894,-2.6035,-2.5845,-2.5974,0.0,0.0,0.0,0.0,0.0,0.0,-3.038,-3.1023,-3.1476,-3.1696,-3.1715,-3.1806,-3.2008,-3.2614,-3.2926,-3.2926,-3.3513,-3.3807,-3.3807,-3.3807,-3.3807,-3.3807,-3.3807,-3.3625,-3.3332,-3.2965,-3.2713,-3.2484,-3.2144,-3.195,0.0,-3.1368,-3.119,-3.119,-3.119,-3.119,-3.119,-3.119,0.0,-3.119,-3.119,0.0,0.0,0.0,0.0,-2.9668,-3.0243,0.0,-3.0531,-3.1072,-3.119,-3.119,-3.119,-3.1055,-3.0818,0.0,-2.9939,-2.955,-2.955,0.0,0.0,0.0,0.0,-3.119,-3.119,-3.119,-3.119,-3.119,-3.119,-3.119,-3.119,-3.0797,-3.0518,-3.0518,-3.0123,-2.9805,-2.9629,-2.918,-2.8826,-2.8511,0.0,0.0,0.0,0.0,0.0,0.0,0.0,0.0,0.0,0.0,0.0,0.0,0.0,0.0,0.0,0.0,0.0,0.0,0.0,0.0,0.0,0.0,0.0,0.0,0.0,0.0,0.0,0.0,0.0,-2.6741,-2.697,0.0,0.0,0.0,0.0,-2.9494,-3.0659,-3.1203,-3.0885,-3.1214,-3.1751,-3.2522,-3.254,-3.2926,-3.366,-3.3715,-3.3733,-3.3733,-3.377,-3.3807,-3.3807,-3.3807,-3.3807,-3.3807,-3.3807,-3.3807,-3.3762,-3.3734,-3.3255,-3.2484,-3.2484,-3.2196,-3.1752,-3.1351,-3.119,-3.119,-3.119,-3.119,-3.119,-3.119,-3.119,-3.119,-3.119,-3.1173,0.0,0.0,-3.1106,-3.1089,-3.114,-3.114,-3.114,-3.119,-3.119,-3.119,-3.119,-3.0649,-3.0362,0.0,-3.1106,-3.1089,-3.1089,0.0,-3.114,-3.114,-3.1173,-3.119,-3.119,-3.119,-3.119,-3.119,-3.119,-3.119,-3.119,-3.119,-3.1151,-3.1151,-3.1112,-3.0838,-3.0293,-3.0208,-2.9673,-2.8511,-2.8432,0.0,0.0,0.0,0.0,0.0,0.0,0.0,0.0,0.0,0.0,0.0,0.0,0.0,0.0,0.0,0.0,0.0,0.0,0.0,0.0,0.0,0.0,0.0,0.0,0.0,0.0,0.0,0.0,-2.7487,-2.8057,0.0,0.0,-2.964,-3.0294,-3.0432,-3.1516,-3.2122,-3.1991,-3.2598,-3.3073,-3.3366,-3.3366,-3.3513,-3.3807,-3.3807,-3.3876,-3.4068,-3.3876,-3.3876,-3.4043,-3.3876,-3.3807,-3.3807,-3.3807,-3.3807,-3.3807,-3.3807,-3.3606,-3.3284,-3.2713,-3.2417,-3.2179,-3.1449,-3.119,-3.119,-3.119,-3.119,-3.119,-3.119,-3.119,-3.119,-3.119,-3.119,-3.119,-3.119,-3.119,-3.119,-3.119,-3.119,-3.119,-3.119,-3.119,-3.119,-3.119,-3.0987,-3.0886,-3.114,-3.0818,-3.0649,-3.1123,-3.119,-3.119,-3.119,-3.119,-3.119,-3.119,-3.119,-3.119,-3.119,-3.119,-3.119,-3.119,-3.119,-3.119,-3.119,-3.119,-3.1095,-3.0878,-3.0518,-3.0123,-2.9673,-2.8919,-2.8367,0.0,0.0,0.0,0.0,0.0,0.0,0.0,0.0,0.0,0.0,0.0,0.0,0.0,0.0,0.0,0.0,0.0,0.0,0.0,0.0,0.0,0.0,0.0,0.0,0.0,0.0,-2.8073,-2.828,-2.8874,-2.9397,-2.9683,-3.0757,-3.1473,-3.1597,-3.2555,-3.316,-3.316,-3.3548,-3.3807,-3.3807,-3.3807,-3.3807,-3.3807,-3.3807,-3.3935,-3.42,-3.3928,-3.3935,-3.4176,-3.391,-3.3807,-3.3807,-3.3807,-3.3807,-3.3807,-3.3807,-3.3807,-3.3707,-3.284,-3.2484,-3.2384,-3.1524,-3.119,-3.119,-3.119,-3.119,-3.119,-3.119,-3.119,-3.119,-3.119,-3.119,-3.119,-3.119,-3.119,-3.119,-3.119,-3.119,-3.119,-3.119,-3.119,-3.1258,-3.1512,-3.1562,-3.163,-3.1884,-3.1157,-3.0717,-3.1427,-3.1562,-3.1647,-3.1901,-3.1935,-3.1935,-3.1935,-3.1935,-3.1935,-3.1935,-3.1935,-3.1935,-3.1935,-3.1935,-3.1935,-3.1935,-3.1698,-3.1562,-3.1562,-3.0972,-3.0435,-2.9978,-2.881,-2.8189,-2.8189,0.0,0.0,0.0,0.0,0.0,0.0,0.0,0.0,0.0,0.0,0.0,0.0,0.0,0.0,0.0,0.0,0.0,0.0,0.0,0.0,0.0,0.0,0.0,-2.7648,-2.8585,-2.9374,-2.9219,-2.9493,-3.0026,-3.0875,-3.1916,-3.2687,-3.3003,-3.3771,-3.42,-3.42,-3.3961,-3.3815,-3.3815,-3.3834,-3.3852,-3.3852,-3.3889,-3.4035,-3.4274,-3.4009,-3.4035,-3.4237,-3.3991,-3.3852,-3.3807,-3.3807,-3.3807,-3.3807,-3.3807,-3.3807,-3.3707,-3.2872,-3.2517,-3.2417,-3.1562,-3.123,-3.123,-3.123,-3.119,-3.119,-3.119,-3.119,-3.119,-3.119,-3.119,-3.119,-3.119,-3.119,-3.1207,-3.1224,-3.1224,-3.1241,-3.1258,-3.1258,-3.1461,-3.2171,-3.2307,-3.2544,-3.3271,-3.2256,-3.1495,-3.2188,-3.2307,-3.256,-3.3288,-3.3406,0.0,-3.3406,-3.3406,-3.3406,-3.3406,-3.3406,-3.3406,-3.3406,-3.3406,-3.3406,-3.3406,-3.2713,-3.2307,-3.2307,-3.1647,-3.0708,-2.9483,-2.8271,-2.7675,-2.7625,0.0,0.0,0.0,0.0,0.0,0.0,0.0,0.0,0.0,0.0,0.0,0.0,0.0,0.0,0.0,0.0,0.0,0.0,0.0,0.0,0.0,0.0,-3.0615,-3.006,-3.0062,-3.0441,-3.1241,-3.1755,-3.2162,-3.2403,-3.3215,-3.3775,-3.3864,-3.4292,-3.4551,-3.4551,-3.4265,-3.4213,-3.4442,-3.4838,-3.5033,-3.5045,-3.5853,-3.6276,-3.6302,-3.6276,-3.5976,-3.5418,-3.5142,-3.4567,-3.3807,-3.3807,-3.3807,-3.3807,-3.3807,-3.3807,-3.3734,-3.3214,-3.3014,-3.2952,-3.235,-3.195,-3.164,-3.164,-3.1449,-3.119,-3.119,-3.119,-3.119,-3.119,-3.119,-3.119,-3.119,-3.119,-3.1309,-3.185,-3.1985,-3.2121,-3.2662,-3.2797,-3.2848,-3.3051,-3.3102,-3.3169,-3.3372,-3.3085,-3.2865,-3.3068,-3.3102,-3.3169,-3.3372,0.0,0.0,-3.3406,-3.3406,-3.3406,-3.3406,-3.3406,-3.3406,-3.3406,-3.3406,-3.3406,0.0,-3.322,-3.3102,-3.3102,-3.2899,-3.216,-3.0893,-2.9555,-2.8685,0.0,0.0,0.0,0.0,0.0,0.0,0.0,0.0,0.0,0.0,0.0,0.0,0.0,0.0,0.0,0.0,0.0,0.0,0.0,0.0,0.0,0.0,-3.1782,-3.2125,-3.2359,-3.1781,-3.1657,-3.2581,-3.2992,-3.3318,-3.3693,-3.4229,-3.4595,-3.4595,-3.4755,-3.5003,-3.5363,-3.5082,-3.5168,-3.5734,-3.6058,-3.6212,-3.6208,-3.688,-3.7234,-3.7297,-3.7234,-3.6988,-3.6595,-3.6189,-3.5634,0.0,-3.4917,-3.4853,-3.4853,-3.4853,-3.4853,0.0,0.0,0.0,0.0,0.0,-3.235,-3.2074,-3.1861,-3.166,-3.1411,-3.1252,-3.119,-3.119,-3.119,-3.141,-3.1647,-3.1647,-3.1867,-3.2222,-3.2645,-3.2747,-3.2865,-3.3305,-3.3406,-3.3491,-3.3795,-3.3863,-3.3947,-3.4269,0.0,0.0,-3.4336,-3.4066,-3.3981,-3.4286,-3.4336,-3.4336,0.0,-3.4336,-3.4336,-3.4336,-3.4336,-3.4336,-3.4336,-3.4336,0.0,0.0,0.0,-3.3728,-3.3423,-3.316,0.0,0.0,0.0,-3.0147,0.0,0.0,0.0,0.0,-2.7665,-2.7415,0.0,0.0,0.0,0.0,0.0,0.0,0.0,0.0,0.0,0.0,0.0,0.0,0.0,0.0,0.0,0.0,-3.2841,-3.3544,-3.4347,-3.3595,-3.3105,-3.3581,-3.362,-3.3904,-3.4659,-3.4963,-3.5143,-3.5238,-3.5255,-3.5615,-3.6453,0.0,0.0,0.0,0.0,-3.7385,-3.7385,-3.7522,-3.7679,-3.7869,-3.7679,-3.7622,-3.7735,-3.7194,-3.687,-3.6696,-3.6454,-3.6342,-3.6303,-3.6303,-3.6303,-3.6109,-3.4164,-3.3364,-3.3214,-3.2809,-3.2583,0.0,0.0,0.0,0.0,-3.1389,-3.128,-3.1309,-3.1387,-3.1856,-3.2408,-3.2408,-3.2899,-3.3423,-3.3508,-3.3525,-3.3558,-3.3643,-3.366,-3.3829,-3.4472,-3.4624,-3.481,-3.5487,-3.5622,-3.5622,-3.5622,-3.5064,-3.4844,-3.552,-3.5622,0.0,-3.5622,-3.5622,-3.5622,-3.5622,0.0,0.0,-3.5622,-3.5622,-3.5622,-3.5622,-3.4996,-3.4336,-3.3694,-3.305,-3.2718,-3.2611,-3.1962,-3.1534,-3.1486,-3.0203,-2.9627,-2.9562,-2.8243,-2.7625,0.0,0.0,0.0,0.0,0.0,0.0,0.0,0.0,0.0,0.0,0.0,0.0,0.0,0.0,0.0,-3.3943,-3.4179,-3.4514,-3.5316,-3.5229,-3.5105,-3.51,-3.4907,-3.4826,-3.5016,-3.507,-3.5372,-3.602,-3.6262,-3.6776,-3.7621,-3.7424,0.0,-3.7843,-3.8323,-3.8556,-3.8499,-3.9407,-3.9769,-3.9605,0.0,0.0,-3.8631,-3.8537,-3.7835,-3.6702,-3.6645,-3.649,-3.6303,-3.6303,-3.6303,-3.6193,-3.508,-3.4265,-3.3662,-3.3578,-3.3087,-3.2484,-3.2417,-3.1914,-3.1351,-3.1603,-3.188,-3.215,-3.2548,-3.2884,0.0,-3.3186,-3.3288,-3.3541,-3.4134,-3.4286,-3.4438,-3.5047,-3.5182,-3.5233,-3.5368,-3.5402,-3.5453,-3.5588,-3.5622,-3.5622,-3.5622,-3.5504,-3.5453,-3.5605,-3.5622,-3.5622,-3.5622,-3.5622,-3.5622,-3.5622,-3.5622,-3.5622,-3.5622,-3.5622,-3.5622,-3.5622,-3.5487,-3.5334,-3.5199,-3.4503,-3.384,-3.3324,-3.211,-3.1244,-3.0729,-2.9968,-2.9584,-2.9554,-2.8231,-2.7625,0.0,0.0,0.0,0.0,0.0,0.0,0.0,0.0,0.0,0.0,0.0,-3.205,0.0,0.0,-3.39,-3.4509,-3.4947,-3.5329,-3.5734,-3.5736,-3.5673,-3.5597,-3.5479,-3.5553,-3.5975,-3.6013,-3.632,-3.7086,-3.7275,-3.7738,-3.8604,-3.8511,-3.8703,-3.9238,-3.9544,-3.967,-3.9653,-4.023,-4.0422,-4.0304,-4.0441,-4.021,-3.9689,-3.9546,-3.9005,-3.8139,-3.7991,-3.7757,-3.7496,-3.7496,-3.7257,-3.6853,-3.6413,-3.5752,-3.5055,-3.5055,-3.479,-3.4375,-3.4117,-3.3788,-3.3406,-3.3371,-3.3303,-3.3282,-3.3554,-3.3774,-3.3947,-3.3947,-3.4218,-3.4607,-3.4962,-3.5064,-3.5148,-3.552,-3.5622,-3.5622,-3.5622,-3.5622,-3.5622,-3.5622,-3.5622,-3.5622,-3.5622,-3.5622,-3.5622,-3.5622,-3.5622,-3.5622,-3.5622,-3.5622,-3.5622,-3.5622,-3.5622,-3.5622,-3.5622,-3.5622,-3.5622,-3.5622,-3.5622,-3.5622,-3.5622,-3.525,-3.4914,-3.4564,-3.3905,-3.3223,-3.2526,-3.1605,-3.0911,-3.0556,-2.9237,-2.8577,0.0,0.0,0.0,0.0,0.0,0.0,0.0,0.0,-3.0309,-3.094,-3.2172,-3.3191,-3.3229,-3.4065,-3.475,-3.4793,-3.5405,-3.5875,-3.5901,-3.5774,-3.5699,-3.5749,-3.5715,-3.6035,-3.6832,-3.692,-3.73,-3.82,-3.8257,-3.8642,-3.9488,-3.9527,-3.9815,-4.0469,-4.0489,-4.0489,-4.0489,-4.0489,-4.0489,-4.0489,-4.0489,-4.0489,-4.0489,-4.0286,-4.0003,-3.9668,-3.9264,-3.8971,-3.8792,-3.8719,-3.8322,-3.7716,-3.7716,-3.7331,-3.6725,-3.6413,-3.6256,-3.6102,-3.5724,-3.5548,-3.5432,-3.513,-3.4763,-3.4449,-3.4623,-3.4708,-3.4752,-3.4822,-3.5237,-3.5622,-3.5622,-3.5622,-3.5622,-3.5622,-3.5622,-3.5622,-3.5622,-3.5622,-3.5622,-3.5622,-3.5622,-3.5622,-3.5622,-3.5622,-3.5622,-3.5622,-3.5622,-3.5622,-3.5622,-3.5622,-3.5622,-3.5622,-3.5622,-3.5622,-3.5622,-3.5622,-3.5622,-3.5622,-3.5622,-3.5622,-3.5622,-3.5622,-3.5532,-3.5407,-3.5407,-3.5052,-3.4382,-3.3173,-3.2309,-3.1765,-3.0561,-2.9819,-2.5615,-2.5265,-2.5611,-2.6813,-2.7328,-2.8036,0.0,0.0,-3.1572,-3.2172,-3.3274,-3.4154,-3.4141,-3.4924,-3.5574,-3.5587,-3.5669,-3.5759,-3.5877,-3.5784,-3.573,-3.5862,-3.5762,-3.6044,-3.6907,-3.6984,-3.7627,-3.9119,-3.9234,-3.9561,-4.0315,-4.0354,-4.0412,-4.0489,-4.0489,-4.0489,-4.0489,-4.0489,-4.0489,-4.0489,-4.0489,-4.0489,-4.0489,-4.0473,-4.0302,-4.0002,-3.9364,-3.9072,-3.9036,-3.8803,-3.8652,-3.8579,-3.8579,-3.8505,-3.8267,-3.6835,-3.6042,-3.5661,-3.5612,-3.5316,-3.5044,-3.5382,-3.5386,-3.5331,-3.6167,-3.5955,-3.5576,-3.6044,-3.5916,-3.5622,-3.5622,-3.5622,-3.5622,-3.5622,-3.5622,-3.5622,-3.5622,-3.5622,-3.5622,-3.5622,-3.5622,-3.5622,-3.5622,-3.5622,-3.5622,-3.5622,-3.5622,-3.5622,-3.5622,-3.5622,-3.5622,-3.5622,-3.5622,-3.5622,-3.5622,-3.5622,-3.5622,-3.5622,-3.5622,-3.5622,-3.5622,-3.5622,-3.5316,-3.4736,-3.4736,-3.4382,-3.3735,-3.2961,-3.2586,-3.2478,-3.1656,-3.0687,-2.726,-2.7581,-2.8247,-2.878,-2.924,-2.9869,-3.1034,-3.1741,-3.2292,-3.2902,-3.3946,-3.4757,-3.4757,-3.5264,-3.5643,0.0,-3.5695,-3.5756,-3.5877,-3.5779,-3.5724,-3.5778,-3.6172,-3.6804,-3.7675,-3.821,-3.8992,-4.0119,-4.021,-4.0331,-4.06,-4.062,-4.0581,-4.0489,-4.0489,-4.0489,-4.0489,-4.0489,-4.0489,-4.0489,-4.0489,-4.0489,-4.0489,-4.0489,-4.0356,-4.0061,-3.9389,-3.9099,-3.9072,-3.8833,-3.8707,-3.8707,-3.8707,-3.8707,-3.8615,-3.7936,-3.7571,-3.738,-3.738,-3.7267,-3.7152,-3.7348,-3.7154,-3.6898,-3.727,-3.6776,-3.6097,-3.635,-3.6011,-3.5622,-3.5622,-3.5622,-3.5622,-3.5622,-3.5622,-3.5622,-3.5622,-3.5622,-3.5622,-3.5622,-3.5622,-3.5622,-3.5622,-3.5622,-3.5622,-3.5622,-3.5622,-3.5622,-3.5622,-3.5622,-3.5622,-3.5622,-3.5622,-3.5622,-3.5622,-3.5622,-3.5622,-3.5622,-3.5622,-3.5622,-3.5622,-3.5622,-3.547,-3.5207,-3.5207,-3.4847,-3.4186,-3.3495,-3.2986,-3.2586,-3.1853,-3.124,-2.8553,-2.9236,-3.0087,-3.0329,-3.082,-3.1356,-3.1898,-3.2495,-3.3128,-3.3648,-3.4471,-3.5122,-3.5207,-3.5407,-3.5603,-3.5641,-3.5641,-3.5699,-3.5795,-3.5715,-3.565,-3.5669,-3.6628,-3.753,-3.8213,-3.9097,-3.9955,-4.0744,-4.082,-4.0808,-4.0739,-4.0737,-4.0677,-4.06,-4.0562,-4.0562,-4.0562,-4.0508,-4.0489,-4.0489,-4.0489,-4.0489,-4.0489,-4.0489,-4.0389,-4.0177,-3.9622,-3.9314,-3.9231,-3.8923,-3.8762,-3.8707,-3.8707,-3.8707,-3.8707,-3.8707,-3.8707,-3.8707,-3.8707,-3.8707,-3.8707,-3.8707,-3.835,-3.7946,-3.8065,-3.7305,-3.6457,-3.6764,-3.6249,-3.5605,-3.5783,-3.5694,-3.5622,-3.5622,-3.5622,-3.5622,-3.5622,-3.5622,-3.5622,-3.5622,-3.5622,-3.5622,-3.5622,-3.5622,-3.5622,-3.5622,-3.5622,-3.5622,-3.5622,-3.5622,-3.5622,-3.5622,-3.5622,-3.5622,-3.5622,-3.5622,-3.5622,-3.5622,-3.5622,-3.5622,-3.5622,-3.5622,-3.5622,-3.5622,-3.5622,-3.5362,-3.4894,-3.4186,-3.3633,-3.3145,-3.2201,-3.1796,-2.8759,-2.9128,-2.9802,-3.0661,-3.1472,-3.2136,-3.2499,-3.3383,-3.4251,-3.4595,-3.4907,-3.519,-3.5446,-3.5493,-3.5493,-3.5526,-3.5526,-3.5545,-3.5603,-3.5545,-3.5526,-3.5603,-3.7007,-3.8027,0.0,-3.9115,-4.0,-4.0742,-4.0917,-4.0938,-4.0801,-4.0797,-4.0793,-4.0793,-4.0735,-4.0696,-4.0696,-4.0562,-4.0489,-4.0489,-4.0489,-4.0489,-4.0489,-4.0489,-4.0489,-4.0473,-4.0195,-3.988,-3.9552,-3.9231,-3.8933,-3.8707,-3.8707,-3.8707,-3.8707,-3.8707,-3.8707,-3.8707,-3.8707,-3.8707,-3.8707,-3.8707,-3.835,-3.798,-3.8515,-3.7596,-3.6603,-3.756,-3.6768,-3.5739,-3.6224,-3.5985,-3.5622,-3.5622,-3.5622,-3.5622,-3.5622,-3.5622,-3.5622,-3.5622,-3.5622,-3.5622,-3.5622,-3.5622,-3.5622,-3.5622,-3.5622,-3.5622,-3.5622,-3.5622,-3.5622,-3.5622,-3.5622,-3.5622,-3.5622,-3.5622,-3.5622,-3.5622,-3.5622,-3.5622,-3.5622,-3.5622,-3.5622,-3.5622,-3.5622,-3.5577,-3.5577,-3.4894,-3.4576,-3.4528,-3.3182,-3.2547,-2.9758,-3.0811,-3.199,-3.201,-3.2638,-3.3313,-3.3586,-3.3808,-3.4012,-3.4311,-3.4445,-3.4534,-3.4617,-3.4943,-3.5251,-3.5287,-3.5397,-3.5526,-3.5603,-3.5545,-3.5526,-3.5545,-3.6488,0.0,0.0,0.0,0.0,-4.0783,-4.0928,-4.0936,-4.0804,-4.0871,-4.0896,-4.08,-4.0734,-4.07,-4.0696,-4.0581,-4.0489,-4.0489,-4.0489,-4.0489,-4.0489,-4.0489,-4.0489,-4.0489,-4.0213,-3.9901,-3.9576,-3.9238,-3.8933,-3.8707,-3.8707,-3.8707,-3.8707,-3.8707,-3.8707,-3.8707,-3.8707,-3.8707,-3.8707,-3.8707,-3.8578,-3.8465,-3.8658,-3.8083,-3.7379,-3.7433,-3.7058,-3.6522,-3.6011,-3.6028,-3.6054,-3.5694,-3.5622,-3.5622,-3.5622,-3.5622,-3.5622,-3.5622,-3.5622,-3.5622,-3.5622,-3.5622,-3.5622,-3.5622,-3.5622,-3.5622,-3.5622,-3.5622,-3.5622,-3.5622,-3.5622,-3.5622,-3.5622,-3.5622,-3.5622,-3.5622,-3.5622,-3.5622,-3.5622,-3.5622,-3.5622,-3.5622,-3.5622,-3.5622,-3.5622,-3.4941,-3.4576,-3.4576,-3.3235,-3.2586,-3.0973,-3.1943,-3.2949,-3.3013,-3.3296,-3.3698,-3.4123,-3.4068,-3.4043,-3.4427,-3.4445,-3.4423,-3.4492,-3.4832,-3.51,-3.5166,-3.5355,-3.5526,-3.5565,-3.5545,-3.5493,-3.5493,-3.6219,0.0,0.0,0.0,0.0,-4.0729,-4.0914,-4.0957,-4.0879,-4.0996,-4.1021,-4.0945,-4.0809,-4.0734,-4.0735,-4.0581,-4.0489,-4.0489,-4.0489,-4.0489,-4.0489,-4.0489,-4.0489,-4.0489,-4.0321,-4.0003,-3.9576,-3.9364,-3.9054,-3.8707,-3.8707,-3.8707,-3.8707,-3.8707,-3.8707,-3.8707,-3.8707,-3.8707,-3.8707,-3.8707,-3.8707,-3.8707,-3.8707,-3.835,-3.7825,-3.7542,-3.7173,-3.6764,-3.6054,-3.6028,-3.6028,-3.5694,-3.5622,-3.5622,-3.5622,-3.5622,-3.5622,-3.5622,-3.5622,-3.5622,-3.5622,-3.5622,-3.5622,-3.5622,-3.5622,-3.5622,-3.5622,-3.5622,-3.5622,-3.5622,-3.5622,-3.5622,-3.5622,-3.5622,-3.5622,-3.5622,-3.5622,-3.5622,-3.5622,-3.5622,-3.5622,-3.5622,-3.5622,-3.5622,-3.5622,-3.5161,-3.4941,-3.4941,-3.3836,-3.3198,-3.2256,-3.2459,-3.2777,-3.3606,-3.3522,-3.3382,-3.4056,-3.4176,-3.4338,-3.4925,-3.4832,-3.4734,-3.4981,0.0,-3.5088,-3.5088,-3.5304,-3.5493,-3.5493,-3.5493,-3.5493,0.0,0.0,0.0,0.0,0.0,0.0,-4.0562,0.0,-4.1001,-4.0994,-4.1113,-4.1197,-4.1198,-4.0937,-4.08,-4.0793,-4.06,-4.0489,-4.0489,-4.0489,-4.0489,-4.0489,-4.0489,-4.0489,-4.0489,-4.0489,-4.0119,-3.9542,-3.9542,-3.9149,-3.8579,-3.8615,-3.8634,-3.8652,-3.8689,-3.8707,-3.8707,-3.8707,-3.8707,-3.8707,-3.8707,-3.8707,-3.8707,-3.8707,-3.8332,-3.7946,-3.7859,-3.7193,-3.6498,-3.6374,-3.6011,-3.565,-3.5622,-3.5622,-3.5622,-3.5622,-3.5622,-3.5622,-3.5622,-3.5622,-3.5622,-3.5622,-3.5622,-3.5622,-3.5622,-3.5622,-3.5622,-3.5622,-3.5622,-3.5622,-3.5622,-3.5622,-3.5622,-3.5622,-3.5622,-3.5622,-3.5622,-3.5622,-3.5622,-3.5622,-3.5622,-3.5622,-3.5622,-3.5622,-3.5622,-3.5622,-3.5622,-3.5622,-3.5577,-3.4894,-3.4186,-3.296,-3.3189,-3.3504,-3.3734,-3.3734,-3.3725,-3.4123,-3.4043,-3.4012,-3.4379,-3.4213,-3.4037,-3.4136,-3.4508,0.0,-3.4793,-3.519,0.0,-3.5493,-3.5493,0.0,-3.5493,0.0,-3.6142,-3.6949,-3.7815,0.0,0.0,-4.0408,-4.0855,-4.0857,-4.1062,-4.1197,-4.1198,-4.0937,-4.08,-4.0793,-4.06,-4.0489,-4.0489,-4.0489,-4.0489,-4.0489,-4.0489,-4.0489,-4.0489,-4.0489,-3.9831,-3.8716,-3.8716,-3.7997,-3.6964,-3.7569,-3.7808,-3.7863,-3.8487,-3.8707,-3.8707,-3.8707,-3.8707,-3.8707,-3.8707,-3.8707,-3.8707,-3.8707,-3.8578,-3.835,-3.7596,-3.7738,-3.7756,-3.6207,-3.6291,-3.6603,-3.5766,-3.5622,-3.5622,-3.5622,-3.5622,-3.5622,-3.5622,-3.5622,-3.5622,-3.5622,-3.5622,-3.5622,-3.5622,-3.5622,-3.5622,-3.5622,-3.5622,-3.5622,-3.5622,-3.5622,-3.5622,-3.5622,-3.5622,-3.5622,-3.5622,-3.5622,-3.5622,-3.5622,-3.5622,-3.5622,-3.5622,-3.5622,-3.5622,-3.5622,-3.5622,-3.5622,-3.5577,-3.4399,-3.3786,-3.3437,-3.3494,-3.3578,-3.3762,-3.368,-3.3643,-3.4104,-3.3956,-3.3784,-3.4054,-3.3894,-3.3715,-3.3715,-3.4246,0.0,0.0,0.0,0.0,-3.5493,-3.5493,-3.5493,0.0,-3.5493,0.0,-3.6622,-3.7142,-3.795,0.0,-4.0196,-4.0758,-4.0805,-4.0994,-4.1147,-4.1202,-4.0993,-4.0848,-4.0754,-4.06,-4.0489,-4.0489,-4.0489,-4.0489,-4.0489,-4.0123,-3.9969,-3.995,0.0,-3.8872,-3.7997,-3.7872,-3.7285,-3.6528,-3.682,-3.6964,-3.7055,-3.7881,-3.8175,-3.8212,-3.8579,-3.8707,-3.8707,-3.8707,-3.8707,-3.8707,-3.8707,-3.8707,-3.8546,-3.7738,-3.7911,-3.7964,-3.6357,-3.6416,-3.6643,-3.581,-3.5622,-3.5622,-3.5622,-3.5622,-3.5622,-3.5622,-3.5622,-3.5622,-3.5622,-3.5622,-3.5622,-3.5622,-3.5622,-3.5622,-3.5622,-3.5622,-3.5622,-3.5622,-3.5622,-3.5622,-3.5622,-3.5622,-3.5622,-3.5622,-3.5622,-3.5622,-3.5622,-3.5622,-3.5622,-3.5622,-3.5622,-3.5622,-3.5622,-3.5622,-3.547,-3.5144,-3.4382,-3.3735,-3.3707,-3.355,-3.3361,-3.3707,-3.355,-3.3429,-3.4006,-3.3869,-3.371,-3.3931,0.0,-3.3623,-3.3623,-3.4209,-3.4694,-3.4694,0.0,-3.5493,-3.5493,-3.5493,-3.5493,-3.5493,-3.5493,-3.5776,-3.6469,-3.6642,-3.7373,-3.9008,-4.0004,-4.061,-4.0781,-4.0929,-4.1055,-4.1172,-4.1043,-4.0892,-4.0696,-4.0581,-4.045,-4.0335,-4.0335,-4.0277,-4.0142,-3.945,-3.9123,-3.9084,0.0,0.0,-3.7281,-3.7045,-3.6681,-3.6289,-3.6177,-3.6138,-3.6229,-3.7037,-3.7331,-3.7441,-3.8267,-3.8542,-3.856,-3.867,-3.8707,-3.8707,-3.8707,-3.8707,-3.8596,-3.7998,-3.7911,-3.7755,-3.6603,-3.6416,-3.6333,-3.5739,-3.5622,-3.5622,-3.5622,-3.5622,-3.5622,-3.5622,-3.5622,-3.5622,-3.5622,-3.5622,-3.5622,-3.5622,-3.5622,-3.5622,-3.5622,-3.5622,-3.5622,-3.5622,-3.5622,-3.5622,-3.5622,-3.5622,-3.5622,-3.5622,-3.5622,-3.5622,-3.5622,-3.5622,-3.5622,-3.5622,-3.5622,-3.5577,-3.547,-3.547,-3.5098,-3.4479,-3.4382,-3.3735,-3.3762,-3.3734,-3.3707,-3.3762,-3.3734,-3.3734,-3.3823,-3.3823,0.0,0.0,-3.3805,-3.377,-3.377,-3.4284,-3.4694,-3.4694,0.0,0.0,0.0,0.0,-3.5493,0.0,0.0,0.0,0.0,0.0,0.0,0.0,0.0,0.0,-4.0747,-4.093,-4.1016,-4.1035,-4.0902,-4.0796,-4.0696,-4.0581,-4.0162,-3.9508,-3.9508,-3.9123,-3.843,-3.8296,-3.8238,-3.8219,0.0,0.0,-3.6154,-3.6132,-3.5385,-3.4365,-3.4963,-3.521,-3.5349,-3.6193,-3.6505,-3.6615,-3.7422,-3.7698,-3.7808,-3.8487,-3.8707,-3.8707,-3.8707,-3.8707,-3.8515,-3.7596,-3.7929,-3.8135,-3.6249,-3.6416,-3.6825,-3.581,-3.5622,-3.5622,-3.5622,-3.5622,-3.5622,-3.5622,-3.5622,-3.5622,-3.5622,-3.5622,-3.5622,-3.5622,-3.5622,-3.5622,-3.5622,-3.5622,-3.5622,-3.5622,-3.5622,-3.5622,-3.5622,-3.5622,-3.5622,-3.5622,-3.5622,-3.5622,-3.5622,-3.5622,-3.5622,-3.5622,-3.5622,-3.5316,-3.4783,-3.4783,-3.4431,-3.3735,-3.3198,-3.2841,-3.3807,-3.3807,-3.3807,-3.3807,-3.3807,-3.3807,-3.3807,0.0,0.0,0.0,-3.3494,-3.3494,-3.3494,-3.4025,0.0,-3.4674,-3.5016,0.0,0.0,0.0,0.0,0.0,0.0,0.0,0.0,0.0,0.0,0.0,0.0,0.0,-4.0696,-4.0992,-4.1094,-4.1094,-4.0506,-4.016,-4.0134,-3.9503,-3.9008,-3.8623,-3.8623,-3.8392,-3.7988,-3.7526,-3.7315,-3.7296,0.0,0.0,-3.5458,-3.5321,-3.478,-3.4049,-3.4265,-3.4394,-3.4486,-3.5312,-3.5624,-3.5752,-3.6578,-3.7129,-3.7551,-3.7936,-3.8358,-3.8707,-3.8707,-3.8515,-3.8183,-3.7685,-3.7911,-3.7911,-3.6399,-3.6603,-3.6943,-3.5854,-3.5622,-3.5622,-3.5622,-3.5622,-3.5622,-3.5622,-3.5622,-3.5622,-3.5622,-3.5622,-3.5622,-3.5622,-3.5622,-3.5622,-3.5622,-3.5622,-3.5622,-3.5622,-3.5622,-3.5622,-3.5622,-3.5622,-3.5622,-3.5622,-3.5622,-3.5622,-3.5622,-3.5622,-3.5622,-3.5622,-3.5253,-3.4941,-3.4576,-3.4235,-3.3735,-3.3093,-3.2749,-3.2382,-3.3807,-3.3807,-3.3807,-3.3807,-3.3807,-3.3807,-3.3807,-3.355,0.0,-3.3332,-3.3332,-3.3332,-3.3332,-3.3854,-3.4401,0.0,-3.4963,-3.5273,0.0,0.0,0.0,0.0,0.0,0.0,0.0,0.0,0.0,0.0,0.0,0.0,0.0,-4.0505,-4.0644,-4.0644,-3.9793,-3.933,-3.9316,-3.8445,-3.7911,-3.7719,-3.7719,-3.7623,-3.745,-3.6757,-3.6449,-3.6411,0.0,0.0,0.0,-3.4793,-3.4464,-3.4074,-3.3876,-3.3807,-3.388,-3.4523,-3.4734,-3.489,-3.5734,-3.6431,-3.7019,-3.7367,-3.8028,-3.8707,-3.8707,-3.835,-3.7859,-3.779,-3.7755,-3.7542,-3.6481,-3.6643,-3.6803,-3.581,-3.5622,-3.5622,-3.5622,-3.5622,-3.5622,-3.5622,-3.5622,-3.5622,-3.5622,-3.5622,-3.5622,-3.5622,-3.5622,-3.5622,-3.5622,-3.5622,-3.5622,-3.5622,-3.5622,-3.5622,-3.5622,-3.5622,-3.5622,-3.5622,-3.5622,-3.5622,-3.5622,-3.5622,-3.5515,-3.5362,-3.4894,-3.4479,-3.4186,-3.3633,-3.3039,-3.2382,-3.2382,-3.2064,-3.3807,-3.3807,-3.3807,-3.3807,-3.3807,-3.3807,-3.3807,0.0,-3.3734,-3.3734,-3.3734,-3.3734,-3.3734,-3.4237,-3.4674,-3.4694,-3.5122,-3.546,-3.5493,0.0,0.0,0.0,0.0,0.0,0.0,0.0,0.0,0.0,0.0,0.0,0.0,-3.8759,-3.8848,-3.8848,-3.8632,-3.8468,-3.842,-3.8204,-3.7656,-3.6815,-3.6815,-3.6449,-3.5738,-3.5661,-3.5622,-3.5622,0.0,0.0,0.0,-3.4694,-3.4353,-3.3842,-3.3815,-3.3807,-3.3807,-3.388,-3.3917,-3.4027,-3.4853,-3.5155,-3.5495,-3.7,-3.8028,-3.8707,-3.8707,-3.835,-3.7825,-3.7396,-3.7248,-3.702,-3.5924,-3.6054,-3.6333,-3.5739,-3.5622,-3.5622,-3.5622,-3.5622,-3.5622,-3.5622,-3.5622,-3.5622,-3.5622,-3.5622,-3.5622,-3.5622,-3.5622,-3.5622,-3.5622,-3.5622,-3.5622,-3.5622,-3.5622,-3.5622,-3.5622,-3.5622,-3.5622,-3.5622,-3.5622,-3.5622,-3.5622,-3.5622,-3.5299,-3.4688,-3.4624,-3.3987,-3.2788,-3.2749,-3.2327,-3.1582,-3.1582,-3.1582,-3.3437,-3.3625,-3.3807,-3.3807,-3.3807,-3.3807,-3.3807,0.0,-3.3807,-3.3807,-3.3807,-3.3807,-3.3807,-3.4117,-3.4486,-3.4674,-3.5016,-3.5304,-3.5479,0.0,0.0,0.0,0.0,0.0,0.0,0.0,0.0,0.0,0.0,0.0,0.0,-3.7999,-3.8594,-3.8594,-3.8008,-3.763,-3.7521,-3.6897,-3.6392,-3.5988,-3.5988,-3.5815,-3.5493,-3.5493,-3.5493,-3.5493,0.0,0.0,0.0,-3.4694,-3.433,-3.3807,-3.3807,-3.3807,-3.3807,-3.3807,-3.3807,-3.3844,-3.4174,-3.4596,-3.51,-3.5789,-3.6578,-3.7441,-3.8414,-3.8135,-3.7433,-3.7248,-3.696,-3.6563,-3.5766,-3.5783,-3.5854,-3.5667,-3.5622,-3.5622,-3.5622,-3.5622,-3.5622,-3.5622,-3.5622,-3.5622,-3.5622,-3.5622,-3.5622,-3.5622,-3.5622,-3.5622,-3.5622,-3.5622,-3.5622,-3.5622,-3.5622,-3.5622,-3.5622,-3.5622,-3.5622,-3.5622,-3.5622,-3.5622,-3.5622,-3.5622,-3.547,-3.5207,-3.4399,-3.3735,-3.3182,-3.2367,-3.1796,-3.1482,-3.1482,-3.1482,-3.3214,-3.3494,-3.3807,-3.3807,-3.3807,-3.3807,0.0,0.0,-3.3807,-3.3807,-3.3807,-3.3807,-3.3807,-3.4093,-3.4423,-3.4653,-3.4981,-3.5289,-3.546,-3.5545,0.0,0.0,0.0,0.0,0.0,0.0,0.0,0.0,0.0,0.0,0.0,-3.7164,-3.7832,-3.7832,-3.7187,-3.6765,-3.6631,-3.5971,-3.5603,-3.5493,-3.5493,-3.5493,-3.5493,-3.5493,-3.5493,0.0,0.0,0.0,0.0,-3.4694,-3.433,-3.3807,-3.3807,-3.3807,-3.3807,-3.3807,-3.3807,-3.3807,-3.3807,-3.4174,-3.466,-3.4917,-3.5337,-3.601,-3.7539,-3.744,-3.6872,-3.712,-3.6684,-3.6054,-3.5694,-3.5622,-3.5622,-3.5622,-3.5622,-3.5622,-3.5622,-3.5622,-3.5622,-3.5622,-3.5622,-3.5622,-3.5622,-3.5622,-3.5622,-3.5622,-3.5622,-3.5622,-3.5622,-3.5622,-3.5622,-3.5622,-3.5622,-3.5622,-3.5622,-3.5622,-3.5622,-3.5622,-3.5622,-3.5622,-3.5622,-3.5622,-3.5515,-3.5316,-3.4399,-3.3684,-3.3287,-3.2312,-3.1682,-3.1482,-3.1482,-3.1482,-3.3214,-3.3494,-3.3807,-3.3807,-3.3807,-3.3807,0.0,-3.3807,-3.3807,-3.3807,-3.3807,-3.3807,-3.3807,-3.4302,-3.4713,-3.4694,-3.5138,-3.5493,-3.5493,-3.5493,0.0,0.0,0.0,0.0,0.0,0.0,0.0,0.0,0.0,0.0,0.0,0.0,-3.6035,-3.6035,-3.6016,-3.5923,-3.573,-3.5689,-3.5641,-3.5493,-3.5493,-3.5493,-3.5493,-3.5493,0.0,0.0,0.0,0.0,0.0,-3.4694,-3.433,-3.3807,-3.3807,-3.3807,-3.3807,-3.3807,-3.3807,-3.3807,-3.3807,-3.3807,-3.3935,-3.4734,-3.4743,-3.4648,-3.593,-3.6125,-3.6109,-3.696,-3.644,-3.5622,-3.5622,-3.5622,-3.5622,-3.5622,-3.5622,-3.5622,-3.5622,-3.5622,-3.5622,-3.5622,-3.5622,-3.5622,-3.5622,-3.5622,-3.5622,-3.5622,-3.5622,-3.5622,-3.5622,-3.5622,-3.5622,-3.5622,-3.5622,-3.5622,-3.5622,-3.5622,-3.5622,-3.5622,-3.5622,-3.5622,-3.5622,-3.5622,-3.5316,-3.4624,-3.4592,-3.3937,-3.2586,-3.2602,-3.2216,-3.1482,-3.1482,-3.1482,-3.2264,-3.2565,-3.2996,-3.3302,-3.339,-3.3465,-3.3734,-3.3807,-3.3807,-3.3807,-3.3807,-3.3868,-3.4043,-3.442,-3.4754,-3.4944,-3.5273,-3.5526,0.0,0.0,0.0,0.0,0.0,0.0,0.0,0.0,0.0,0.0,0.0,0.0,0.0,0.0,-3.5996,-3.5996,-3.5996,-3.5903,-3.571,-3.5689,-3.5641,-3.5493,-3.5493,-3.5493,-3.5493,-3.5493,0.0,0.0,0.0,0.0,0.0,-3.4694,-3.433,-3.3807,-3.3807,-3.3807,-3.3807,-3.3807,-3.3807,-3.3807,-3.3807,-3.3807,-3.3844,-3.41,-3.4092,-3.4182,-3.5109,-3.546,-3.5571,-3.5983,-3.5854,-3.5622,-3.5622,-3.5622,-3.5622,-3.5622,-3.5622,-3.5622,-3.5622,-3.5622,-3.5622,-3.5622,-3.5622,-3.5622,-3.5622,-3.5622,-3.5622,-3.5622,-3.5622,-3.5622,-3.5622,-3.5622,-3.5622,-3.5622,-3.5622,-3.5622,-3.5622,-3.5622,-3.5622,-3.5622,-3.5622,-3.5622,-3.5622,-3.5622,-3.5515,-3.5316,-3.483,-3.4382,-3.3987,-3.3039,-3.2216,-3.1482,-3.1482,-3.1482,-3.1752,-3.2127,-3.2616,-3.3075,-3.3214,0.0,0.0,-3.3807,-3.3807,-3.3807,-3.3807,-3.3876,-3.4147,-3.4467,-3.4793,-3.507,-3.5358,0.0,0.0,0.0,0.0,0.0,0.0,0.0,0.0,0.0,0.0,0.0,0.0,0.0,0.0,0.0,-3.5996,-3.5996,-3.5996,-3.5932,-3.5786,-3.5725,-3.5661,-3.5545,-3.5526,-3.5493,-3.5493,0.0,0.0,0.0,0.0,0.0,0.0,-3.4694,-3.433,-3.3807,-3.3807,-3.3807,-3.3807,-3.3807,-3.3807,-3.378,-3.3625,-3.368,-3.3734,-3.3419,-3.3419,-3.3621,-3.3898,-3.4712,-3.5461,-3.5248,-3.5402,-3.5622,-3.5622,-3.5622,-3.5622,-3.5622,-3.5622,-3.5622,-3.5622,-3.5622,-3.5622,-3.5622,-3.5622,-3.5622,-3.5622,-3.5622,-3.5622,-3.5622,-3.5622,-3.5622,-3.5622,-3.5622,-3.5622,-3.5622,-3.5622,-3.5622,-3.5622,-3.5622,-3.5622,-3.5622,-3.5622,-3.5622,-3.5622,-3.5622,-3.5622,-3.5622,-3.5207,-3.4847,-3.4576,-3.3235,-3.2216,-3.1482,-3.1482,-3.1482,0.0,-3.2109,-3.2517,-3.3014,-3.3154,-3.3273,-3.3707,-3.3807,0.0,-3.3807,-3.3815,-3.3902,-3.4195,-3.4508,-3.4812,-3.5088,-3.5411,0.0,0.0,0.0,0.0,0.0,0.0,0.0,0.0,0.0,0.0,0.0,0.0,0.0,0.0,0.0,0.0,-3.5996,-3.5996,-3.5976,-3.5898,-3.5782,-3.5676,-3.5603,-3.5545,-3.5493,-3.5493,0.0,0.0,0.0,0.0,0.0,0.0,-3.4694,-3.433,-3.3807,-3.3807,-3.3807,-3.3807,-3.3807,-3.3807,-3.3734,-3.3332,-3.3465,-3.3662,-3.284,-3.2809,-3.3046,-3.2445,-3.3865,-3.5568,-3.4721,-3.4996,-3.5554,-3.5605,-3.5622,-3.5622,-3.5622,-3.5622,-3.5622,-3.5622,-3.5622,-3.5622,-3.5622,-3.5622,-3.5622,-3.5622,-3.5622,-3.5622,-3.5622,-3.5622,-3.5622,-3.5622,-3.5622,-3.5622,-3.5622,-3.5622,-3.5622,-3.5622,-3.5622,-3.5622,-3.5622,-3.5622,-3.5622,-3.5622,-3.5622,-3.5622,-3.5622,-3.5622,-3.5253,-3.4576,-3.3287,-3.2327,-3.164,-3.1582,-3.1582,-3.1696,0.0,-3.1694,-3.2484,-3.2648,-3.2872,0.0,-3.3807,-3.3807,-3.3807,-3.3961,-3.4195,-3.4529,-3.4868,-3.5169,-3.5431,0.0,0.0,0.0,0.0,0.0,0.0,0.0,0.0,0.0,0.0,0.0,0.0,0.0,0.0,0.0,0.0,0.0,-3.5996,-3.5996,-3.5976,-3.5898,-3.5864,-3.5762,-3.5603,-3.5584,-3.5565,-3.5493,0.0,0.0,0.0,0.0,0.0,-3.4694,-3.4694,-3.433,-3.3807,-3.3807,-3.3807,-3.3807,-3.3807,-3.3807,-3.3734,-3.3332,-3.3465,-3.3707,-3.3196,-3.289,-3.2586,-3.2121,-3.2981,-3.4197,-3.443,-3.4624,-3.4895,-3.547,-3.5622,-3.5622,-3.5622,-3.5622,-3.5622,-3.5622,-3.5622,-3.5622,-3.5622,-3.5622,-3.5622,-3.5622,-3.5622,-3.5622,-3.5622,-3.5622,-3.5622,-3.5622,-3.5622,-3.5622,-3.5622,-3.5622,-3.5622,-3.5622,-3.5622,-3.5622,-3.5622,-3.5622,-3.5622,-3.5622,-3.5622,-3.5622,-3.5622,-3.5622,-3.5253,-3.4576,-3.3786,-3.3287,-3.3077,-3.2571,-3.2327,-3.1696,-3.1623,-3.1677,-3.2583,-3.2809,-3.2996,-3.3634,-3.3807,-3.3842,-3.3961,-3.4099,-3.4353,-3.483,0.0,0.0,0.0,0.0,0.0,0.0,0.0,0.0,0.0,0.0,0.0,0.0,0.0,0.0,0.0,0.0,0.0,0.0,0.0,0.0,0.0,-3.5996,-3.5976,-3.5957,-3.5918,-3.5802,-3.5648,-3.5624,-3.5565,-3.5493,0.0,0.0,0.0,0.0,0.0,-3.4694,-3.4694,-3.442,-3.3961,-3.3842,-3.3807,-3.3807,-3.3807,-3.3807,-3.3707,-3.3105,-3.2777,-3.2631,-3.2809,-3.2583,-3.2144,-3.1711,-3.2137,-3.2894,-3.3366,-3.3964,-3.459,-3.4996,-3.5368,-3.5622,-3.5622,-3.5622,-3.5622,-3.5622,-3.5622,-3.5622,-3.5622,-3.5622,-3.5622,-3.5622,-3.5622,-3.5622,-3.5622,-3.5622,-3.5622,-3.5622,-3.5622,-3.5622,-3.5622,-3.5622,-3.5622,-3.5622,-3.5622,-3.5622,-3.5622,-3.5622,-3.5622,-3.5622,-3.5622,-3.5622,-3.5622,-3.5622,-3.5115,-3.4137,-3.3786,-3.3443,-3.3145,-3.2803,-3.2734,-3.177,-3.1933,-3.2161,-3.2996,-3.3214,-3.3332,-3.377,-3.385,-3.3954,-3.4218,-3.4292,-3.4526,-3.5078,-3.5291,0.0,0.0,0.0,0.0,0.0,0.0,0.0,0.0,0.0,0.0,0.0,0.0,0.0,0.0,0.0,0.0,0.0,0.0,0.0,0.0,-3.5996,-3.5996,-3.5996,-3.5937,-3.5845,-3.5703,-3.5651,-3.5584,-3.5493,-3.5493,0.0,0.0,0.0,0.0,-3.4614,-3.4614,-3.4423,-3.4123,-3.3876,-3.3807,-3.3807,-3.3807,-3.3807,-3.368,-3.2872,-3.1986,-3.1329,-3.2109,-3.2127,-3.1728,-3.1329,-3.1449,-3.176,-3.2038,-3.3102,-3.4184,-3.4303,-3.4878,-3.5453,-3.5453,-3.5537,-3.5622,-3.5622,-3.5622,-3.5622,-3.5622,-3.5622,-3.5622,-3.5622,-3.5622,-3.5622,-3.5622,-3.5622,-3.5622,-3.5622,-3.5622,-3.5622,-3.5622,-3.5622,-3.5622,-3.5622,-3.5622,-3.5622,-3.5622,-3.5622,-3.5622,-3.5622,-3.5622,-3.5622,-3.5622,-3.5515,-3.4958,-3.3887,-3.3684,-3.3339,-3.2895,-3.2895,-3.3093,-3.2196,-3.2556,-3.2798,-3.313,-3.3214,-3.3354,-3.4,-3.4147,-3.4242,-3.4551,-3.4813,-3.5019,-3.5171,-3.6029,-3.6764,0.0,0.0,0.0,0.0,0.0,0.0,0.0,0.0,0.0,0.0,0.0,0.0,0.0,0.0,0.0,0.0,0.0,0.0,0.0,0.0,-3.5996,-3.5996,-3.5996,-3.5884,-3.5703,-3.5689,-3.5622,-3.5493,-3.5493,-3.5354,0.0,0.0,-3.4832,-3.4288,-3.4288,-3.4117,-3.3868,-3.3815,-3.3807,-3.3807,-3.3807,-3.3807,-3.3734,-3.3273,-3.2248,-3.1291,-3.177,-3.164,-3.1291,-3.123,-3.1252,-3.1308,-3.1365,-3.1968,-3.2763,-3.3406,-3.4117,-3.4675,-3.4675,-3.5165,-3.5622,-3.5622,-3.5622,-3.5622,-3.5622,-3.5622,-3.5622,-3.5622,-3.5622,-3.5622,-3.5622,-3.5622,-3.5622,-3.5622,-3.5622,-3.5622,-3.5622,-3.5622,-3.5622,-3.5622,-3.5622,-3.5622,-3.5622,-3.5622,-3.5622,-3.5622,-3.5622,-3.5622,-3.5622,-3.5052,-3.4941,-3.527,-3.4153,-3.3836,-3.4284,-3.4284,-3.3735,-3.2316,-3.2787,-3.3176,-3.3625,-3.388,-3.4086,-3.4401,-3.4467,-3.4572,-3.4851,-3.5417,-3.5772,0.0,0.0,0.0,0.0,0.0,0.0,0.0,0.0,0.0,0.0,0.0,0.0,0.0,0.0,0.0,0.0,0.0,0.0,0.0,0.0,0.0,0.0,0.0,0.0,-3.5996,-3.5996,-3.5934,-3.5809,-3.5727,-3.5661,-3.5565,-3.5526,-3.5354,-3.5105,0.0,-3.487,-3.4464,-3.4269,-3.4123,-3.3993,-3.3868,-3.3807,-3.3807,-3.3807,-3.3504,-3.3105,-3.3184,-3.2316,-3.1269,-3.166,-3.1545,-3.119,-3.119,-3.119,-3.119,-3.119,-3.1715,-3.2357,-3.2713,-3.3355,-3.4015,-3.4404,-3.4759,-3.5115,-3.5537,-3.5622,-3.5622,-3.5622,-3.5622,-3.5622,-3.5622,-3.5622,-3.5622,-3.5622,-3.5622,-3.5622,-3.5622,-3.5622,-3.5622,-3.5622,-3.5622,-3.5622,-3.5622,-3.5622,-3.5622,-3.5622,-3.5622,-3.5622,-3.5622,-3.5622,-3.5622,-3.5622,-3.5316,-3.4958,-3.4512,-3.3887,-3.3582,-3.3547,-3.3547,-3.3582,-3.2517,-3.2978,-3.3478,-3.4152,-3.4445,-3.4614,-3.4754,-3.4793,-3.487,-3.5138,-3.5766,-3.623,0.0,0.0,0.0,0.0,0.0,0.0,0.0,0.0,0.0,0.0,0.0,0.0,0.0,0.0,0.0,0.0,0.0,0.0,0.0,0.0,0.0,0.0,0.0,0.0,-3.5996,-3.5996,-3.5976,-3.5898,-3.576,-3.5663,-3.5603,-3.5545,-3.5354,-3.5105,-3.5016,-3.4851,-3.4551,-3.4242,-3.4099,-3.4093,-3.3876,-3.3807,-3.3807,-3.3807,-3.3255,-3.255,-3.2921,-3.2213,-3.1252,-3.1565,-3.1449,-3.119,-3.119,-3.119,-3.119,-3.119,-3.1596,-3.2019,-3.2019,-3.2577,-3.3271,-3.3846,-3.4235,-3.4641,-3.5233,-3.5504,-3.5622,-3.5622,-3.5622,-3.5622,-3.5622,-3.5622,-3.5622,-3.5622,-3.5622,-3.5622,-3.5622,-3.5622,-3.5622,-3.5622,-3.5622,-3.5622,-3.5622,-3.5622,-3.5622,-3.5622,-3.5622,-3.5622,-3.5622,-3.5622,-3.5622,-3.5622,-3.547,-3.4958,-3.4053,-3.3735,-3.3443,-3.3093,-3.3093,-3.3531,-3.2903,-3.3356,-3.3736,-3.4489,-3.4464,-3.4383,-3.4944,-3.507,-3.5157,-3.5417,-3.5575,-3.5926,0.0,0.0,0.0,0.0,0.0,0.0,0.0,0.0,0.0,0.0,0.0,0.0,0.0,0.0,0.0,0.0,0.0,0.0,0.0,0.0,0.0,0.0,0.0,0.0,-3.5996,-3.5996,-3.5976,-3.5898,-3.5768,-3.565,-3.5603,-3.5545,-3.5354,-3.5088,-3.4851,-3.4551,-3.42,-3.3935,-3.3815,-3.3815,-3.3807,-3.3807,-3.3807,-3.3807,-3.3255,-3.2517,-3.255,-3.1967,-3.119,-3.123,-3.123,-3.119,-3.119,-3.119,-3.119,-3.119,-3.1241,-3.1275,-3.1275,-3.1816,-3.2374,-3.2425,-3.3491,-3.4506,-3.4556,-3.5131,-3.5622,-3.5622,-3.5622,-3.5622,-3.5622,-3.5622,-3.5622,-3.5622,-3.5622,-3.5622,-3.5622,-3.5622,-3.5622,-3.5622,-3.5622,-3.5622,-3.5622,-3.5622,-3.5622,-3.5622,-3.5622,-3.5622,-3.5622,-3.5622,-3.5622,-3.5622,-3.5005,-3.4941,-3.547,-3.4202,-3.3887,-3.4431,-3.4431,-3.4186,-3.3105,-3.357,-3.4091,-3.4572,-3.4715,-3.4851,-3.5254,-3.5373,-3.5595,-3.6238,-3.6496,0.0,0.0,0.0,0.0,0.0,0.0,0.0,0.0,0.0,0.0,0.0,0.0,0.0,0.0,0.0,0.0,0.0,0.0,0.0,0.0,0.0,0.0,0.0,0.0,0.0,0.0,-3.5996,-3.5971,-3.5899,-3.576,-3.5688,-3.5661,-3.5565,-3.5446,-3.532,-3.4889,-3.4632,-3.4486,-3.4005,-3.3807,-3.3807,-3.3807,-3.3807,-3.3807,-3.3807,-3.3255,-3.2484,-3.2484,-3.1932,-3.119,-3.119,-3.119,-3.119,-3.119,-3.119,-3.119,-3.119,-3.119,-3.119,-3.119,-3.1393,-3.1715,-3.2171,-3.2713,-3.3254,-3.3711,-3.4404,-3.4912,-3.4912,-3.5301,-3.5622,-3.5622,-3.5622,-3.5622,-3.5622,-3.5622,-3.5622,-3.5622,-3.5622,-3.5622,-3.5622,-3.5622,-3.5622,-3.5622,-3.5622,-3.5622,-3.5622,-3.5622,-3.5622,-3.5622,-3.5622,-3.5622,-3.5622,-3.5362,-3.5144,-3.4988,-3.4479,-3.4137,-3.3987,-3.3987,-3.4087,-3.3478,-3.3931,-3.4423,-3.4754,-3.4963,-3.5174,-3.5484,-3.5584,-3.5765,-3.6393,-3.709,-3.7691,-3.8118,0.0,0.0,0.0,0.0,0.0,0.0,0.0,0.0,0.0,0.0,0.0,0.0,0.0,0.0,0.0,0.0,0.0,0.0,0.0,0.0,0.0,0.0,0.0,0.0,-3.5996,-3.5973,-3.5905,-3.5514,-3.531,-3.5257,-3.5161,-3.4968,-3.4653,-3.4217,-3.396,-3.3862,-3.3375,-3.3261,-3.3458,-3.3697,-3.3807,-3.3807,-3.3807,-3.3255,-3.2484,-3.2484,-3.1932,-3.119,-3.119,-3.119,-3.119,-3.119,-3.119,-3.119,-3.119,-3.119,-3.119,-3.119,-3.119,-3.1326,-3.1816,-3.2121,-3.2425,-3.2933,-3.3626,-3.4218,-3.4438,-3.4912,-3.5351,-3.5571,-3.5622,-3.5622,-3.5622,-3.5622,-3.5622,-3.5622,-3.5622,-3.5622,-3.5622,-3.5622,-3.5622,-3.5622,-3.5622,-3.5622,-3.5622,-3.5622,-3.5622,-3.5622,-3.5622,-3.5622,-3.5622,-3.5622,-3.5362,-3.4894,-3.4688,-3.4479,-3.4252,-3.3987,-3.4284,-3.4086,-3.4464,-3.4754,-3.5016,-3.5105,-3.5174,-3.5542,-3.5603,-3.563,-3.5706,-3.7161,-3.8178,-3.7454,0.0,0.0,0.0,0.0,0.0,0.0,0.0,0.0,0.0,0.0,0.0,0.0,0.0,0.0,0.0,0.0,0.0,0.0,0.0,0.0,0.0,0.0,0.0,0.0,-3.5996,-3.5973,-3.5886,-3.495,-3.443,-3.4308,-3.4289,-3.3776,-3.2878,-3.2607,-3.2381,-3.2166,-3.1923,-3.2112,-3.2687,-3.3476,-3.3788,-3.3807,-3.3807,-3.3255,-3.2484,-3.2484,-3.1932,-3.119,-3.119,-3.119,-3.119,-3.119,-3.119,-3.119,-3.119,-3.119,-3.119,-3.119,-3.119,-3.119,-3.119,-3.1749,-3.2313,-3.2313,-3.2865,-3.3609,-3.4336,-3.4472,-3.4726,-3.547,-3.5605,-3.5605,-3.5622,-3.5622,-3.5622,-3.5622,-3.5622,-3.5622,-3.5622,-3.5622,-3.5622,-3.5622,-3.5622,-3.5622,-3.5622,-3.5622,-3.5622,-3.5622,-3.5622,-3.5622,-3.5622,-3.5622,-3.5622,-3.5622,-3.4941,-3.4941,-3.5577,-3.4941,-3.4941,-3.4176,-3.4595,-3.5,-3.5132,0.0,-3.5513,-3.5762,-3.6195,-3.6635,-3.6791,-3.7747,-3.8466,-3.8241,0.0,0.0,0.0,0.0,0.0,0.0,0.0,0.0,0.0,0.0,0.0,0.0,0.0,0.0,0.0,0.0,0.0,0.0,0.0,0.0,0.0,0.0,0.0,0.0,0.0,-3.5873,-3.5745,-3.4905,-3.443,-3.4289,-3.3622,-3.316,-3.2878,-3.2466,-3.2259,-3.2166,-3.1704,-3.1937,-3.2632,-3.2871,-3.3311,-3.3807,-3.3807,-3.3255,-3.2484,-3.2484,-3.1932,-3.119,-3.119,-3.119,-3.119,-3.119,-3.119,-3.119,-3.119,-3.119,-3.119,-3.119,-3.119,-3.119,-3.119,-3.136,-3.1512,-3.1512,-3.2104,-3.2679,-3.2899,-3.3355,-3.3964,-3.4692,-3.4827,-3.5013,-3.5537,-3.5622,-3.5622,-3.5622,-3.5622,-3.5622,-3.5622,-3.5622,-3.5622,-3.5622,-3.5622,-3.5622,-3.5622,-3.5622,-3.5622,-3.5622,-3.5622,-3.5622,-3.5622,-3.5622,-3.5622,-3.5622,-3.5407,-3.5407,-3.5577,-3.5424,-3.5161,-3.4532,-3.4888,-3.5277,-3.534,-3.5488,-3.5738,-3.629,0.0,0.0,0.0,-3.7988,-3.8594,0.0,0.0,0.0,0.0,0.0,0.0,0.0,0.0,0.0,0.0,0.0,0.0,0.0,0.0,0.0,0.0,0.0,0.0,0.0,0.0,0.0,0.0,0.0,0.0,0.0,0.0,0.0,-3.565,-3.4496,-3.3878,-3.3699,-3.2846,-3.2269,-3.1885,-3.1412,-3.1148,-3.109,-3.0974,-3.1219,-3.1678,-3.2008,-3.2535,-3.3104,-3.3258,-3.2847,-3.223,-3.2451,-3.1932,-3.119,-3.119,-3.119,-3.119,-3.119,-3.119,-3.119,-3.119,-3.119,-3.119,-3.119,-3.119,-3.119,-3.119,-3.119,-3.119,-3.119,-3.1546,-3.1935,-3.2222,-3.2645,-3.3203,-3.3931,-3.4303,-3.4641,-3.5115,-3.5419,-3.5622,-3.5622,-3.5622,-3.5622,-3.5622,-3.5622,-3.5622,-3.5622,-3.5622,-3.5622,-3.5622,-3.5622,-3.5622,-3.5622,-3.5622,-3.5622,-3.5622,-3.5622,-3.5622,-3.5622,-3.5622,-3.5622,-3.5622,-3.5622,-3.5362,-3.5035,-3.5308,-3.5545,-3.5622,-3.5641,0.0,-3.6862,-3.6515,-3.6269,-3.7226,0.0,0.0,0.0,0.0,0.0,0.0,0.0,0.0,0.0,0.0,0.0,0.0,0.0,0.0,0.0,0.0,0.0,0.0,0.0,0.0,0.0,0.0,0.0,0.0,0.0,0.0,0.0,0.0,0.0,0.0,-3.3885,-3.3019,-3.2872,-3.205,-3.1179,-3.0299,-2.988,-2.957,-2.9407,-2.9904,-3.0136,-3.0265,-3.0999,-3.1545,-3.1949,-3.2446,-3.2229,-3.1793,-3.2315,-3.1932,-3.119,-3.119,-3.119,-3.119,-3.119,-3.119,-3.119,-3.119,-3.119,-3.119,-3.119,-3.119,-3.119,-3.119,-3.119,-3.119,-3.119,-3.119,-3.1393,-3.2053,-3.2188,-3.2408,-3.3169,-3.3863,-3.4336,-3.4472,-3.5081,-3.5537,-3.5605,-3.5622,-3.5622,-3.5622,-3.5622,-3.5622,-3.5622,-3.5622,-3.5622,-3.5622,-3.5622,-3.5622,-3.5622,-3.5622,-3.5622,-3.5622,-3.5622,-3.5622,-3.5622,-3.5622,-3.5622,-3.5622,-3.5622,-3.5577,-3.5152,-3.5411,0.0,-3.5815,-3.5872,-3.5982,-3.6213,-3.6125,-3.6445,-3.8008,0.0,0.0,0.0,0.0,0.0,0.0,0.0,0.0,0.0,0.0,0.0,0.0,0.0,0.0,0.0,0.0,0.0,0.0,0.0,0.0,0.0,0.0,0.0,0.0,0.0,0.0,-3.5738,-3.5663,-3.5612,0.0,-3.3795,-3.2929,-3.2852,-3.1371,-3.0387,-2.9848,-2.9748,-2.9475,-2.9085,-2.9223,-2.9641,-3.0228,-3.0393,-3.0742,-3.1255,-3.2245,-3.187,-3.1081,-3.2139,-3.1932,-3.119,-3.119,-3.119,-3.119,-3.119,-3.119,-3.119,-3.119,-3.119,-3.119,-3.119,-3.119,-3.119,-3.119,-3.119,-3.119,-3.119,-3.119,-3.1241,-3.1393,-3.1427,-3.1664,-3.2391,-3.2645,-3.3152,-3.432,-3.4624,-3.4945,-3.5537,-3.5622,-3.5622,-3.5622,-3.5622,-3.5622,-3.5622,-3.5622,-3.5622,-3.5622,-3.5622,-3.5622,-3.5622,-3.5622,-3.5622,-3.5622,-3.5622,-3.5622,-3.5622,-3.5622,-3.5622,-3.5622,-3.5622,-3.5316,-3.5359,-3.5522,0.0,-3.5853,0.0,-3.6001,-3.6001,-3.6313,-3.6992,0.0,0.0,0.0,0.0,0.0,0.0,0.0,0.0,0.0,0.0,0.0,0.0,0.0,0.0,0.0,0.0,0.0,0.0,0.0,0.0,0.0,0.0,0.0,0.0,0.0,0.0,0.0,-3.5661,-3.5603,-3.5565,-3.5526,-3.3757,-3.2487,-3.1679,-3.0814,-3.0142,-2.9696,-2.9696,-2.9436,-2.8994,-2.8994,-2.9255,-2.9641,-2.9641,-2.9784,-3.0102,-3.0876,-3.0848,-3.0537,-3.1341,-3.144,-3.119,-3.119,-3.119,-3.119,-3.119,-3.119,-3.119,-3.119,-3.119,-3.119,-3.119,-3.119,-3.119,-3.119,-3.119,-3.119,-3.119,-3.119,-3.119,-3.119,-3.119,-3.1309,-3.1698,-3.2053,-3.2662,-3.3795,-3.4269,-3.4641,-3.503,-3.5402,-3.5622,-3.5622,-3.5622,-3.5622,-3.5622,-3.5622,-3.5622,-3.5622,-3.5622,-3.5622,-3.5622,-3.5622,-3.5622,-3.5622,-3.5622,-3.5622,-3.5622,-3.5622,-3.5622,-3.5622,-3.5622,-3.5407,-3.5523,-3.5624,-3.5701,-3.5875,-3.5961,0.0,-3.5996,-3.668,-3.7559,0.0,0.0,0.0,0.0,0.0,0.0,0.0,0.0,0.0,0.0,0.0,0.0,0.0,0.0,0.0,0.0,0.0,0.0,0.0,0.0,0.0,0.0,0.0,0.0,0.0,0.0,-3.5603,-3.5584,-3.5545,-3.5493,-3.5474,-3.3737,-3.2025,-3.0398,-3.0398,-3.0142,-2.9696,-2.9696,-2.9436,-2.8994,-2.8994,-2.8994,-2.8994,-2.8994,-2.8931,-2.8865,-2.9386,-2.9673,-2.9867,-3.0507,-3.0881,-3.1121,-3.1196,-3.119,-3.119,-3.119,-3.119,-3.119,-3.119,-3.119,-3.119,-3.119,-3.119,-3.119,-3.119,-3.119,-3.119,-3.119,-3.119,-3.119,-3.119,-3.119,-3.119,-3.119,-3.1698,-3.2341,-3.3102,-3.3728,-3.4201,-3.4455,-3.503,-3.547,-3.5605,-3.5622,-3.5622,-3.5622,-3.5622,-3.5622,-3.5622,-3.5622,-3.5622,-3.5622,-3.5622,-3.5622,-3.5622,-3.5622,-3.5622,-3.5622,-3.5622,-3.5622,-3.5622,-3.5622,-3.5622,-3.5589,0.0,-3.5888,0.0,-3.5994,-3.5996,0.0,0.0,0.0,0.0,0.0,0.0,0.0,0.0,0.0,0.0,0.0,0.0,0.0,0.0,0.0,0.0,0.0,0.0,0.0,0.0,0.0,0.0,0.0,0.0,0.0,0.0,-3.5578,-3.5534,-3.5572,0.0,-3.5526,-3.5493,-3.5493,-3.5474,-3.3737,-3.2025,-3.0398,-3.0398,-3.0142,-2.9696,-2.9696,-2.9436,-2.8994,-2.8994,-2.8994,-2.8994,-2.8994,-2.8605,-2.8184,-2.9233,-2.9195,-2.8816,-3.0231,-3.0698,-3.0745,-3.107,-3.119,-3.119,-3.119,-3.119,-3.119,-3.119,-3.119,-3.119,-3.119,-3.119,-3.119,-3.119,-3.119,-3.119,-3.119,-3.119,-3.119,-3.119,-3.119,-3.119,-3.119,-3.1275,-3.1596,-3.2324,-3.251,-3.3051,-3.4336,-3.4573,-3.4895,-3.5554,-3.5622,-3.5622,-3.5622,-3.5622,-3.5622,-3.5622,-3.5622,-3.5622,-3.5622,-3.5622,-3.5622,-3.5622,-3.5622,-3.5622,-3.5622,-3.5622,-3.5622,-3.5622,-3.5622,-3.5622,-3.5641,-3.5774,-3.5918,0.0,-3.5996,-3.5996,-3.5996,0.0,0.0,0.0,0.0,0.0,0.0,0.0,0.0,0.0,0.0,0.0,0.0,0.0,0.0,0.0,0.0,0.0,0.0,0.0,0.0,0.0,0.0,0.0,0.0,-3.5545,-3.5545,-3.5493,-3.5545,0.0,-3.5493,-3.5493,-3.5257,-3.4757,-3.3506,-3.2275,-3.1121,-3.0609,-3.0142,-2.9696,-2.9696,-2.9436,-2.8994,-2.8994,-2.8994,-2.8994,-2.8994,-2.8676,-2.8219,-2.8532,-2.8687,-2.8841,-2.9506,-3.0108,-3.0679,-3.1074,-3.119,-3.119,-3.119,-3.119,-3.119,-3.119,-3.119,-3.119,-3.119,-3.119,-3.119,-3.119,-3.119,-3.119,-3.119,-3.119,-3.119,-3.119,-3.119,-3.119,-3.119,-3.119,-3.1309,-3.1613,-3.2019,-3.251,-3.3169,-3.3626,-3.4167,-3.4912,-3.4979,-3.5165,-3.5588,-3.5622,-3.5622,-3.5622,-3.5622,-3.5622,-3.5622,-3.5622,-3.5622,-3.5622,-3.5622,-3.5622,-3.5622,-3.5622,-3.5622,-3.5622,-3.5622,-3.5407,0.0,0.0,-3.5873,-3.5976,-3.5996,-3.5996,0.0,0.0,0.0,0.0,0.0,0.0,0.0,0.0,0.0,0.0,0.0,0.0,0.0,0.0,0.0,0.0,0.0,0.0,0.0,0.0,0.0,0.0,0.0,0.0,-3.5493,-3.5493,-3.5493,-3.5493,-3.5493,-3.5493,-3.5493,-3.5493,-3.5064,-3.418,-3.3314,-3.2487,-3.1679,-3.0814,-3.0142,-2.9696,-2.9696,-2.9475,-2.9089,-2.904,-2.8994,-2.8994,-2.8994,-2.8749,-2.8368,-2.802,-2.8251,-2.8735,-2.8836,-2.9385,-3.0127,-3.0813,-3.0963,-3.0954,-3.114,-3.119,-3.119,-3.119,-3.119,-3.119,-3.119,-3.119,-3.119,-3.119,-3.119,-3.119,-3.119,-3.119,-3.119,-3.119,-3.119,-3.119,-3.119,-3.119,-3.119,-3.119,-3.1664,-3.211,-3.2256,-3.278,-3.3406,-3.4134,-3.4218,-3.4523,-3.5267,-3.5334,-3.5419,-3.5605,-3.5622,-3.5622,-3.5622,-3.5622,-3.5622,-3.5622,-3.5622,-3.5622,-3.5622,-3.5622,-3.5622,-3.5577,-3.5424,-3.5098,0.0,-3.5718,0.0,-3.5954,-3.5996,0.0,0.0,0.0,0.0,0.0,0.0,0.0,0.0,0.0,0.0,0.0,0.0,0.0,0.0,0.0,0.0,0.0,0.0,0.0,0.0,0.0,0.0,0.0,0.0,0.0,-3.5493,-3.5493,-3.5493,-3.5493,-3.5493,-3.5493,-3.5493,-3.5493,-3.5064,-3.418,-3.3314,-3.2487,-3.1679,-3.0814,-3.0142,-2.9696,-2.9696,-2.957,-2.9372,-2.9112,-2.8994,-2.8994,-2.8994,-2.8749,-2.8368,-2.802,-2.7915,-2.7999,-2.8334,-2.8468,-2.8745,-3.0162,-3.0409,-3.0294,-3.0987,-3.119,-3.119,-3.119,-3.119,-3.119,-3.119,-3.119,-3.119,-3.119,-3.119,-3.119,-3.119,-3.119,-3.119,-3.119,-3.119,-3.119,-3.119,-3.119,-3.119,-3.119,-3.1224,-3.1495,-3.2188,-3.2307,-3.2628,-3.3389,-3.3457,-3.3761,-3.4489,-3.4556,-3.4861,-3.5571,-3.5622,-3.5622,-3.5622,-3.5622,-3.5622,-3.5622,-3.5622,-3.5622,-3.5622,-3.5622,-3.5622,-3.5577,-3.4941,-3.4624,0.0,0.0,0.0,-3.5966,-3.5996,-3.5996,0.0,0.0,0.0,0.0,0.0,0.0,0.0,0.0,0.0,0.0,0.0,0.0,0.0,0.0,0.0,0.0,0.0,0.0,0.0,0.0,0.0,0.0,0.0,0.0,-3.5493,-3.5493,-3.5493,-3.5493,-3.5493,-3.5493,-3.5493,-3.5493,-3.5353,-3.5026,-3.4141,-3.3295,-3.2449,-3.1621,-3.0836,-3.0128,-2.9832,-2.9494,-2.9134,-2.904,-2.8994,-2.8994,-2.8994,-2.8905,-2.8749,-2.8342,-2.8237,-2.8237,-2.8359,-2.8414,-2.8522,-2.9315,-2.9816,-3.0159,-3.0412,-3.0818,-3.119,-3.119,-3.119,-3.119,-3.119,-3.119,-3.119,-3.119,-3.119,-3.119,-3.119,-3.119,-3.119,-3.119,-3.119,-3.119,-3.119,-3.119,-3.119,-3.119,-3.119,-3.1292,-3.1546,-3.1579,-3.1867,-3.2611,-3.2679,-3.2983,-3.3728,-3.3795,-3.4117,-3.4844,-3.4895,-3.5115,-3.5605,-3.5622,-3.5622,-3.5622,-3.5622,-3.5622,-3.5622,-3.5622,-3.5622,-3.5577,-3.4894,-3.4382,-3.5855,0.0,0.0,0.0,0.0,-3.6054,0.0,0.0,0.0,0.0,0.0,0.0,0.0,0.0,0.0,0.0,0.0,0.0,0.0,0.0,0.0,0.0,0.0,0.0,0.0,0.0,0.0,0.0,0.0,0.0,-3.5493,-3.5493,-3.5493,-3.5493,-3.5493,-3.5493,-3.5493,-3.5493,-3.5493,-3.5474,-3.4622,-3.3891,-3.3295,-3.2199,-3.1335,-3.0676,-3.0057,-2.9588,-2.9228,-2.9067,-2.8994,-2.8994,-2.8994,-2.8994,-2.8952,-2.854,-2.8342,-2.8228,-2.8228,-2.8066,-2.7977,-2.875,-2.9158,-2.9468,-3.0091,-3.0527,-3.0886,-3.1123,-3.119,-3.119,-3.119,-3.119,-3.119,-3.119,-3.119,-3.119,-3.119,-3.119,-3.119,-3.119,-3.119,-3.119,-3.119,-3.119,-3.119,-3.119,-3.119,-3.119,-3.119,-3.119,-3.1376,-3.1867,-3.1918,-3.2222,-3.2966,-3.3034,-3.3355,-3.4083,-3.4353,-3.4726,-3.5216,-3.5487,-3.5622,-3.5622,-3.5622,-3.547,-3.5253,-3.547,-3.5622,-3.5577,-3.4688,-3.377,0.0,0.0,0.0,0.0,0.0,0.0,0.0,0.0,0.0,0.0,0.0,0.0,0.0,0.0,0.0,0.0,0.0,0.0,0.0,0.0,0.0,0.0,0.0,0.0,0.0,0.0,0.0,0.0,0.0,-3.5493,-3.5493,-3.5493,-3.5493,-3.5493,-3.5493,-3.5493,-3.5493,-3.5493,-3.5493,-3.5474,-3.4641,-3.4218,-3.4141,-3.2487,-3.1571,-3.1268,-3.0376,-2.9893,-2.9661,-2.9206,-2.9017,-2.8994,-2.8994,-2.8994,-2.8952,-2.8565,-2.821,-2.7926,-2.7897,-2.7378,-2.696,-2.8448,-2.8412,-2.8149,-2.9954,-3.0324,-3.026,-3.097,-3.1173,-3.119,-3.119,-3.119,-3.119,-3.119,-3.119,-3.119,-3.119,-3.119,-3.119,-3.119,-3.119,-3.119,-3.119,-3.119,-3.119,-3.119,-3.119,-3.119,-3.119,-3.119,-3.119,-3.119,-3.119,-3.1478,-3.2188,-3.2297,-3.256,-3.3322,-3.4066,-3.4472,-3.4489,-3.5216,-3.5622,-3.5622,-3.5622,-3.5253,-3.4576,-3.5253,-3.5577,-3.5515,-3.4202,-3.2826,-3.5962,0.0,0.0,0.0,0.0,0.0,0.0,0.0,0.0,0.0,0.0,0.0,0.0,0.0,0.0,0.0,0.0,0.0,0.0,0.0,0.0,0.0,0.0,0.0,0.0,0.0,0.0,0.0,0.0,-3.5493,-3.5493,-3.5493,-3.5493,-3.5493,-3.5493,-3.5493,-3.5493,-3.5493,-3.5493,-3.5507,-3.5257,-3.4814,-3.416,-3.3064,-3.2212,-3.1527,-3.0452,-2.9893,-2.9678,-2.9395,-2.9178,-2.8994,-2.8994,-2.8994,-2.8994,-2.8881,-2.8608,-2.8237,-2.7964,-2.756,-2.7149,-2.7291,-2.7555,-2.7892,-2.8422,-2.9285,-3.0142,-3.0362,-3.0784,-3.119,-3.119,-3.119,-3.119,-3.119,-3.119,-3.119,-3.119,-3.119,-3.119,-3.119,-3.119,-3.119,-3.119,-3.119,-3.119,-3.119,-3.119,-3.119,-3.119,-3.119,-3.119,-3.119,-3.119,-3.1275,-3.1478,-3.1495,-3.1816,-3.2544,-3.3305,-3.3947,-3.4472,-3.5216,-3.5622,-3.5622,-3.5622,-3.5253,-3.4576,-3.4783,-3.464,-3.4153,-3.3303,-3.2367,-3.5938,-3.5896,0.0,0.0,0.0,0.0,0.0,-3.7313,0.0,0.0,0.0,0.0,0.0,0.0,0.0,0.0,0.0,0.0,0.0,0.0,0.0,0.0,0.0,0.0,0.0,0.0,0.0,0.0,-3.5239,-3.5383,-3.5493,-3.5493,-3.5493,-3.5493,-3.5493,-3.5493,-3.5493,-3.5493,-3.5493,-3.5493,-3.5493,-3.5238,-3.4718,-3.3833,-3.2987,-3.2128,-3.1035,-3.0216,-2.9678,-2.9474,-2.9246,-2.8994,-2.8994,-2.8994,-2.8994,-2.8994,-2.8749,-2.8368,-2.8037,-2.7636,-2.7272,-2.7036,-2.7147,-2.7436,-2.7913,-2.8575,-2.9279,-2.9939,-3.0632,-3.119,-3.119,-3.119,-3.119,-3.119,-3.119,-3.119,-3.119,-3.119,-3.119,-3.119,-3.119,-3.119,-3.119,-3.119,-3.119,-3.119,-3.119,-3.119,-3.119,-3.119,-3.119,-3.119,-3.119,-3.119,-3.119,-3.119,-3.1495,-3.2263,-3.2983,-3.3728,-3.4455,-3.5216,-3.5622,-3.5622,-3.5622,-3.5115,-3.4186,-3.4479,-3.4137,-3.3182,-3.2788,-3.2216,-3.5888,-3.5803,-3.5666,0.0,0.0,0.0,-3.7411,-3.7634,0.0,0.0,0.0,0.0,0.0,0.0,0.0,0.0,0.0,0.0,0.0,0.0,0.0,0.0,0.0,0.0,0.0,0.0,0.0,-3.4981,-3.5051,-3.5223,-3.5493,-3.5493,-3.5493,-3.5493,-3.5493,-3.5493,-3.5493,-3.5493,-3.5493,-3.5493,-3.5493,-3.5493,-3.5468,-3.4603,-3.3776,-3.2974,-3.1847,-3.076,-2.9828,-2.9551,-2.9267,-2.8994,-2.8994,-2.8994,-2.8994,-2.8994,-2.8773,-2.842,-2.8075,-2.7707,-2.7348,-2.7317,-2.7019,-2.6877,-2.7891,-2.8032,-2.811,-2.9685,-3.0581,-3.1089,-3.1173,-3.119,-3.119,-3.119,-3.119,-3.119,-3.119,-3.119,-3.119,-3.119,-3.119,-3.119,-3.119,-3.119,-3.119,-3.119,-3.119,-3.119,-3.119,-3.119,-3.119,-3.119,-3.119,-3.119,-3.119,-3.119,-3.1495,-3.2263,-3.2983,-3.3728,-3.4455,-3.5216,-3.5622,-3.5622,-3.547,-3.48,-3.3582,-3.4037,-3.3633,-3.2492,-3.2492,-3.212,0.0,0.0,0.0,0.0,0.0,0.0,-3.593,-3.6304,0.0,0.0,0.0,0.0,0.0,0.0,0.0,0.0,0.0,0.0,0.0,0.0,0.0,0.0,0.0,0.0,0.0,0.0,-3.4334,-3.436,-3.4832,-3.5223,-3.5493,-3.5493,-3.5493,-3.5493,-3.5493,-3.5493,-3.5493,-3.5493,-3.5493,-3.5493,-3.5493,-3.5493,-3.5468,-3.4603,-3.4103,-3.3853,-3.2295,-3.1298,-3.0693,-2.9943,-2.9377,-2.8994,-2.8994,-2.8994,-2.8994,-2.8994,-2.8952,-2.8839,-2.8438,-2.8057,-2.7725,-2.7426,-2.7019,-2.6759,-2.6961,-2.7402,-2.811,-2.9685,-3.0209,-3.0446,-3.1055,-3.119,-3.119,-3.119,-3.119,-3.119,-3.119,-3.119,-3.119,-3.119,-3.119,-3.119,-3.119,-3.119,-3.119,-3.119,-3.119,-3.119,-3.119,-3.119,-3.119,-3.119,-3.119,-3.119,-3.119,-3.119,-3.1495,-3.2263,-3.2983,-3.3728,-3.4455,-3.5216,-3.5622,-3.5622,-3.456,-3.3836,-3.3582,-3.261,-3.1992,-3.1682,-3.1682,-3.164,0.0,0.0,0.0,-3.5565,0.0,0.0,0.0,-3.5983,-3.6217,0.0,0.0,0.0,0.0,0.0,0.0,0.0,0.0,0.0,0.0,0.0,0.0,0.0,0.0,0.0,0.0,0.0,-3.4141,-3.4442,-3.4832,-3.5223,-3.5493,-3.5493,-3.5493,-3.5493,-3.5493,-3.5493,-3.5493,-3.5493,-3.5493,-3.5493,-3.5493,-3.5493,-3.5488,-3.5045,-3.4603,-3.4141,-3.3177,-3.2073,-3.0958,-3.0396,-2.9688,-2.8994,-2.8994,-2.8994,-2.8994,-2.8994,-2.8994,-2.8929,-2.854,-2.8183,-2.784,-2.7409,-2.7019,-2.6691,-2.6691,-2.7232,-2.7941,-2.8755,-2.9516,-3.0192,-3.0565,-3.092,-3.119,-3.119,-3.119,-3.119,-3.119,-3.119,-3.119,-3.119,-3.119,-3.119,-3.119,-3.119,-3.119,-3.119,-3.119,-3.119,-3.119,-3.119,-3.119,-3.119,-3.119,-3.119,-3.119,-3.119,-3.1664,-3.278,-3.3203,-3.3914,-3.5013,-3.5419,-3.5453,-3.5098,-3.4087,-3.3443,-3.3093,-3.1992,-3.1482,-3.1482,-3.1482,-3.1482,0.0,0.0,0.0,0.0,0.0,-3.5541,0.0,0.0,0.0,-3.6462,0.0,0.0,0.0,0.0,0.0,0.0,0.0,0.0,0.0,0.0,0.0,0.0,0.0,0.0,0.0,0.0,-3.3895,-3.4551,-3.4755,-3.5018,-3.5398,-3.546,-3.5493,-3.5493,-3.5493,-3.5493,-3.5493,-3.5493,-3.5493,-3.5493,-3.5493,-3.5493,-3.5493,-3.5493,-3.5122,-3.443,-3.404,-3.2991,-3.1501,-3.0921,-3.0132,-2.9292,-2.9095,-2.8994,-2.8994,-2.8994,-2.8994,-2.8952,-2.8633,-2.829,-2.7936,-2.753,-2.7083,-2.6691,-2.6691,-2.7114,-2.7638,-2.7739,-2.8822,-2.9922,-3.0074,-3.0649,-3.119,-3.119,-3.119,-3.119,-3.119,-3.119,-3.119,-3.119,-3.119,-3.119,-3.119,-3.119,-3.119,-3.119,-3.119,-3.119,-3.119,-3.119,-3.119,-3.119,-3.119,-3.119,-3.119,-3.119,-3.1833,-3.3322,-3.3406,-3.4066,-3.5554,-3.5622,-3.5299,-3.4624,-3.3937,-3.3287,-3.2586,-3.1853,-3.1482,-3.1482,-3.1482,-3.1482,0.0,0.0,0.0,0.0,-3.532,0.0,0.0,0.0,-3.4414,-3.4507,0.0,-3.4144,-3.4179,0.0,0.0,0.0,0.0,0.0,0.0,0.0,0.0,0.0,0.0,0.0,0.0,0.0,0.0,-3.4209,-3.4055,-3.4301,-3.51,-3.5369,-3.5493,-3.5493,-3.5493,-3.5493,-3.5493,-3.5493,-3.5493,-3.5493,-3.5493,-3.5493,-3.5493,-3.5493,-3.5449,-3.5315,-3.4513,-3.3916,-3.3353,-3.1653,-3.0733,-3.032,-2.937,-2.8994,-2.8994,-2.8994,-2.8994,-2.8994,-2.8952,-2.8658,-2.829,-2.7936,-2.7334,-2.6691,-2.6691,-2.6759,-2.6962,-2.7638,-2.845,-2.9262,-2.9939,-3.0649,-3.119,-3.119,-3.119,-3.119,-3.119,-3.119,-3.119,-3.119,-3.119,-3.119,-3.119,-3.119,-3.119,-3.119,-3.119,-3.119,-3.119,-3.119,-3.119,-3.119,-3.119,-3.119,-3.119,-3.119,-3.1833,-3.3322,-3.3406,-3.4066,-3.5554,-3.5622,-3.5299,-3.4624,-3.3937,-3.3287,-3.2586,-3.1853,-3.1482,-3.1482,-3.1482,-3.1482,0.0,0.0,0.0,0.0,0.0,0.0,0.0,0.0,-3.4171,0.0,0.0,0.0,0.0,0.0,0.0,0.0,0.0,0.0,0.0,0.0,0.0,0.0,0.0,0.0,0.0,0.0,0.0,0.0,0.0,-3.4704,-3.5086,-3.5354,-3.5493,-3.5493,-3.5493,-3.5493,-3.5493,-3.5493,-3.5493,-3.5493,-3.5493,-3.5493,-3.5493,-3.5493,-3.5493,-3.5488,-3.5122,-3.4506,-3.3729,-3.2785,-3.1956,-3.1182,-3.013,-2.942,-2.8994,-2.8994,-2.8994,-2.8994,-2.8994,-2.8749,-2.8316,-2.7736,-2.7178,-2.6691,-2.6691,-2.6691,-2.6759,-2.708,-2.7723,-2.8484,-2.9262,-3.0006,-3.0666,-3.1089,-3.119,-3.119,-3.119,-3.119,-3.119,-3.119,-3.119,-3.119,-3.119,-3.119,-3.119,-3.119,-3.119,-3.119,-3.119,-3.119,-3.119,-3.119,-3.119,-3.119,-3.119,-3.119,-3.1833,-3.3322,-3.3818,-3.4571,-3.5543,-3.4847,-3.4301,-3.4037,-3.3339,-3.268,-3.1951,-3.164,-3.1482,-3.1482,-3.1482,-3.1482,-3.6142,0.0,0.0,0.0,0.0,0.0,0.0,0.0,0.0,0.0,0.0,0.0,0.0,0.0,-3.3807,0.0,0.0,0.0,0.0,0.0,0.0,0.0,0.0,0.0,0.0,0.0,0.0,0.0,0.0,0.0,-3.498,-3.5239,-3.5432,-3.5493,-3.5493,-3.5493,-3.5493,-3.5493,-3.5493,-3.5493,-3.5493,-3.5493,-3.5493,-3.5493,-3.5493,-3.5493,-3.5493,-3.4985,-3.4129,-3.3601,-3.2896,-3.202,-3.0959,-3.0044,-2.931,-2.9067,-2.8994,-2.8994,-2.8994,-2.8676,-2.8166,-2.7648,-2.7115,-2.6691,-2.6691,-2.6691,-2.6691,-2.6691,-2.7232,-2.801,-2.8789,-2.955,-3.0294,-3.1021,-3.119,-3.119,-3.119,-3.119,-3.119,-3.119,-3.119,-3.119,-3.119,-3.119,-3.119,-3.119,-3.119,-3.119,-3.119,-3.119,-3.119,-3.119,-3.119,-3.119,-3.119,-3.119,-3.1833,-3.3322,-3.4143,-3.483,-3.5316,-3.4186,-3.3479,-3.3339,-3.2841,-3.2216,-3.1482,-3.1482,-3.1482,-3.1482,-3.1482,-3.1482,0.0,0.0,0.0,-3.5295,0.0,0.0,0.0,0.0,-3.3815,0.0,0.0,0.0,0.0,-3.3807,-3.3807,-3.3807,0.0,0.0,0.0,0.0,0.0,0.0,0.0,0.0,0.0,0.0,0.0,0.0,0.0,0.0,-3.4676,-3.4963,-3.5223,-3.5493,-3.5493,-3.5493,-3.5493,-3.5493,-3.5493,-3.5493,-3.5493,-3.5493,-3.5493,-3.5493,-3.5493,-3.5493,-3.5493,-3.5335,-3.4973,-3.3866,-3.3233,-3.2854,-3.1789,-3.087,-3.0081,-2.9287,-2.8994,-2.8994,-2.8994,-2.8507,-2.7926,-2.7897,-2.7365,-2.6691,-2.6691,-2.6691,-2.6691,-2.6691,-2.7232,-2.801,-2.8789,-2.955,-3.0294,-3.1021,-3.119,-3.119,-3.119,-3.119,-3.119,-3.119,-3.119,-3.119,-3.119,-3.119,-3.119,-3.119,-3.119,-3.119,-3.119,-3.119,-3.119,-3.119,-3.119,-3.119,-3.119,-3.119,-3.1833,-3.3322,-3.4143,-3.4624,-3.4624,-3.3987,-3.3287,-3.2641,-3.2586,-3.2216,-3.1482,-3.1482,-3.1482,-3.1482,-3.1482,-3.1482,0.0,0.0,-3.7585,-3.6027,0.0,0.0,0.0,0.0,0.0,0.0,0.0,0.0,0.0,0.0,-3.3807,-3.3807,-3.3348,-3.2816,0.0,0.0,0.0,0.0,0.0,0.0,0.0,0.0,0.0,0.0,0.0,0.0,0.0,-3.4963,-3.5223,-3.5493,-3.5493,-3.5493,-3.5493,-3.5493,-3.5493,-3.5493,-3.5493,-3.5493,-3.5493,-3.5493,-3.5493,-3.5493,-3.5304,-3.519,-3.5032,-3.4254,-3.3881,-3.3692,-3.2612,-3.2045,-3.1641,-3.0301,-2.9475,-2.8994,-2.8994,-2.8507,-2.7897,-2.7897,-2.7365,-2.6691,-2.6691,-2.6691,-2.6691,-2.6691,-2.6877,-2.7368,-2.8636,-2.9178,-2.9668,-3.0903,-3.119,-3.1095,-3.0699,-3.0601,-3.0601,-3.0601,-3.0601,-3.074,-3.1151,-3.119,-3.119,-3.119,-3.119,-3.119,-3.119,-3.119,-3.1055,-3.0658,-3.0958,-3.1055,-3.0658,-3.1456,-3.2045,-3.2128,-3.2864,-3.3495,-3.3937,-3.281,-3.2312,-3.2586,-3.212,-3.1739,-3.1482,-3.1482,-3.1482,-3.1482,-3.1482,-3.1482,-3.8546,-3.8567,0.0,0.0,-3.6438,0.0,-3.4577,0.0,0.0,0.0,0.0,0.0,0.0,0.0,-3.3481,-3.3905,-3.3313,-3.2748,0.0,-3.1219,0.0,0.0,0.0,0.0,0.0,0.0,0.0,0.0,-3.3668,0.0,0.0,0.0,-3.4906,-3.5207,-3.5304,-3.5369,-3.5369,-3.5446,-3.5493,-3.5493,-3.5493,-3.5493,-3.5493,-3.5493,-3.5493,-3.5493,-3.5223,-3.5053,-3.4926,-3.4405,-3.4147,-3.3988,-3.3298,-3.2852,-3.2412,-3.0797,-2.9696,-2.8994,-2.8994,-2.8507,-2.7897,-2.7897,-2.7365,-2.6691,-2.6691,-2.6691,-2.6742,-2.7012,-2.6894,-2.7114,-2.8907,-2.9194,-2.9347,-3.0835,-3.119,-3.1015,-3.0435,-3.0293,-3.0251,-3.0021,-3.0166,-3.0435,-3.0797,-3.0878,-3.0958,-3.1151,-3.119,-3.119,-3.119,-3.119,-3.0975,-3.0335,-3.0658,-3.0658,-3.0038,-3.1254,-3.1929,-3.1518,-3.2165,-3.2788,-3.3251,-3.2104,-3.1739,-3.2231,-3.1739,-3.1482,-3.1482,-3.1482,-3.1482,-3.1482,-3.1482,-3.1482]}]]